Darstellungsparameter: Aktuell verwendete Einstellungen:
Skalierung der Graphiken ... ?
xyx+y,   Skalierungsfaktor:      Skalierung: Modus: x, Faktor: 1
Darstellungszeitraum ... ?
Vom - - bis: - -   Zeitraum: 22.04.2009 - 21.05.2009
Min/Max/Avg-Anzeige ... ?
Zeige MMA aktuell
Zeige MMA Monat
Zeige MMA alles
Zeige --A aktuell
Zeige --A Monat
Zeige --A alles
Keine MMA-Anzeige
MMA:
Average (ber die Originaldaten)
MMA-Basis: 22.04.2009 - 21.05.2009
Quicknavigation für Darstellung... ?
Tage:      1T, 2T, 3T, 5T -1T -2T -3T -5T +1T +2T +3T +5T
Wochen: 1W, 2W, 3W -1W -2W -3W +1W +2W +3W
Monate: 1M, 3M, 6M -1M -3M -6M +1M +3M +6M
Jahre:    1J, 3J, 5J, 10J -1J -3J -5J -10J +1J +3J +5J +10J
Nutze für die Darstellung ... ?
Originaldaten oder Mittelwerte auf ...
Stundenbasis Tagesbasis Wochenbasis
Monatsbasis Jahresbasis      Datenbasis: Original-Daten
Darstellen als:
Statistik (Auto) Statistik J:M      Darstellung:
Zur Graphik,    zurück zur Übersicht aller Sensoren.
 
Tabellarische Datenbersicht: ?
 
Sensor: Nr:Datum:Temp:Abs-Feuchte:Windchill:Wind:
Aussen-T/F 1 22-04-2009 00:06:46 14.8 C 5.95 g/m*3 14.8 C 0 km/h
2 22-04-2009 00:18:46 14.7 C 6.04 g/m*3 14.7 C 0 km/h
3 22-04-2009 00:30:46 14.6 C 5.88 g/m*3 14.6 C 0 km/h
4 22-04-2009 00:42:47 14.5 C 5.97 g/m*3 14.5 C 0 km/h
5 22-04-2009 00:54:47 14.1 C 5.83 g/m*3 14.1 C 0 km/h
6 22-04-2009 01:06:47 13.9 C 5.99 g/m*3 13.9 C 0 km/h
7 22-04-2009 01:18:47 13.7 C 6.04 g/m*3 13.7 C 0 km/h
8 22-04-2009 01:30:47 13.2 C 6.09 g/m*3 13.2 C 0 km/h
9 22-04-2009 01:42:47 13.1 C 6.28 g/m*3 13.1 C 0 km/h
10 22-04-2009 01:54:47 13 C 6.01 g/m*3 13 C 0 km/h
11 22-04-2009 02:06:47 13 C 6.12 g/m*3 13 C 0 km/h
12 22-04-2009 02:18:47 12.8 C 6.16 g/m*3 12.8 C 0 km/h
13 22-04-2009 02:30:47 12.6 C 6.2 g/m*3 12.6 C 0 km/h
14 22-04-2009 02:42:47 12.3 C 6.19 g/m*3 12.3 C 0 km/h
15 22-04-2009 02:54:47 12.1 C 6.22 g/m*3 12.1 C 0 km/h
16 22-04-2009 03:06:47 11.8 C 6.31 g/m*3 11.8 C 0 km/h
17 22-04-2009 03:18:47 11.7 C 6.28 g/m*3 11.7 C 0 km/h
18 22-04-2009 03:30:47 11.8 C 6.21 g/m*3 11.8 C 0 km/h
19 22-04-2009 03:42:47 11.7 C 6.17 g/m*3 11.7 C 0 km/h
20 22-04-2009 03:54:47 11.3 C 6.12 g/m*3 11.3 C 0 km/h
21 22-04-2009 04:06:47 11 C 6.01 g/m*3 11 C 0 km/h
22 22-04-2009 04:18:47 10.9 C 5.97 g/m*3 10.9 C 0 km/h
23 22-04-2009 04:30:48 10.8 C 5.93 g/m*3 10.8 C 0 km/h
24 22-04-2009 04:42:48 10.7 C 5.99 g/m*3 10.7 C 0 km/h
25 22-04-2009 04:54:48 10.5 C 6.01 g/m*3 10.5 C 0 km/h
Sensor: Nr:Datum:Temp:Abs-Feuchte:Windchill:Wind:
Aussen-T/F 26 22-04-2009 05:06:48 10.7 C 6.09 g/m*3 10.7 C 0 km/h
27 22-04-2009 05:18:48 10.6 C 6.05 g/m*3 10.6 C 0 km/h
28 22-04-2009 05:30:48 10.3 C 6.13 g/m*3 10.3 C 0 km/h
29 22-04-2009 05:42:48 10 C 6.11 g/m*3 10 C 0 km/h
30 22-04-2009 05:54:48 9.9 C 6.26 g/m*3 9.9 C 0 km/h
31 22-04-2009 06:06:48 9.9 C 6.44 g/m*3 9.9 C 0 km/h
32 22-04-2009 06:18:48 9.7 C 6.45 g/m*3 9.7 C 0 km/h
33 22-04-2009 06:30:48 9.6 C 6.5 g/m*3 9.6 C 0 km/h
34 22-04-2009 06:42:48 9.6 C 6.69 g/m*3 9.6 C 0 km/h
35 22-04-2009 06:54:48 9.6 C 6.69 g/m*3 9.6 C 0 km/h
36 22-04-2009 07:06:48 9.7 C 6.82 g/m*3 9.7 C 0 km/h
37 22-04-2009 07:18:48 9.7 C 6.82 g/m*3 9.7 C 0 km/h
38 22-04-2009 07:30:48 9.8 C 6.87 g/m*3 9.8 C 0 km/h
39 22-04-2009 07:42:48 9.9 C 6.91 g/m*3 9.9 C 0 km/h
40 22-04-2009 07:54:46 10.1 C 7 g/m*3 10.1 C 0 km/h
41 22-04-2009 08:06:46 10.3 C 6.99 g/m*3 10.3 C 0 km/h
42 22-04-2009 08:18:47 10.4 C 6.84 g/m*3 10.4 C 0 km/h
43 22-04-2009 08:30:46 10.5 C 6.89 g/m*3 10.5 C 0 km/h
44 22-04-2009 08:42:46 10.5 C 6.79 g/m*3 10.5 C 0 km/h
45 22-04-2009 08:54:46 10.6 C 6.73 g/m*3 10.6 C 0 km/h
46 22-04-2009 09:06:46 10.7 C 6.68 g/m*3 10.7 C 0 km/h
47 22-04-2009 09:18:46 11 C 6.71 g/m*3 11 C 0 km/h
48 22-04-2009 09:30:45 11.2 C 6.69 g/m*3 11.2 C 0 km/h
49 22-04-2009 09:42:45 10.7 C 6.38 g/m*3 10.7 C 0 km/h
50 22-04-2009 09:54:46 11.2 C 6.49 g/m*3 11.2 C 0 km/h
Sensor: Nr:Datum:Temp:Abs-Feuchte:Windchill:Wind:
Aussen-T/F 51 22-04-2009 10:06:45 11.4 C 5.95 g/m*3 11.4 C 0 km/h
52 22-04-2009 10:18:45 11.8 C 5.79 g/m*3 11.8 C 0 km/h
53 22-04-2009 10:30:45 11.8 C 5.89 g/m*3 11.8 C 0 km/h
54 22-04-2009 10:42:45 12.4 C 6.01 g/m*3 12.4 C 0 km/h
55 22-04-2009 10:54:45 12.9 C 5.64 g/m*3 12.9 C 0 km/h
56 22-04-2009 11:06:45 13.1 C 5.59 g/m*3 13.1 C 0 km/h
57 22-04-2009 11:18:44 13.3 C 5.66 g/m*3 13.3 C 0 km/h
58 22-04-2009 11:30:45 14 C 5.67 g/m*3 14 C 0 km/h
59 22-04-2009 11:42:45 14.6 C 5.51 g/m*3 14.6 C 0 km/h
60 22-04-2009 11:54:44 15 C 5.39 g/m*3 15 C 0 km/h
61 22-04-2009 12:06:44 15.7 C 5.62 g/m*3 15.7 C 0 km/h
62 22-04-2009 12:18:44 16.1 C 5.76 g/m*3 16.1 C 0 km/h
63 22-04-2009 12:30:44 15.7 C 5.62 g/m*3 15.7 C 0 km/h
64 22-04-2009 12:42:44 16 C 5.59 g/m*3 16 C 0 km/h
65 22-04-2009 12:54:43 16.2 C 5.52 g/m*3 16.2 C 0 km/h
66 22-04-2009 13:06:44 17.1 C 5.68 g/m*3 17.1 C 0 km/h
67 22-04-2009 13:18:43 17.5 C 5.96 g/m*3 17.5 C 0 km/h
68 22-04-2009 13:30:43 16.7 C 5.4 g/m*3 16.7 C 0 km/h
69 22-04-2009 13:42:43 17.2 C 5.56 g/m*3 17.2 C 0 km/h
70 22-04-2009 13:54:43 17 C 5.35 g/m*3 17 C 0 km/h
71 22-04-2009 14:06:43 16.6 C 5.51 g/m*3 16.6 C 0 km/h
72 22-04-2009 14:18:43 17.2 C 5.42 g/m*3 17.2 C 0 km/h
73 22-04-2009 14:30:42 17.8 C 5.46 g/m*3 17.8 C 0 km/h
74 22-04-2009 14:42:42 16.8 C 5.15 g/m*3 16.8 C 0 km/h
75 22-04-2009 14:54:43 17.4 C 5.48 g/m*3 17.4 C 0 km/h
Sensor: Nr:Datum:Temp:Abs-Feuchte:Windchill:Wind:
Aussen-T/F 76 22-04-2009 15:06:42 16.9 C 5.03 g/m*3 16.9 C 0 km/h
77 22-04-2009 15:18:42 17.5 C 4.92 g/m*3 17.5 C 0 km/h
78 22-04-2009 15:30:42 17.1 C 4.8 g/m*3 17.1 C 0 km/h
79 22-04-2009 15:42:42 16.4 C 5.02 g/m*3 16.4 C 0 km/h
80 22-04-2009 15:54:42 16.7 C 5.12 g/m*3 16.7 C 0 km/h
81 22-04-2009 16:06:42 18 C 4.15 g/m*3 18 C 0 km/h
82 22-04-2009 16:18:41 18 C 3.38 g/m*3 18 C 0 km/h
83 22-04-2009 16:30:42 17.9 C 3.05 g/m*3 17.9 C 0 km/h
84 22-04-2009 16:42:42 18.2 C 3.11 g/m*3 18.2 C 0 km/h
85 22-04-2009 16:54:41 19.1 C 3.28 g/m*3 19.1 C 0 km/h
86 22-04-2009 17:06:41 18.4 C 3.15 g/m*3 18.4 C 0 km/h
87 22-04-2009 17:18:41 18.5 C 3.16 g/m*3 18.5 C 0 km/h
88 22-04-2009 17:30:41 19.6 C 3.38 g/m*3 19.6 C 0 km/h
89 22-04-2009 17:42:41 19 C 3.26 g/m*3 19 C 0 km/h
90 22-04-2009 17:54:41 19 C 3.26 g/m*3 19 C 0 km/h
91 22-04-2009 18:06:41 17.8 C 3.79 g/m*3 17.8 C 0 km/h
92 22-04-2009 18:18:40 18 C 3.84 g/m*3 18 C 0 km/h
93 22-04-2009 18:30:40 17.8 C 3.95 g/m*3 17.8 C 0 km/h
94 22-04-2009 18:42:40 17.1 C 3.93 g/m*3 17.1 C 0 km/h
95 22-04-2009 18:54:40 17.7 C 3.92 g/m*3 17.7 C 0 km/h
96 22-04-2009 19:06:40 17.4 C 4 g/m*3 17.4 C 0 km/h
97 22-04-2009 19:18:40 16.5 C 4.21 g/m*3 16.5 C 0 km/h
98 22-04-2009 19:30:40 16.1 C 4.11 g/m*3 16.1 C 0 km/h
99 22-04-2009 19:42:40 16.6 C 4.38 g/m*3 16.6 C 0 km/h
100 22-04-2009 19:54:39 16.5 C 4.21 g/m*3 16.5 C 0 km/h
Sensor: Nr:Datum:Temp:Abs-Feuchte:Windchill:Wind:
Aussen-T/F 101 22-04-2009 20:06:39 16.4 C 3.91 g/m*3 16.4 C 0 km/h
102 22-04-2009 20:18:40 15.6 C 3.59 g/m*3 15.6 C 0 km/h
103 22-04-2009 20:30:39 14.8 C 3.8 g/m*3 14.8 C 0 km/h
104 22-04-2009 20:42:39 14.2 C 3.66 g/m*3 14.2 C 0 km/h
105 22-04-2009 20:54:39 13.8 C 3.57 g/m*3 13.8 C 0 km/h
106 22-04-2009 21:06:39 13.3 C 3.47 g/m*3 13.3 C 0 km/h
107 22-04-2009 21:18:39 13 C 3.4 g/m*3 13 C 0 km/h
108 22-04-2009 21:30:39 12.7 C 3.67 g/m*3 12.7 C 0 km/h
109 22-04-2009 21:42:39 12.4 C 3.61 g/m*3 12.4 C 0 km/h
110 22-04-2009 21:54:38 12.1 C 3.54 g/m*3 12.1 C 0 km/h
111 22-04-2009 22:06:39 12 C 3.62 g/m*3 12 C 0 km/h
112 22-04-2009 22:19:39 11.9 C 3.71 g/m*3 11.9 C 0 km/h
113 22-04-2009 22:31:39 11.7 C 3.77 g/m*3 11.7 C 0 km/h
114 22-04-2009 22:43:39 11.4 C 3.8 g/m*3 11.4 C 0 km/h
115 22-04-2009 22:55:39 11.3 C 3.88 g/m*3 11.3 C 0 km/h
116 22-04-2009 23:07:39 11 C 3.9 g/m*3 11 C 0 km/h
117 22-04-2009 23:19:39 10.8 C 4.05 g/m*3 10.8 C 0 km/h
118 22-04-2009 23:31:39 10.2 C 4 g/m*3 10.2 C 0 km/h
119 22-04-2009 23:43:39 10.1 C 4.16 g/m*3 10.1 C 0 km/h
120 22-04-2009 23:55:39 10 C 4.23 g/m*3 10 C 0 km/h
121 23-04-2009 00:07:39 9.7 C 4.24 g/m*3 9.7 C 0 km/h
122 23-04-2009 00:19:39 9.5 C 4.28 g/m*3 9.5 C 0 km/h
123 23-04-2009 00:31:39 9.2 C 4.46 g/m*3 9.2 C 0 km/h
124 23-04-2009 00:43:39 8.9 C 4.47 g/m*3 8.9 C 0 km/h
125 23-04-2009 00:55:39 8.6 C 4.73 g/m*3 8.6 C 0 km/h
Sensor: Nr:Datum:Temp:Abs-Feuchte:Windchill:Wind:
Aussen-T/F 126 23-04-2009 01:07:39 8.5 C 4.7 g/m*3 8.5 C 0 km/h
127 23-04-2009 01:19:39 8.4 C 4.67 g/m*3 8.4 C 0 km/h
128 23-04-2009 01:31:39 8.1 C 4.66 g/m*3 8.1 C 0 km/h
129 23-04-2009 01:43:39 8.1 C 4.66 g/m*3 8.1 C 0 km/h
130 23-04-2009 01:55:39 7.8 C 4.82 g/m*3 7.8 C 0 km/h
131 23-04-2009 02:07:39 7.7 C 4.7 g/m*3 7.7 C 0 km/h
132 23-04-2009 02:19:40 7.4 C 4.85 g/m*3 7.4 C 0 km/h
133 23-04-2009 02:31:40 7.6 C 4.83 g/m*3 7.6 C 0 km/h
134 23-04-2009 02:43:40 7.7 C 4.87 g/m*3 7.7 C 0 km/h
135 23-04-2009 02:55:40 7.3 C 4.98 g/m*3 7.3 C 0 km/h
136 23-04-2009 03:07:40 7.1 C 4.91 g/m*3 7.1 C 0 km/h
137 23-04-2009 03:19:40 7.1 C 4.91 g/m*3 7.1 C 0 km/h
138 23-04-2009 03:31:40 7.1 C 4.91 g/m*3 7.1 C 0 km/h
139 23-04-2009 03:43:40 7 C 4.96 g/m*3 7 C 0 km/h
140 23-04-2009 03:55:40 6.9 C 5.08 g/m*3 6.9 C 0 km/h
141 23-04-2009 04:07:40 6.6 C 5.06 g/m*3 6.6 C 0 km/h
142 23-04-2009 04:19:40 6.2 C 5.15 g/m*3 6.2 C 0 km/h
143 23-04-2009 04:31:40 6.3 C 5.33 g/m*3 6.3 C 0 km/h
144 23-04-2009 04:43:40 6.3 C 5.4 g/m*3 6.3 C 0 km/h
145 23-04-2009 04:55:40 6.5 C 5.47 g/m*3 6.5 C 0 km/h
146 23-04-2009 05:07:40 6.7 C 5.47 g/m*3 6.7 C 0 km/h
147 23-04-2009 05:19:40 6.5 C 5.47 g/m*3 6.5 C 0 km/h
148 23-04-2009 05:31:40 6.5 C 5.55 g/m*3 6.5 C 0 km/h
149 23-04-2009 05:43:40 6.8 C 5.66 g/m*3 6.8 C 0 km/h
150 23-04-2009 05:55:40 6.8 C 5.58 g/m*3 6.8 C 0 km/h
Sensor: Nr:Datum:Temp:Abs-Feuchte:Windchill:Wind:
Aussen-T/F 151 23-04-2009 06:07:41 6.8 C 5.66 g/m*3 6.8 C 0 km/h
152 23-04-2009 06:19:41 7 C 5.66 g/m*3 7 C 0 km/h
153 23-04-2009 06:31:41 7 C 5.66 g/m*3 7 C 0 km/h
154 23-04-2009 06:43:41 6.9 C 5.62 g/m*3 6.9 C 0 km/h
155 23-04-2009 06:55:41 7 C 5.66 g/m*3 7 C 0 km/h
156 23-04-2009 07:07:39 7.1 C 5.69 g/m*3 7.1 C 0 km/h
157 23-04-2009 07:19:39 7 C 5.66 g/m*3 7 C 0 km/h
158 23-04-2009 07:31:38 7.1 C 5.77 g/m*3 7.1 C 0 km/h
159 23-04-2009 07:43:38 7.1 C 5.69 g/m*3 7.1 C 0 km/h
160 23-04-2009 07:55:39 7.4 C 5.81 g/m*3 7.4 C 0 km/h
161 23-04-2009 08:07:38 7.7 C 5.84 g/m*3 7.7 C 0 km/h
162 23-04-2009 08:19:38 7.9 C 5.83 g/m*3 7.9 C 0 km/h
163 23-04-2009 08:31:38 8.4 C 5.94 g/m*3 8.4 C 0 km/h
164 23-04-2009 08:43:38 8.5 C 5.89 g/m*3 8.5 C 0 km/h
165 23-04-2009 08:55:38 8.6 C 5.93 g/m*3 8.6 C 0 km/h
166 23-04-2009 09:07:38 9 C 5.82 g/m*3 9 C 0 km/h
167 23-04-2009 09:19:37 9.5 C 5.92 g/m*3 9.5 C 0 km/h
168 23-04-2009 09:31:37 9.8 C 5.85 g/m*3 9.8 C 0 km/h
169 23-04-2009 09:43:37 10.3 C 5.75 g/m*3 10.3 C 0 km/h
170 23-04-2009 09:55:37 11 C 5.81 g/m*3 11 C 0 km/h
171 23-04-2009 10:07:37 11.5 C 5.58 g/m*3 11.5 C 0 km/h
172 23-04-2009 10:19:37 11.7 C 5.33 g/m*3 11.7 C 0 km/h
173 23-04-2009 10:31:37 11.1 C 5.24 g/m*3 11.1 C 0 km/h
174 23-04-2009 10:43:37 10.8 C 5.24 g/m*3 10.8 C 0 km/h
175 23-04-2009 10:55:36 10.9 C 5.07 g/m*3 10.9 C 0 km/h
Sensor: Nr:Datum:Temp:Abs-Feuchte:Windchill:Wind:
Aussen-T/F 176 23-04-2009 11:07:36 11.2 C 5.07 g/m*3 11.2 C 0 km/h
177 23-04-2009 11:19:37 11.9 C 5.3 g/m*3 11.9 C 0 km/h
178 23-04-2009 11:31:36 12 C 4.9 g/m*3 12 C 0 km/h
179 23-04-2009 11:43:36 11.6 C 4.57 g/m*3 11.6 C 0 km/h
180 23-04-2009 11:55:36 12.7 C 4.79 g/m*3 12.7 C 0 km/h
181 23-04-2009 12:07:36 13.9 C 4.2 g/m*3 13.9 C 0 km/h
182 23-04-2009 12:19:36 13.3 C 4.39 g/m*3 13.3 C 0 km/h
183 23-04-2009 12:31:36 13.1 C 4.11 g/m*3 13.1 C 0 km/h
184 23-04-2009 12:43:36 14 C 4.34 g/m*3 14 C 0 km/h
185 23-04-2009 12:55:35 14 C 4.22 g/m*3 14 C 0 km/h
186 23-04-2009 13:07:36 14.1 C 4.37 g/m*3 14.1 C 0 km/h
187 23-04-2009 13:19:35 16 C 4.09 g/m*3 16 C 0 km/h
188 23-04-2009 13:31:35 15.2 C 4.15 g/m*3 15.2 C 0 km/h
189 23-04-2009 13:43:35 16.2 C 4.27 g/m*3 16.2 C 0 km/h
190 23-04-2009 13:55:35 16.9 C 4.46 g/m*3 16.9 C 0 km/h
191 23-04-2009 14:07:35 15 C 4.23 g/m*3 15 C 0 km/h
192 23-04-2009 14:19:34 15 C 4.49 g/m*3 15 C 0 km/h
193 23-04-2009 14:31:35 15 C 4.23 g/m*3 15 C 0 km/h
194 23-04-2009 14:43:36 15.2 C 4.54 g/m*3 15.2 C 0 km/h
195 23-04-2009 14:55:34 16.7 C 4.69 g/m*3 16.7 C 0 km/h
196 23-04-2009 15:07:34 17.9 C 4.43 g/m*3 17.9 C 0 km/h
197 23-04-2009 15:19:34 18.5 C 3.64 g/m*3 18.5 C 0 km/h
198 23-04-2009 15:31:34 17.5 C 3.88 g/m*3 17.5 C 0 km/h
199 23-04-2009 15:43:34 18 C 3.84 g/m*3 18 C 0 km/h
200 23-04-2009 15:55:33 18.1 C 3.55 g/m*3 18.1 C 0 km/h
Sensor: Nr:Datum:Temp:Abs-Feuchte:Windchill:Wind:
Aussen-T/F 201 23-04-2009 16:07:33 16.6 C 3.81 g/m*3 16.6 C 0 km/h
202 23-04-2009 16:19:34 17.7 C 3.92 g/m*3 17.7 C 0 km/h
203 23-04-2009 16:31:33 18.1 C 3.71 g/m*3 18.1 C 0 km/h
204 23-04-2009 16:43:33 19.5 C 3.86 g/m*3 19.5 C 0 km/h
205 23-04-2009 16:55:33 18.1 C 3.4 g/m*3 18.1 C 0 km/h
206 23-04-2009 17:07:33 20.1 C 3.65 g/m*3 20.1 C 0 km/h
207 23-04-2009 17:19:33 20.4 C 3.71 g/m*3 20.4 C 0 km/h
208 23-04-2009 17:31:32 19.7 C 3.57 g/m*3 19.7 C 0 km/h
209 23-04-2009 17:43:32 18.6 C 3.82 g/m*3 18.6 C 0 km/h
210 23-04-2009 17:55:33 18.1 C 4.02 g/m*3 18.1 C 0 km/h
211 23-04-2009 18:07:32 17.7 C 4.07 g/m*3 17.7 C 0 km/h
212 23-04-2009 18:19:32 17.7 C 4.07 g/m*3 17.7 C 0 km/h
213 23-04-2009 18:31:32 17.4 C 4.15 g/m*3 17.4 C 0 km/h
214 23-04-2009 18:43:32 17.1 C 4.08 g/m*3 17.1 C 0 km/h
215 23-04-2009 18:55:32 16.9 C 4.31 g/m*3 16.9 C 0 km/h
216 23-04-2009 19:07:32 17.9 C 4.12 g/m*3 17.9 C 0 km/h
217 23-04-2009 19:19:31 18.1 C 4.17 g/m*3 18.1 C 0 km/h
218 23-04-2009 19:31:32 16.6 C 4.1 g/m*3 16.6 C 0 km/h
219 23-04-2009 19:43:33 15.4 C 4.2 g/m*3 15.4 C 0 km/h
220 23-04-2009 19:55:31 14.3 C 4.55 g/m*3 14.3 C 0 km/h
221 23-04-2009 20:07:31 14 C 4.58 g/m*3 14 C 0 km/h
222 23-04-2009 20:19:31 13.5 C 4.68 g/m*3 13.5 C 0 km/h
223 23-04-2009 20:31:31 13.4 C 4.65 g/m*3 13.4 C 0 km/h
224 23-04-2009 20:43:31 13.2 C 4.59 g/m*3 13.2 C 0 km/h
225 23-04-2009 20:55:30 12.6 C 4.76 g/m*3 12.6 C 0 km/h
Sensor: Nr:Datum:Temp:Abs-Feuchte:Windchill:Wind:
Aussen-T/F 226 23-04-2009 21:07:31 12.2 C 4.75 g/m*3 12.2 C 0 km/h
227 23-04-2009 21:19:30 12.1 C 4.93 g/m*3 12.1 C 0 km/h
228 23-04-2009 21:31:31 11.8 C 5.16 g/m*3 11.8 C 0 km/h
229 23-04-2009 21:43:32 11.7 C 5.23 g/m*3 11.7 C 0 km/h
230 23-04-2009 21:55:30 11.2 C 5.17 g/m*3 11.2 C 0 km/h
231 23-04-2009 22:07:30 11.2 C 5.27 g/m*3 11.2 C 0 km/h
232 23-04-2009 22:19:30 11 C 5.2 g/m*3 11 C 0 km/h
233 23-04-2009 22:32:31 10.5 C 5.24 g/m*3 10.5 C 0 km/h
234 23-04-2009 22:44:31 10.4 C 5.4 g/m*3 10.4 C 0 km/h
235 23-04-2009 22:56:31 10.1 C 5.39 g/m*3 10.1 C 0 km/h
236 23-04-2009 23:08:32 9.9 C 5.51 g/m*3 9.9 C 0 km/h
237 23-04-2009 23:20:32 9.6 C 5.5 g/m*3 9.6 C 0 km/h
238 23-04-2009 23:32:32 9.5 C 5.55 g/m*3 9.5 C 0 km/h
239 23-04-2009 23:44:32 9.3 C 5.57 g/m*3 9.3 C 0 km/h
240 23-04-2009 23:56:32 9.2 C 5.63 g/m*3 9.2 C 0 km/h
241 24-04-2009 00:08:32 9 C 5.64 g/m*3 9 C 0 km/h
242 24-04-2009 00:20:32 8.7 C 5.62 g/m*3 8.7 C 0 km/h
243 24-04-2009 00:32:32 8.6 C 5.67 g/m*3 8.6 C 0 km/h
244 24-04-2009 00:44:32 8.5 C 5.72 g/m*3 8.5 C 0 km/h
245 24-04-2009 00:56:32 8.3 C 5.82 g/m*3 8.3 C 0 km/h
246 24-04-2009 01:08:32 8.1 C 5.74 g/m*3 8.1 C 0 km/h
247 24-04-2009 01:20:32 7.9 C 5.75 g/m*3 7.9 C 0 km/h
248 24-04-2009 01:32:32 8.1 C 5.82 g/m*3 8.1 C 0 km/h
249 24-04-2009 01:44:32 8.3 C 5.98 g/m*3 8.3 C 0 km/h
250 24-04-2009 01:56:32 8.2 C 6.03 g/m*3 8.2 C 0 km/h
Sensor: Nr:Datum:Temp:Abs-Feuchte:Windchill:Wind:
Aussen-T/F 251 24-04-2009 02:08:32 8.1 C 5.91 g/m*3 8.1 C 0 km/h
252 24-04-2009 02:20:32 8.1 C 5.99 g/m*3 8.1 C 0 km/h
253 24-04-2009 02:32:32 8.2 C 5.95 g/m*3 8.2 C 0 km/h
254 24-04-2009 02:44:32 7.9 C 5.91 g/m*3 7.9 C 0 km/h
255 24-04-2009 02:56:33 7.9 C 6 g/m*3 7.9 C 0 km/h
256 24-04-2009 03:08:33 8 C 5.95 g/m*3 8 C 0 km/h
257 24-04-2009 03:20:33 7.7 C 5.92 g/m*3 7.7 C 0 km/h
258 24-04-2009 03:32:33 7.3 C 5.85 g/m*3 7.3 C 0 km/h
259 24-04-2009 03:44:33 7 C 5.97 g/m*3 7 C 0 km/h
260 24-04-2009 03:56:33 6.6 C 5.96 g/m*3 6.6 C 0 km/h
261 24-04-2009 04:08:33 6.5 C 5.92 g/m*3 6.5 C 0 km/h
262 24-04-2009 04:20:33 6.4 C 5.96 g/m*3 6.4 C 0 km/h
263 24-04-2009 04:32:33 6.7 C 6.23 g/m*3 6.7 C 0 km/h
264 24-04-2009 04:44:33 6.9 C 6.24 g/m*3 6.9 C 0 km/h
265 24-04-2009 04:56:33 7 C 6.2 g/m*3 7 C 0 km/h
266 24-04-2009 05:08:33 6.9 C 6.24 g/m*3 6.9 C 0 km/h
267 24-04-2009 05:20:33 7 C 6.12 g/m*3 7 C 0 km/h
268 24-04-2009 05:32:33 7 C 6.12 g/m*3 7 C 0 km/h
269 24-04-2009 05:44:33 7.2 C 6.12 g/m*3 7.2 C 0 km/h
270 24-04-2009 05:56:33 7.1 C 6.01 g/m*3 7.1 C 0 km/h
271 24-04-2009 06:08:33 7 C 5.97 g/m*3 7 C 0 km/h
272 24-04-2009 06:20:33 7 C 5.97 g/m*3 7 C 0 km/h
273 24-04-2009 06:32:31 6.8 C 6.04 g/m*3 6.8 C 0 km/h
274 24-04-2009 06:44:31 6.9 C 6.08 g/m*3 6.9 C 0 km/h
275 24-04-2009 06:56:31 6.9 C 6 g/m*3 6.9 C 0 km/h
Sensor: Nr:Datum:Temp:Abs-Feuchte:Windchill:Wind:
Aussen-T/F 276 24-04-2009 07:08:31 6.9 C 6 g/m*3 6.9 C 0 km/h
277 24-04-2009 07:20:30 6.9 C 6 g/m*3 6.9 C 0 km/h
278 24-04-2009 07:32:31 7 C 6.04 g/m*3 7 C 0 km/h
279 24-04-2009 07:44:30 7.1 C 6.08 g/m*3 7.1 C 0 km/h
280 24-04-2009 07:56:30 7.3 C 6.16 g/m*3 7.3 C 0 km/h
281 24-04-2009 08:08:30 7.4 C 6.2 g/m*3 7.4 C 0 km/h
282 24-04-2009 08:20:30 7.6 C 6.2 g/m*3 7.6 C 0 km/h
283 24-04-2009 08:32:30 7.9 C 6.32 g/m*3 7.9 C 0 km/h
284 24-04-2009 08:44:29 8.1 C 6.16 g/m*3 8.1 C 0 km/h
285 24-04-2009 08:56:29 8.3 C 6.15 g/m*3 8.3 C 0 km/h
286 24-04-2009 09:08:29 8.7 C 6.23 g/m*3 8.7 C 0 km/h
287 24-04-2009 09:20:30 9.1 C 6.03 g/m*3 9.1 C 0 km/h
288 24-04-2009 09:32:29 9.5 C 6.01 g/m*3 9.5 C 0 km/h
289 24-04-2009 09:44:29 9.9 C 5.98 g/m*3 9.9 C 0 km/h
290 24-04-2009 09:56:29 10.4 C 5.98 g/m*3 10.4 C 0 km/h
291 24-04-2009 10:08:29 10.8 C 5.83 g/m*3 10.8 C 0 km/h
292 24-04-2009 10:20:29 11.3 C 5.81 g/m*3 11.3 C 0 km/h
293 24-04-2009 10:32:29 11.8 C 5.79 g/m*3 11.8 C 0 km/h
294 24-04-2009 10:44:29 12.4 C 5.68 g/m*3 12.4 C 0 km/h
295 24-04-2009 10:56:29 13 C 5.44 g/m*3 13 C 0 km/h
296 24-04-2009 11:08:29 13.3 C 5.31 g/m*3 13.3 C 0 km/h
297 24-04-2009 11:20:28 13.8 C 5.36 g/m*3 13.8 C 0 km/h
298 24-04-2009 11:32:28 14.3 C 5.41 g/m*3 14.3 C 0 km/h
299 24-04-2009 11:44:28 14.8 C 5.32 g/m*3 14.8 C 0 km/h
300 24-04-2009 11:56:28 15.3 C 5.09 g/m*3 15.3 C 0 km/h
Sensor: Nr:Datum:Temp:Abs-Feuchte:Windchill:Wind:
Aussen-T/F 301 24-04-2009 12:08:28 15.5 C 5.02 g/m*3 15.5 C 0 km/h
302 24-04-2009 12:20:27 15.6 C 4.79 g/m*3 15.6 C 0 km/h
303 24-04-2009 12:32:28 16.2 C 4.83 g/m*3 16.2 C 0 km/h
304 24-04-2009 12:44:27 16.8 C 4.72 g/m*3 16.8 C 0 km/h
305 24-04-2009 12:56:27 17.4 C 4.45 g/m*3 17.4 C 0 km/h
306 24-04-2009 13:08:27 18.3 C 3.91 g/m*3 18.3 C 0 km/h
307 24-04-2009 13:20:28 19.2 C 3.3 g/m*3 19.2 C 0 km/h
308 24-04-2009 13:32:27 19.6 C 3.38 g/m*3 19.6 C 0 km/h
309 24-04-2009 13:44:27 19.6 C 3.38 g/m*3 19.6 C 0 km/h
310 24-04-2009 13:56:27 19.5 C 3.36 g/m*3 19.5 C 0 km/h
311 24-04-2009 14:08:27 19.9 C 3.44 g/m*3 19.9 C 0 km/h
312 24-04-2009 14:20:27 20.6 C 3.58 g/m*3 20.6 C 0 km/h
313 24-04-2009 14:32:26 21 C 3.66 g/m*3 21 C 0 km/h
314 24-04-2009 14:44:26 20.8 C 3.62 g/m*3 20.8 C 0 km/h
315 24-04-2009 14:56:26 21 C 3.66 g/m*3 21 C 0 km/h
316 24-04-2009 15:08:26 21.8 C 3.84 g/m*3 21.8 C 0 km/h
317 24-04-2009 15:20:26 22.3 C 3.95 g/m*3 22.3 C 0 km/h
318 24-04-2009 15:32:26 22.8 C 4.06 g/m*3 22.8 C 0 km/h
319 24-04-2009 15:44:26 22.9 C 4.09 g/m*3 22.9 C 0 km/h
320 24-04-2009 15:56:26 23.7 C 4.28 g/m*3 23.7 C 0 km/h
321 24-04-2009 16:08:26 23.1 C 4.13 g/m*3 23.1 C 0 km/h
322 24-04-2009 16:20:25 24.2 C 4.4 g/m*3 24.2 C 0 km/h
323 24-04-2009 16:32:25 24 C 4.35 g/m*3 24 C 0 km/h
324 24-04-2009 16:44:25 24.4 C 4.45 g/m*3 24.4 C 0 km/h
325 24-04-2009 16:56:25 23.6 C 4.25 g/m*3 23.6 C 0 km/h
Sensor: Nr:Datum:Temp:Abs-Feuchte:Windchill:Wind:
Aussen-T/F 326 24-04-2009 17:08:25 23.6 C 4.25 g/m*3 23.6 C 0 km/h
327 24-04-2009 17:20:24 24.1 C 4.38 g/m*3 24.1 C 0 km/h
328 24-04-2009 17:32:25 24.2 C 4.4 g/m*3 24.2 C 0 km/h
329 24-04-2009 17:44:24 24.4 C 4.45 g/m*3 24.4 C 0 km/h
330 24-04-2009 17:56:24 24.5 C 4.48 g/m*3 24.5 C 0 km/h
331 24-04-2009 18:08:24 24.8 C 4.55 g/m*3 24.8 C 0 km/h
332 24-04-2009 18:20:25 24.2 C 4.4 g/m*3 24.2 C 0 km/h
333 24-04-2009 18:32:24 24.2 C 4.4 g/m*3 24.2 C 0 km/h
334 24-04-2009 18:44:24 24.5 C 4.48 g/m*3 24.5 C 0 km/h
335 24-04-2009 18:56:24 24.4 C 4.45 g/m*3 24.4 C 0 km/h
336 24-04-2009 19:08:24 24.1 C 4.38 g/m*3 24.1 C 0 km/h
337 24-04-2009 19:20:24 24.1 C 4.38 g/m*3 24.1 C 0 km/h
338 24-04-2009 19:32:23 22.9 C 4.09 g/m*3 22.9 C 0 km/h
339 24-04-2009 19:44:24 22.7 C 4.04 g/m*3 22.7 C 0 km/h
340 24-04-2009 19:56:24 22.2 C 4.32 g/m*3 22.2 C 0 km/h
341 24-04-2009 20:08:23 20.9 C 4.55 g/m*3 20.9 C 0 km/h
342 24-04-2009 20:20:23 19.6 C 4.9 g/m*3 19.6 C 0 km/h
343 24-04-2009 20:32:23 18.4 C 4.88 g/m*3 18.4 C 0 km/h
344 24-04-2009 20:44:23 17.3 C 4.86 g/m*3 17.3 C 0 km/h
345 24-04-2009 20:56:23 16.6 C 4.94 g/m*3 16.6 C 0 km/h
346 24-04-2009 21:08:23 15.9 C 5.01 g/m*3 15.9 C 0 km/h
347 24-04-2009 21:20:23 15.4 C 4.99 g/m*3 15.4 C 0 km/h
348 24-04-2009 21:32:22 15.1 C 5.16 g/m*3 15.1 C 0 km/h
349 24-04-2009 21:44:22 15 C 5.13 g/m*3 15 C 0 km/h
350 24-04-2009 21:56:22 14.8 C 5.19 g/m*3 14.8 C 0 km/h
Sensor: Nr:Datum:Temp:Abs-Feuchte:Windchill:Wind:
Aussen-T/F 351 24-04-2009 22:09:22 14.5 C 5.22 g/m*3 14.5 C 0 km/h
352 24-04-2009 22:21:22 14.2 C 5.25 g/m*3 14.2 C 0 km/h
353 24-04-2009 22:33:22 14.1 C 5.46 g/m*3 14.1 C 0 km/h
354 24-04-2009 22:45:23 14 C 5.31 g/m*3 14 C 0 km/h
355 24-04-2009 22:57:23 13.7 C 5.33 g/m*3 13.7 C 0 km/h
356 24-04-2009 23:09:23 13.3 C 5.43 g/m*3 13.3 C 0 km/h
357 24-04-2009 23:21:23 13.1 C 5.48 g/m*3 13.1 C 0 km/h
358 24-04-2009 23:33:23 13.1 C 5.71 g/m*3 13.1 C 0 km/h
359 24-04-2009 23:45:23 12.8 C 5.82 g/m*3 12.8 C 0 km/h
360 24-04-2009 23:57:23 12.4 C 5.79 g/m*3 12.4 C 0 km/h
361 25-04-2009 00:09:23 12.2 C 5.83 g/m*3 12.2 C 0 km/h
362 25-04-2009 00:21:23 11.9 C 6.04 g/m*3 11.9 C 0 km/h
363 25-04-2009 00:33:23 11.4 C 6.06 g/m*3 11.4 C 0 km/h
364 25-04-2009 00:45:23 11.3 C 6.12 g/m*3 11.3 C 0 km/h
365 25-04-2009 00:57:23 11 C 6.01 g/m*3 11 C 0 km/h
366 25-04-2009 01:09:23 10.9 C 6.07 g/m*3 10.9 C 0 km/h
367 25-04-2009 01:21:23 10.7 C 6.09 g/m*3 10.7 C 0 km/h
368 25-04-2009 01:33:23 10.4 C 6.07 g/m*3 10.4 C 0 km/h
369 25-04-2009 01:45:23 10.3 C 6.03 g/m*3 10.3 C 0 km/h
370 25-04-2009 01:57:23 10.1 C 6.05 g/m*3 10.1 C 0 km/h
371 25-04-2009 02:09:23 9.8 C 6.12 g/m*3 9.8 C 0 km/h
372 25-04-2009 02:21:23 9.6 C 6.05 g/m*3 9.6 C 0 km/h
373 25-04-2009 02:33:23 9.4 C 6.15 g/m*3 9.4 C 0 km/h
374 25-04-2009 02:45:24 9.1 C 6.12 g/m*3 9.1 C 0 km/h
375 25-04-2009 02:57:24 8.9 C 6.22 g/m*3 8.9 C 0 km/h
Sensor: Nr:Datum:Temp:Abs-Feuchte:Windchill:Wind:
Aussen-T/F 376 25-04-2009 03:09:24 8.7 C 6.14 g/m*3 8.7 C 0 km/h
377 25-04-2009 03:21:24 8.6 C 6.1 g/m*3 8.6 C 0 km/h
378 25-04-2009 03:33:24 8.4 C 6.11 g/m*3 8.4 C 0 km/h
379 25-04-2009 03:45:24 8.4 C 6.11 g/m*3 8.4 C 0 km/h
380 25-04-2009 03:57:24 8.1 C 6.07 g/m*3 8.1 C 0 km/h
381 25-04-2009 04:09:24 8.2 C 6.2 g/m*3 8.2 C 0 km/h
382 25-04-2009 04:21:24 8.1 C 6.57 g/m*3 8.1 C 0 km/h
383 25-04-2009 04:33:24 7.8 C 6.86 g/m*3 7.8 C 0 km/h
384 25-04-2009 04:45:24 7.3 C 6.79 g/m*3 7.3 C 0 km/h
385 25-04-2009 04:57:24 7.4 C 6.92 g/m*3 7.4 C 0 km/h
386 25-04-2009 05:09:24 7.3 C 6.87 g/m*3 7.3 C 0 km/h
387 25-04-2009 05:21:24 7.4 C 7 g/m*3 7.4 C 0 km/h
388 25-04-2009 05:33:24 7.2 C 6.91 g/m*3 7.2 C 0 km/h
389 25-04-2009 05:45:24 6.9 C 6.77 g/m*3 6.9 C 0 km/h
390 25-04-2009 05:57:24 6.9 C 6.77 g/m*3 6.9 C 0 km/h
391 25-04-2009 06:09:24 6.6 C 6.64 g/m*3 6.6 C 0 km/h
392 25-04-2009 06:21:24 6.5 C 6.6 g/m*3 6.5 C 0 km/h
393 25-04-2009 06:33:24 6.4 C 6.56 g/m*3 6.4 C 0 km/h
394 25-04-2009 06:45:24 6.4 C 6.56 g/m*3 6.4 C 0 km/h
395 25-04-2009 06:57:25 6.3 C 6.51 g/m*3 6.3 C 0 km/h
396 25-04-2009 07:09:25 6.3 C 6.51 g/m*3 6.3 C 0 km/h
397 25-04-2009 07:21:22 6.4 C 6.63 g/m*3 6.4 C 0 km/h
398 25-04-2009 07:33:22 6.5 C 6.67 g/m*3 6.5 C 0 km/h
399 25-04-2009 07:45:21 6.7 C 6.76 g/m*3 6.7 C 0 km/h
400 25-04-2009 07:57:21 7 C 6.82 g/m*3 7 C 0 km/h
Sensor: Nr:Datum:Temp:Abs-Feuchte:Windchill:Wind:
Aussen-T/F 401 25-04-2009 08:09:22 7.1 C 6.94 g/m*3 7.1 C 0 km/h
402 25-04-2009 08:21:21 7.5 C 7.12 g/m*3 7.5 C 0 km/h
403 25-04-2009 08:33:21 7.7 C 7.22 g/m*3 7.7 C 0 km/h
404 25-04-2009 08:45:21 8 C 7.28 g/m*3 8 C 0 km/h
405 25-04-2009 08:57:21 8.5 C 7.51 g/m*3 8.5 C 0 km/h
406 25-04-2009 09:09:20 8.9 C 7.62 g/m*3 8.9 C 0 km/h
407 25-04-2009 09:21:21 9.6 C 7.88 g/m*3 9.6 C 0 km/h
408 25-04-2009 09:33:20 10.4 C 8.1 g/m*3 10.4 C 0 km/h
409 25-04-2009 09:45:20 11.3 C 8.16 g/m*3 11.3 C 0 km/h
410 25-04-2009 09:57:20 12.1 C 8.26 g/m*3 12.1 C 0 km/h
411 25-04-2009 10:09:20 13 C 7.94 g/m*3 13 C 0 km/h
412 25-04-2009 10:21:20 14.1 C 6.67 g/m*3 14.1 C 0 km/h
413 25-04-2009 10:33:20 15.3 C 6.01 g/m*3 15.3 C 0 km/h
414 25-04-2009 10:45:20 15.8 C 6.06 g/m*3 15.8 C 0 km/h
415 25-04-2009 10:57:20 16.3 C 5.97 g/m*3 16.3 C 0 km/h
416 25-04-2009 11:09:20 16.9 C 6.04 g/m*3 16.9 C 0 km/h
417 25-04-2009 11:21:19 16.6 C 6.07 g/m*3 16.6 C 0 km/h
418 25-04-2009 11:33:19 16.6 C 6.22 g/m*3 16.6 C 0 km/h
419 25-04-2009 11:45:19 16.3 C 6.24 g/m*3 16.3 C 0 km/h
420 25-04-2009 11:57:19 17.3 C 6.33 g/m*3 17.3 C 0 km/h
421 25-04-2009 12:09:19 17.8 C 6.37 g/m*3 17.8 C 0 km/h
422 25-04-2009 12:21:18 17.6 C 6.45 g/m*3 17.6 C 0 km/h
423 25-04-2009 12:33:19 18.1 C 6.49 g/m*3 18.1 C 0 km/h
424 25-04-2009 12:45:19 18.3 C 6.41 g/m*3 18.3 C 0 km/h
425 25-04-2009 12:57:19 18.5 C 6.49 g/m*3 18.5 C 0 km/h
Sensor: Nr:Datum:Temp:Abs-Feuchte:Windchill:Wind:
Aussen-T/F 426 25-04-2009 13:09:18 18.8 C 6.44 g/m*3 18.8 C 0 km/h
427 25-04-2009 13:21:19 18.9 C 6.32 g/m*3 18.9 C 0 km/h
428 25-04-2009 13:33:18 19.5 C 6.38 g/m*3 19.5 C 0 km/h
429 25-04-2009 13:45:18 19.6 C 6.42 g/m*3 19.6 C 0 km/h
430 25-04-2009 13:57:18 19.9 C 6.53 g/m*3 19.9 C 0 km/h
431 25-04-2009 14:09:18 20.3 C 6.51 g/m*3 20.3 C 0 km/h
432 25-04-2009 14:21:18 20.3 C 6.51 g/m*3 20.3 C 0 km/h
433 25-04-2009 14:33:17 20.9 C 6.74 g/m*3 20.9 C 0 km/h
434 25-04-2009 14:45:17 20.7 C 6.48 g/m*3 20.7 C 0 km/h
435 25-04-2009 14:57:17 19.9 C 6.36 g/m*3 19.9 C 0 km/h
436 25-04-2009 15:09:17 19.5 C 6.55 g/m*3 19.5 C 0 km/h
437 25-04-2009 15:21:17 19.9 C 6.53 g/m*3 19.9 C 0 km/h
438 25-04-2009 15:33:17 20.8 C 6.34 g/m*3 20.8 C 0 km/h
439 25-04-2009 15:45:17 21.7 C 6.29 g/m*3 21.7 C 0 km/h
440 25-04-2009 15:57:17 21.8 C 6.14 g/m*3 21.8 C 0 km/h
441 25-04-2009 16:09:17 21.5 C 6.03 g/m*3 21.5 C 0 km/h
442 25-04-2009 16:21:16 21.6 C 6.07 g/m*3 21.6 C 0 km/h
443 25-04-2009 16:33:16 22 C 6.02 g/m*3 22 C 0 km/h
444 25-04-2009 16:45:16 21 C 6.23 g/m*3 21 C 0 km/h
445 25-04-2009 16:57:16 20.9 C 6.37 g/m*3 20.9 C 0 km/h
446 25-04-2009 17:09:16 20.9 C 6.56 g/m*3 20.9 C 0 km/h
447 25-04-2009 17:21:15 20.6 C 6.44 g/m*3 20.6 C 0 km/h
448 25-04-2009 17:33:16 21.4 C 6.37 g/m*3 21.4 C 0 km/h
449 25-04-2009 17:45:16 22.1 C 6.05 g/m*3 22.1 C 0 km/h
450 25-04-2009 17:57:16 22.7 C 6.26 g/m*3 22.7 C 0 km/h
Sensor: Nr:Datum:Temp:Abs-Feuchte:Windchill:Wind:
Aussen-T/F 451 25-04-2009 18:09:15 22.4 C 6.16 g/m*3 22.4 C 0 km/h
452 25-04-2009 18:21:16 22.7 C 6.26 g/m*3 22.7 C 0 km/h
453 25-04-2009 18:33:15 22.4 C 6.16 g/m*3 22.4 C 0 km/h
454 25-04-2009 18:45:15 22.9 C 6.34 g/m*3 22.9 C 0 km/h
455 25-04-2009 18:57:15 22.6 C 6.03 g/m*3 22.6 C 0 km/h
456 25-04-2009 19:09:15 23.2 C 6.24 g/m*3 23.2 C 0 km/h
457 25-04-2009 19:21:15 23.7 C 6.42 g/m*3 23.7 C 0 km/h
458 25-04-2009 19:33:15 23.2 C 6.24 g/m*3 23.2 C 0 km/h
459 25-04-2009 19:45:15 22.2 C 6.87 g/m*3 22.2 C 0 km/h
460 25-04-2009 19:57:15 21.2 C 7.04 g/m*3 21.2 C 0 km/h
461 25-04-2009 20:09:14 20.2 C 7.17 g/m*3 20.2 C 0 km/h
462 25-04-2009 20:21:14 19.3 C 7.3 g/m*3 19.3 C 0 km/h
463 25-04-2009 20:33:14 18.6 C 7.48 g/m*3 18.6 C 0 km/h
464 25-04-2009 20:45:14 18.2 C 7.46 g/m*3 18.2 C 0 km/h
465 25-04-2009 20:57:14 17.6 C 7.35 g/m*3 17.6 C 0 km/h
466 25-04-2009 21:09:14 17.2 C 7.32 g/m*3 17.2 C 0 km/h
467 25-04-2009 21:21:14 17 C 7.52 g/m*3 17 C 0 km/h
468 25-04-2009 21:33:13 17 C 7.52 g/m*3 17 C 0 km/h
469 25-04-2009 21:45:14 17 C 7.52 g/m*3 17 C 0 km/h
470 25-04-2009 21:57:14 17 C 7.52 g/m*3 17 C 0 km/h
471 25-04-2009 22:10:14 16.5 C 7.58 g/m*3 16.5 C 0 km/h
472 25-04-2009 22:22:14 16.4 C 7.54 g/m*3 16.4 C 0 km/h
473 25-04-2009 22:34:14 16.1 C 7.54 g/m*3 16.1 C 0 km/h
474 25-04-2009 22:46:14 16.1 C 7.54 g/m*3 16.1 C 0 km/h
475 25-04-2009 22:58:14 16 C 7.63 g/m*3 16 C 0 km/h
Sensor: Nr:Datum:Temp:Abs-Feuchte:Windchill:Wind:
Aussen-T/F 476 25-04-2009 23:10:14 15.6 C 7.98 g/m*3 15.6 C 0 km/h
477 25-04-2009 23:22:14 15.1 C 7.87 g/m*3 15.1 C 0 km/h
478 25-04-2009 23:34:14 14.9 C 7.9 g/m*3 14.9 C 0 km/h
479 25-04-2009 23:46:15 15 C 7.82 g/m*3 15 C 0 km/h
480 25-04-2009 23:58:15 14.9 C 8.03 g/m*3 14.9 C 0 km/h
481 26-04-2009 00:10:15 14.8 C 7.98 g/m*3 14.8 C 0 km/h
482 26-04-2009 00:22:15 14.9 C 8.16 g/m*3 14.9 C 0 km/h
483 26-04-2009 00:34:15 14.8 C 8.11 g/m*3 14.8 C 0 km/h
484 26-04-2009 00:46:15 14.8 C 8.23 g/m*3 14.8 C 0 km/h
485 26-04-2009 00:58:15 14.7 C 8.18 g/m*3 14.7 C 0 km/h
486 26-04-2009 01:10:15 14.2 C 8.06 g/m*3 14.2 C 0 km/h
487 26-04-2009 01:22:15 14 C 8.08 g/m*3 14 C 0 km/h
488 26-04-2009 01:34:15 14 C 8.2 g/m*3 14 C 0 km/h
489 26-04-2009 01:46:15 14.1 C 8.25 g/m*3 14.1 C 0 km/h
490 26-04-2009 01:58:15 14 C 8.08 g/m*3 14 C 0 km/h
491 26-04-2009 02:10:15 14.1 C 8.25 g/m*3 14.1 C 0 km/h
492 26-04-2009 02:22:15 14 C 8.2 g/m*3 14 C 0 km/h
493 26-04-2009 02:34:15 14 C 8.2 g/m*3 14 C 0 km/h
494 26-04-2009 02:46:15 14 C 8.08 g/m*3 14 C 0 km/h
495 26-04-2009 02:58:15 13.9 C 8.15 g/m*3 13.9 C 0 km/h
496 26-04-2009 03:10:15 13.8 C 8.22 g/m*3 13.8 C 0 km/h
497 26-04-2009 03:22:15 13.7 C 8.17 g/m*3 13.7 C 0 km/h
498 26-04-2009 03:34:15 13.6 C 8.12 g/m*3 13.6 C 0 km/h
499 26-04-2009 03:46:16 13.5 C 8.07 g/m*3 13.5 C 0 km/h
500 26-04-2009 03:58:16 13.4 C 8.14 g/m*3 13.4 C 0 km/h
Sensor: Nr:Datum:Temp:Abs-Feuchte:Windchill:Wind:
Aussen-T/F 501 26-04-2009 04:10:16 13.4 C 8.25 g/m*3 13.4 C 0 km/h
502 26-04-2009 04:22:16 13.3 C 8.2 g/m*3 13.3 C 0 km/h
503 26-04-2009 04:34:16 13.2 C 8.15 g/m*3 13.2 C 0 km/h
504 26-04-2009 04:46:16 13 C 8.05 g/m*3 13 C 0 km/h
505 26-04-2009 04:58:16 13.1 C 8.22 g/m*3 13.1 C 0 km/h
506 26-04-2009 05:10:16 13 C 8.17 g/m*3 13 C 0 km/h
507 26-04-2009 05:22:16 12.9 C 8.23 g/m*3 12.9 C 0 km/h
508 26-04-2009 05:34:16 12.8 C 8.29 g/m*3 12.8 C 0 km/h
509 26-04-2009 05:46:16 12.8 C 8.18 g/m*3 12.8 C 0 km/h
510 26-04-2009 05:58:16 12.6 C 8.19 g/m*3 12.6 C 0 km/h
511 26-04-2009 06:10:16 12.4 C 8.09 g/m*3 12.4 C 0 km/h
512 26-04-2009 06:22:16 12.2 C 8.2 g/m*3 12.2 C 0 km/h
513 26-04-2009 06:34:16 12 C 8.1 g/m*3 12 C 0 km/h
514 26-04-2009 06:46:15 11.9 C 8.26 g/m*3 11.9 C 0 km/h
515 26-04-2009 06:58:15 11.7 C 8.37 g/m*3 11.7 C 0 km/h
516 26-04-2009 07:10:14 11.8 C 8.42 g/m*3 11.8 C 0 km/h
517 26-04-2009 07:22:14 11.8 C 8.42 g/m*3 11.8 C 0 km/h
518 26-04-2009 07:34:14 11.8 C 8.42 g/m*3 11.8 C 0 km/h
519 26-04-2009 07:46:14 12.2 C 8.63 g/m*3 12.2 C 0 km/h
520 26-04-2009 07:58:14 12.3 C 8.58 g/m*3 12.3 C 0 km/h
521 26-04-2009 08:10:13 12.6 C 8.63 g/m*3 12.6 C 0 km/h
522 26-04-2009 08:22:14 12.9 C 8.68 g/m*3 12.9 C 0 km/h
523 26-04-2009 08:34:13 13.3 C 8.78 g/m*3 13.3 C 0 km/h
524 26-04-2009 08:46:14 13.6 C 8.71 g/m*3 13.6 C 0 km/h
525 26-04-2009 08:58:14 14.2 C 8.55 g/m*3 14.2 C 0 km/h
Sensor: Nr:Datum:Temp:Abs-Feuchte:Windchill:Wind:
Aussen-T/F 526 26-04-2009 09:10:13 14.9 C 8.54 g/m*3 14.9 C 0 km/h
527 26-04-2009 09:22:13 15.1 C 8.39 g/m*3 15.1 C 0 km/h
528 26-04-2009 09:34:13 15.9 C 8.53 g/m*3 15.9 C 0 km/h
529 26-04-2009 09:46:13 16.4 C 8.23 g/m*3 16.4 C 0 km/h
530 26-04-2009 09:58:13 16.8 C 8.29 g/m*3 16.8 C 0 km/h
531 26-04-2009 10:10:12 17.2 C 8.05 g/m*3 17.2 C 0 km/h
532 26-04-2009 10:22:13 17.2 C 8.05 g/m*3 17.2 C 0 km/h
533 26-04-2009 10:34:13 17.5 C 8.2 g/m*3 17.5 C 0 km/h
534 26-04-2009 10:46:12 17.1 C 8.01 g/m*3 17.1 C 0 km/h
535 26-04-2009 10:58:12 17.7 C 8.3 g/m*3 17.7 C 0 km/h
536 26-04-2009 11:10:12 17.8 C 8.2 g/m*3 17.8 C 0 km/h
537 26-04-2009 11:22:12 18.4 C 8.18 g/m*3 18.4 C 0 km/h
538 26-04-2009 11:34:12 19.1 C 7.54 g/m*3 19.1 C 0 km/h
539 26-04-2009 11:46:11 20.1 C 7.47 g/m*3 20.1 C 0 km/h
540 26-04-2009 11:58:11 20.4 C 7.08 g/m*3 20.4 C 0 km/h
541 26-04-2009 12:10:12 20.5 C 6.94 g/m*3 20.5 C 0 km/h
542 26-04-2009 12:22:11 21.1 C 6.82 g/m*3 21.1 C 0 km/h
543 26-04-2009 12:34:11 21.8 C 6.72 g/m*3 21.8 C 0 km/h
544 26-04-2009 12:46:11 22.3 C 6.52 g/m*3 22.3 C 0 km/h
545 26-04-2009 12:58:11 22 C 6.21 g/m*3 22 C 0 km/h
546 26-04-2009 13:10:11 22.6 C 6.63 g/m*3 22.6 C 0 km/h
547 26-04-2009 13:22:11 23.5 C 6.34 g/m*3 23.5 C 0 km/h
548 26-04-2009 13:34:10 24.3 C 6.2 g/m*3 24.3 C 0 km/h
549 26-04-2009 13:46:11 24.1 C 5.91 g/m*3 24.1 C 0 km/h
550 26-04-2009 13:58:11 24.3 C 6.2 g/m*3 24.3 C 0 km/h
Sensor: Nr:Datum:Temp:Abs-Feuchte:Windchill:Wind:
Aussen-T/F 551 26-04-2009 14:10:10 22.8 C 5.49 g/m*3 22.8 C 0 km/h
552 26-04-2009 14:22:10 23.9 C 5.62 g/m*3 23.9 C 0 km/h
553 26-04-2009 14:34:10 24.6 C 5.85 g/m*3 24.6 C 0 km/h
554 26-04-2009 14:46:10 25.4 C 5.89 g/m*3 25.4 C 0 km/h
555 26-04-2009 14:58:11 25.5 C 5.68 g/m*3 25.5 C 0 km/h
556 26-04-2009 15:10:09 25.1 C 5.56 g/m*3 25.1 C 0 km/h
557 26-04-2009 15:22:10 25.2 C 5.82 g/m*3 25.2 C 0 km/h
558 26-04-2009 15:34:10 25.7 C 5.51 g/m*3 25.7 C 0 km/h
559 26-04-2009 15:46:09 24.7 C 5.66 g/m*3 24.7 C 0 km/h
560 26-04-2009 15:58:09 24 C 5.66 g/m*3 24 C 0 km/h
561 26-04-2009 16:10:10 23.5 C 5.71 g/m*3 23.5 C 0 km/h
562 26-04-2009 16:22:09 26 C 5.6 g/m*3 26 C 0 km/h
563 26-04-2009 16:34:09 27.5 C 5.29 g/m*3 27.5 C 0 km/h
564 26-04-2009 16:46:08 26.5 C 5.01 g/m*3 26.5 C 0 km/h
565 26-04-2009 16:58:08 27.7 C 5.35 g/m*3 27.7 C 0 km/h
566 26-04-2009 17:10:09 26.8 C 5.09 g/m*3 26.8 C 0 km/h
567 26-04-2009 17:22:08 28 C 5.44 g/m*3 28 C 0 km/h
568 26-04-2009 17:34:08 28.2 C 5.5 g/m*3 28.2 C 0 km/h
569 26-04-2009 17:46:08 29.5 C 5.9 g/m*3 29.5 C 0 km/h
570 26-04-2009 17:58:08 28.5 C 5.59 g/m*3 28.5 C 0 km/h
571 26-04-2009 18:10:08 26.7 C 5.06 g/m*3 26.7 C 0 km/h
572 26-04-2009 18:22:08 27.1 C 5.18 g/m*3 27.1 C 0 km/h
573 26-04-2009 18:34:07 26.4 C 4.98 g/m*3 26.4 C 0 km/h
574 26-04-2009 18:46:08 25.1 C 5.79 g/m*3 25.1 C 0 km/h
575 26-04-2009 18:58:08 24.1 C 5.69 g/m*3 24.1 C 0 km/h
Sensor: Nr:Datum:Temp:Abs-Feuchte:Windchill:Wind:
Aussen-T/F 576 26-04-2009 19:10:07 23.6 C 6.17 g/m*3 23.6 C 0 km/h
577 26-04-2009 19:22:07 22.7 C 6.26 g/m*3 22.7 C 0 km/h
578 26-04-2009 19:34:07 22.2 C 6.28 g/m*3 22.2 C 0 km/h
579 26-04-2009 19:46:07 21.8 C 6.52 g/m*3 21.8 C 0 km/h
580 26-04-2009 19:58:07 21.3 C 6.52 g/m*3 21.3 C 0 km/h
581 26-04-2009 20:10:06 21.1 C 6.63 g/m*3 21.1 C 0 km/h
582 26-04-2009 20:22:07 20.7 C 6.84 g/m*3 20.7 C 0 km/h
583 26-04-2009 20:34:07 20.2 C 6.82 g/m*3 20.2 C 0 km/h
584 26-04-2009 20:46:06 20.1 C 7.13 g/m*3 20.1 C 0 km/h
585 26-04-2009 20:58:06 19.6 C 7.09 g/m*3 19.6 C 0 km/h
586 26-04-2009 21:10:06 19.5 C 7.05 g/m*3 19.5 C 0 km/h
587 26-04-2009 21:22:06 19.3 C 7.13 g/m*3 19.3 C 0 km/h
588 26-04-2009 21:34:06 19.2 C 7.42 g/m*3 19.2 C 0 km/h
589 26-04-2009 21:46:06 18.8 C 7.73 g/m*3 18.8 C 0 km/h
590 26-04-2009 21:58:07 17.7 C 8.6 g/m*3 17.7 C 0 km/h
591 26-04-2009 22:10:05 16.6 C 9.46 g/m*3 16.6 C 0 km/h
592 26-04-2009 22:22:06 16.3 C 10.13 g/m*3 16.3 C 0 km/h
593 26-04-2009 22:34:06 15.9 C 9.62 g/m*3 15.9 C 0 km/h
594 26-04-2009 22:47:05 15.6 C 9.97 g/m*3 15.6 C 0 km/h
595 26-04-2009 22:59:05 15.4 C 10.25 g/m*3 15.4 C 0 km/h
596 26-04-2009 23:11:05 15.4 C 10.25 g/m*3 15.4 C 0 km/h
597 26-04-2009 23:23:05 15.6 C 10.24 g/m*3 15.6 C 0 km/h
598 26-04-2009 23:35:05 15.8 C 9.83 g/m*3 15.8 C 0 km/h
599 26-04-2009 23:47:06 16 C 9.67 g/m*3 16 C 0 km/h
600 26-04-2009 23:59:06 15.9 C 9.75 g/m*3 15.9 C 0 km/h
Sensor: Nr:Datum:Temp:Abs-Feuchte:Windchill:Wind:
Aussen-T/F 601 27-04-2009 00:11:06 16 C 9.67 g/m*3 16 C 0 km/h
602 27-04-2009 00:23:06 15.8 C 9.69 g/m*3 15.8 C 0 km/h
603 27-04-2009 00:35:06 15.7 C 9.63 g/m*3 15.7 C 0 km/h
604 27-04-2009 00:47:06 15.7 C 9.63 g/m*3 15.7 C 0 km/h
605 27-04-2009 00:59:06 15.7 C 9.63 g/m*3 15.7 C 0 km/h
606 27-04-2009 01:11:06 15.5 C 9.52 g/m*3 15.5 C 0 km/h
607 27-04-2009 01:23:06 15.3 C 9.53 g/m*3 15.3 C 0 km/h
608 27-04-2009 01:35:06 15 C 9.36 g/m*3 15 C 0 km/h
609 27-04-2009 01:47:06 14.9 C 9.43 g/m*3 14.9 C 0 km/h
610 27-04-2009 01:59:06 14.7 C 9.32 g/m*3 14.7 C 0 km/h
611 27-04-2009 02:11:06 14.5 C 9.08 g/m*3 14.5 C 0 km/h
612 27-04-2009 02:23:06 14.2 C 9.04 g/m*3 14.2 C 0 km/h
613 27-04-2009 02:35:06 14 C 8.93 g/m*3 14 C 0 km/h
614 27-04-2009 02:47:06 14.1 C 8.86 g/m*3 14.1 C 0 km/h
615 27-04-2009 02:59:06 14.1 C 8.74 g/m*3 14.1 C 0 km/h
616 27-04-2009 03:11:06 14.1 C 8.62 g/m*3 14.1 C 0 km/h
617 27-04-2009 03:23:06 14.1 C 8.5 g/m*3 14.1 C 0 km/h
618 27-04-2009 03:35:06 14.1 C 8.5 g/m*3 14.1 C 0 km/h
619 27-04-2009 03:47:07 14 C 8.32 g/m*3 14 C 0 km/h
620 27-04-2009 03:59:07 13.8 C 8.34 g/m*3 13.8 C 0 km/h
621 27-04-2009 04:11:07 14 C 8.32 g/m*3 14 C 0 km/h
622 27-04-2009 04:23:07 12.8 C 8.62 g/m*3 12.8 C 0 km/h
623 27-04-2009 04:35:07 12.6 C 9.18 g/m*3 12.6 C 0 km/h
624 27-04-2009 04:47:07 12.1 C 9.01 g/m*3 12.1 C 0 km/h
625 27-04-2009 04:59:07 11.5 C 8.99 g/m*3 11.5 C 0 km/h
Sensor: Nr:Datum:Temp:Abs-Feuchte:Windchill:Wind:
Aussen-T/F 626 27-04-2009 05:11:07 11.5 C 8.99 g/m*3 11.5 C 0 km/h
627 27-04-2009 05:23:07 11.8 C 9.26 g/m*3 11.8 C 0 km/h
628 27-04-2009 05:35:07 11.9 C 9.32 g/m*3 11.9 C 0 km/h
629 27-04-2009 05:47:07 11.8 C 9.16 g/m*3 11.8 C 0 km/h
630 27-04-2009 05:59:07 11.5 C 8.88 g/m*3 11.5 C 0 km/h
631 27-04-2009 06:11:07 11.3 C 8.77 g/m*3 11.3 C 0 km/h
632 27-04-2009 06:23:07 11.5 C 8.88 g/m*3 11.5 C 0 km/h
633 27-04-2009 06:35:07 11.7 C 8.99 g/m*3 11.7 C 0 km/h
634 27-04-2009 06:47:07 12 C 9.06 g/m*3 12 C 0 km/h
635 27-04-2009 06:59:07 12.1 C 9.01 g/m*3 12.1 C 0 km/h
636 27-04-2009 07:11:05 12.1 C 8.79 g/m*3 12.1 C 0 km/h
637 27-04-2009 07:23:05 12.2 C 8.74 g/m*3 12.2 C 0 km/h
638 27-04-2009 07:35:05 12.4 C 8.85 g/m*3 12.4 C 0 km/h
639 27-04-2009 07:47:04 12.7 C 8.68 g/m*3 12.7 C 0 km/h
640 27-04-2009 07:59:04 12.7 C 8.68 g/m*3 12.7 C 0 km/h
641 27-04-2009 08:11:05 13 C 8.51 g/m*3 13 C 0 km/h
642 27-04-2009 08:23:04 13.1 C 8.1 g/m*3 13.1 C 0 km/h
643 27-04-2009 08:35:04 13.4 C 8.14 g/m*3 13.4 C 0 km/h
644 27-04-2009 08:47:04 13.6 C 8.12 g/m*3 13.6 C 0 km/h
645 27-04-2009 08:59:04 13.5 C 7.84 g/m*3 13.5 C 0 km/h
646 27-04-2009 09:11:04 13.2 C 7.46 g/m*3 13.2 C 0 km/h
647 27-04-2009 09:23:04 13.1 C 7.53 g/m*3 13.1 C 0 km/h
648 27-04-2009 09:35:04 13.2 C 7.46 g/m*3 13.2 C 0 km/h
649 27-04-2009 09:47:03 13.4 C 7.44 g/m*3 13.4 C 0 km/h
650 27-04-2009 09:59:03 14 C 7.24 g/m*3 14 C 0 km/h
Sensor: Nr:Datum:Temp:Abs-Feuchte:Windchill:Wind:
Aussen-T/F 651 27-04-2009 10:11:04 14.5 C 7.09 g/m*3 14.5 C 0 km/h
652 27-04-2009 10:23:03 14.7 C 6.92 g/m*3 14.7 C 0 km/h
653 27-04-2009 10:35:03 14.4 C 6.55 g/m*3 14.4 C 0 km/h
654 27-04-2009 10:47:03 14.6 C 6.63 g/m*3 14.6 C 0 km/h
655 27-04-2009 10:59:03 14.8 C 6.46 g/m*3 14.8 C 0 km/h
656 27-04-2009 11:11:03 14.8 C 6.33 g/m*3 14.8 C 0 km/h
657 27-04-2009 11:23:02 14.9 C 6.12 g/m*3 14.9 C 0 km/h
658 27-04-2009 11:35:03 15.5 C 6.08 g/m*3 15.5 C 0 km/h
659 27-04-2009 11:47:02 14.9 C 6.12 g/m*3 14.9 C 0 km/h
660 27-04-2009 11:59:02 15.5 C 5.95 g/m*3 15.5 C 0 km/h
661 27-04-2009 12:11:02 15.6 C 5.72 g/m*3 15.6 C 0 km/h
662 27-04-2009 12:23:01 15.3 C 5.75 g/m*3 15.3 C 0 km/h
663 27-04-2009 12:35:02 15.4 C 5.91 g/m*3 15.4 C 0 km/h
664 27-04-2009 12:47:02 15.5 C 5.95 g/m*3 15.5 C 0 km/h
665 27-04-2009 12:59:02 15.6 C 5.98 g/m*3 15.6 C 0 km/h
666 27-04-2009 13:11:01 15.4 C 5.78 g/m*3 15.4 C 0 km/h
667 27-04-2009 13:23:02 15.4 C 5.91 g/m*3 15.4 C 0 km/h
668 27-04-2009 13:35:01 15.7 C 6.15 g/m*3 15.7 C 0 km/h
669 27-04-2009 13:47:01 16.6 C 5.93 g/m*3 16.6 C 0 km/h
670 27-04-2009 13:59:01 16.2 C 5.79 g/m*3 16.2 C 0 km/h
671 27-04-2009 14:11:01 17 C 5.93 g/m*3 17 C 0 km/h
672 27-04-2009 14:23:01 16.6 C 5.65 g/m*3 16.6 C 0 km/h
673 27-04-2009 14:35:01 16.4 C 5.58 g/m*3 16.4 C 0 km/h
674 27-04-2009 14:47:01 16.6 C 5.51 g/m*3 16.6 C 0 km/h
675 27-04-2009 14:59:01 16.6 C 5.37 g/m*3 16.6 C 0 km/h
Sensor: Nr:Datum:Temp:Abs-Feuchte:Windchill:Wind:
Aussen-T/F 676 27-04-2009 15:11:01 16.6 C 5.37 g/m*3 16.6 C 0 km/h
677 27-04-2009 15:23:00 16.6 C 5.65 g/m*3 16.6 C 0 km/h
678 27-04-2009 15:35:00 17 C 5.5 g/m*3 17 C 0 km/h
679 27-04-2009 15:47:00 17.1 C 5.24 g/m*3 17.1 C 0 km/h
680 27-04-2009 15:59:00 17.2 C 5.27 g/m*3 17.2 C 0 km/h
681 27-04-2009 16:11:00 18.5 C 5.38 g/m*3 18.5 C 0 km/h
682 27-04-2009 16:23:59 18 C 5.38 g/m*3 18 C 0 km/h
683 27-04-2009 16:35:00 17.4 C 5.19 g/m*3 17.4 C 0 km/h
684 27-04-2009 16:47:59 17.2 C 5.13 g/m*3 17.2 C 0 km/h
685 27-04-2009 16:59:59 17.6 C 5.25 g/m*3 17.6 C 0 km/h
686 27-04-2009 17:11:59 18 C 5.22 g/m*3 18 C 0 km/h
687 27-04-2009 17:23:59 19.3 C 4.98 g/m*3 19.3 C 0 km/h
688 27-04-2009 17:35:02 19.2 C 4.78 g/m*3 19.2 C 0 km/h
689 27-04-2009 17:47:01 19.3 C 4.98 g/m*3 19.3 C 0 km/h
690 27-04-2009 17:59:01 19.3 C 4.64 g/m*3 19.3 C 0 km/h
691 27-04-2009 18:11:01 19.8 C 5.12 g/m*3 19.8 C 0 km/h
692 27-04-2009 18:23:01 19.6 C 4.9 g/m*3 19.6 C 0 km/h
693 27-04-2009 18:35:01 18.4 C 5.03 g/m*3 18.4 C 0 km/h
694 27-04-2009 18:47:01 18.1 C 5.1 g/m*3 18.1 C 0 km/h
695 27-04-2009 18:59:01 18 C 4.92 g/m*3 18 C 0 km/h
696 27-04-2009 19:11:01 17.8 C 5.16 g/m*3 17.8 C 0 km/h
697 27-04-2009 19:23:00 18 C 5.07 g/m*3 18 C 0 km/h
698 27-04-2009 19:35:01 17.2 C 5.13 g/m*3 17.2 C 0 km/h
699 27-04-2009 19:47:00 16.9 C 5.32 g/m*3 16.9 C 0 km/h
700 27-04-2009 19:59:00 16.7 C 5.54 g/m*3 16.7 C 0 km/h
Sensor: Nr:Datum:Temp:Abs-Feuchte:Windchill:Wind:
Aussen-T/F 701 27-04-2009 20:11:00 16.2 C 5.52 g/m*3 16.2 C 0 km/h
702 27-04-2009 20:22:59 15.8 C 5.92 g/m*3 15.8 C 0 km/h
703 27-04-2009 20:35:00 15.4 C 5.91 g/m*3 15.4 C 0 km/h
704 27-04-2009 20:47:59 14.9 C 5.86 g/m*3 14.9 C 0 km/h
705 27-04-2009 20:59:59 14.3 C 5.9 g/m*3 14.3 C 0 km/h
706 27-04-2009 21:11:59 14.2 C 6.11 g/m*3 14.2 C 0 km/h
707 27-04-2009 21:23:00 14.3 C 6.14 g/m*3 14.3 C 0 km/h
708 27-04-2009 21:35:59 14.3 C 6.14 g/m*3 14.3 C 0 km/h
709 27-04-2009 21:48:01 14.1 C 6.07 g/m*3 14.1 C 0 km/h
710 27-04-2009 22:00:01 14.1 C 6.07 g/m*3 14.1 C 0 km/h
711 27-04-2009 22:12:01 14.1 C 6.19 g/m*3 14.1 C 0 km/h
712 27-04-2009 22:24:01 14.1 C 6.19 g/m*3 14.1 C 0 km/h
713 27-04-2009 22:36:01 13.2 C 6.89 g/m*3 13.2 C 0 km/h
714 27-04-2009 22:48:01 12.6 C 7.19 g/m*3 12.6 C 0 km/h
715 27-04-2009 23:00:01 12.5 C 7.37 g/m*3 12.5 C 0 km/h
716 27-04-2009 23:12:01 12.8 C 7.06 g/m*3 12.8 C 0 km/h
717 27-04-2009 23:24:01 12.9 C 6.99 g/m*3 12.9 C 0 km/h
718 27-04-2009 23:36:01 12.4 C 6.99 g/m*3 12.4 C 0 km/h
719 27-04-2009 23:48:01 12 C 7.25 g/m*3 12 C 0 km/h
720 28-04-2009 00:00:01 12.4 C 7.43 g/m*3 12.4 C 0 km/h
721 28-04-2009 00:12:01 12.5 C 7.48 g/m*3 12.5 C 0 km/h
722 28-04-2009 00:24:01 12.1 C 7.29 g/m*3 12.1 C 0 km/h
723 28-04-2009 00:36:01 11.5 C 7.23 g/m*3 11.5 C 0 km/h
724 28-04-2009 00:48:01 10.8 C 7.71 g/m*3 10.8 C 0 km/h
725 28-04-2009 01:00:01 10.7 C 8.05 g/m*3 10.7 C 0 km/h
Sensor: Nr:Datum:Temp:Abs-Feuchte:Windchill:Wind:
Aussen-T/F 726 28-04-2009 01:12:01 10.6 C 8.2 g/m*3 10.6 C 0 km/h
727 28-04-2009 01:24:01 10.5 C 8.24 g/m*3 10.5 C 0 km/h
728 28-04-2009 01:36:01 10.5 C 8.34 g/m*3 10.5 C 0 km/h
729 28-04-2009 01:48:02 10.6 C 8.49 g/m*3 10.6 C 0 km/h
730 28-04-2009 02:00:02 10.7 C 8.55 g/m*3 10.7 C 0 km/h
731 28-04-2009 02:12:02 10.7 C 8.55 g/m*3 10.7 C 0 km/h
732 28-04-2009 02:24:02 10.8 C 8.6 g/m*3 10.8 C 0 km/h
733 28-04-2009 02:36:02 10.9 C 8.65 g/m*3 10.9 C 0 km/h
734 28-04-2009 02:48:02 10.6 C 8.49 g/m*3 10.6 C 0 km/h
735 28-04-2009 03:00:02 10.5 C 8.53 g/m*3 10.5 C 0 km/h
736 28-04-2009 03:12:02 10.5 C 8.63 g/m*3 10.5 C 0 km/h
737 28-04-2009 03:24:02 10.6 C 8.69 g/m*3 10.6 C 0 km/h
738 28-04-2009 03:36:02 10.6 C 8.69 g/m*3 10.6 C 0 km/h
739 28-04-2009 03:48:02 10.5 C 8.63 g/m*3 10.5 C 0 km/h
740 28-04-2009 04:00:02 10.5 C 8.63 g/m*3 10.5 C 0 km/h
741 28-04-2009 04:12:02 10.4 C 8.67 g/m*3 10.4 C 0 km/h
742 28-04-2009 04:24:02 10.4 C 8.58 g/m*3 10.4 C 0 km/h
743 28-04-2009 04:36:02 10.2 C 8.56 g/m*3 10.2 C 0 km/h
744 28-04-2009 04:48:02 10.4 C 8.67 g/m*3 10.4 C 0 km/h
745 28-04-2009 05:00:02 10.2 C 8.56 g/m*3 10.2 C 0 km/h
746 28-04-2009 05:12:02 10.3 C 8.62 g/m*3 10.3 C 0 km/h
747 28-04-2009 05:24:02 10.1 C 8.51 g/m*3 10.1 C 0 km/h
748 28-04-2009 05:36:02 10.1 C 8.51 g/m*3 10.1 C 0 km/h
749 28-04-2009 05:48:03 10.2 C 8.56 g/m*3 10.2 C 0 km/h
750 28-04-2009 06:00:03 10.1 C 8.51 g/m*3 10.1 C 0 km/h
Sensor: Nr:Datum:Temp:Abs-Feuchte:Windchill:Wind:
Aussen-T/F 751 28-04-2009 06:12:03 10.1 C 8.61 g/m*3 10.1 C 0 km/h
752 28-04-2009 06:24:03 10 C 8.55 g/m*3 10 C 0 km/h
753 28-04-2009 06:36:00 9.9 C 8.59 g/m*3 9.9 C 0 km/h
754 28-04-2009 06:48:00 9.9 C 8.59 g/m*3 9.9 C 0 km/h
755 28-04-2009 07:00:00 10 C 8.55 g/m*3 10 C 0 km/h
756 28-04-2009 07:12:00 10.2 C 8.66 g/m*3 10.2 C 0 km/h
757 28-04-2009 07:24:00 10.2 C 8.66 g/m*3 10.2 C 0 km/h
758 28-04-2009 07:36:00 10.3 C 8.71 g/m*3 10.3 C 0 km/h
759 28-04-2009 07:48:59 10.3 C 8.71 g/m*3 10.3 C 0 km/h
760 28-04-2009 08:00:00 10.4 C 8.77 g/m*3 10.4 C 0 km/h
761 28-04-2009 08:12:01 10.5 C 8.83 g/m*3 10.5 C 0 km/h
762 28-04-2009 08:24:59 10.5 C 8.83 g/m*3 10.5 C 0 km/h
763 28-04-2009 08:36:59 10.8 C 8.99 g/m*3 10.8 C 0 km/h
764 28-04-2009 08:48:59 10.9 C 9.05 g/m*3 10.9 C 0 km/h
765 28-04-2009 09:00:59 10.9 C 9.05 g/m*3 10.9 C 0 km/h
766 28-04-2009 09:12:59 11 C 9.01 g/m*3 11 C 0 km/h
767 28-04-2009 09:24:59 11 C 9.01 g/m*3 11 C 0 km/h
768 28-04-2009 09:36:58 10.8 C 8.9 g/m*3 10.8 C 0 km/h
769 28-04-2009 09:48:59 10.8 C 8.9 g/m*3 10.8 C 0 km/h
770 28-04-2009 10:00:58 11 C 9.01 g/m*3 11 C 0 km/h
771 28-04-2009 10:12:58 11.1 C 9.07 g/m*3 11.1 C 0 km/h
772 28-04-2009 10:24:58 11.1 C 9.07 g/m*3 11.1 C 0 km/h
773 28-04-2009 10:36:58 11.5 C 9.3 g/m*3 11.5 C 0 km/h
774 28-04-2009 10:48:58 11.4 C 9.24 g/m*3 11.4 C 0 km/h
775 28-04-2009 11:00:57 11.5 C 9.3 g/m*3 11.5 C 0 km/h
Sensor: Nr:Datum:Temp:Abs-Feuchte:Windchill:Wind:
Aussen-T/F 776 28-04-2009 11:12:57 11.2 C 9.02 g/m*3 11.2 C 0 km/h
777 28-04-2009 11:24:58 11.3 C 9.08 g/m*3 11.3 C 0 km/h
778 28-04-2009 11:36:58 11.5 C 9.19 g/m*3 11.5 C 0 km/h
779 28-04-2009 11:48:57 11.6 C 9.15 g/m*3 11.6 C 0 km/h
780 28-04-2009 12:00:58 11.9 C 9.32 g/m*3 11.9 C 0 km/h
781 28-04-2009 12:12:58 11.6 C 9.04 g/m*3 11.6 C 0 km/h
782 28-04-2009 12:24:57 12.1 C 9.22 g/m*3 12.1 C 0 km/h
783 28-04-2009 12:36:57 12.2 C 9.06 g/m*3 12.2 C 0 km/h
784 28-04-2009 12:48:57 12.6 C 9.29 g/m*3 12.6 C 0 km/h
785 28-04-2009 13:00:57 12.8 C 9.3 g/m*3 12.8 C 0 km/h
786 28-04-2009 13:12:57 12.7 C 9.24 g/m*3 12.7 C 0 km/h
787 28-04-2009 13:24:56 12.7 C 9.02 g/m*3 12.7 C 0 km/h
788 28-04-2009 13:36:56 11.5 C 8.47 g/m*3 11.5 C 0 km/h
789 28-04-2009 13:48:56 10.4 C 7.9 g/m*3 10.4 C 0 km/h
790 28-04-2009 14:00:56 10.5 C 7.95 g/m*3 10.5 C 0 km/h
791 28-04-2009 14:12:56 10.5 C 8.05 g/m*3 10.5 C 0 km/h
792 28-04-2009 14:24:56 10.7 C 8.05 g/m*3 10.7 C 0 km/h
793 28-04-2009 14:36:56 11.5 C 8.06 g/m*3 11.5 C 0 km/h
794 28-04-2009 14:48:56 11.6 C 7.8 g/m*3 11.6 C 0 km/h
795 28-04-2009 15:00:55 11.5 C 7.64 g/m*3 11.5 C 0 km/h
796 28-04-2009 15:12:55 11.5 C 7.44 g/m*3 11.5 C 0 km/h
797 28-04-2009 15:24:56 11.6 C 7.48 g/m*3 11.6 C 0 km/h
798 28-04-2009 15:36:55 11.9 C 7.52 g/m*3 11.9 C 0 km/h
799 28-04-2009 15:48:55 11.9 C 7.52 g/m*3 11.9 C 0 km/h
800 28-04-2009 16:00:55 12.1 C 7.4 g/m*3 12.1 C 0 km/h
Sensor: Nr:Datum:Temp:Abs-Feuchte:Windchill:Wind:
Aussen-T/F 801 28-04-2009 16:12:55 12.2 C 7.34 g/m*3 12.2 C 0 km/h
802 28-04-2009 16:24:55 12.5 C 7.26 g/m*3 12.5 C 0 km/h
803 28-04-2009 16:36:54 13.1 C 7.07 g/m*3 13.1 C 0 km/h
804 28-04-2009 16:48:55 13.3 C 6.82 g/m*3 13.3 C 0 km/h
805 28-04-2009 17:00:55 13.4 C 6.74 g/m*3 13.4 C 0 km/h
806 28-04-2009 17:12:55 13.6 C 6.59 g/m*3 13.6 C 0 km/h
807 28-04-2009 17:24:54 13.4 C 6.39 g/m*3 13.4 C 0 km/h
808 28-04-2009 17:36:54 13.3 C 6.47 g/m*3 13.3 C 0 km/h
809 28-04-2009 17:48:54 13.4 C 6.51 g/m*3 13.4 C 0 km/h
810 28-04-2009 18:00:54 13.2 C 6.09 g/m*3 13.2 C 0 km/h
811 28-04-2009 18:12:54 13.2 C 6.2 g/m*3 13.2 C 0 km/h
812 28-04-2009 18:24:53 12.9 C 5.97 g/m*3 12.9 C 0 km/h
813 28-04-2009 18:36:54 13 C 6.12 g/m*3 13 C 0 km/h
814 28-04-2009 18:48:53 13.1 C 6.28 g/m*3 13.1 C 0 km/h
815 28-04-2009 19:00:53 12.9 C 6.2 g/m*3 12.9 C 0 km/h
816 28-04-2009 19:12:53 12.9 C 6.88 g/m*3 12.9 C 0 km/h
817 28-04-2009 19:24:53 12.8 C 7.17 g/m*3 12.8 C 0 km/h
818 28-04-2009 19:36:53 12.8 C 7.17 g/m*3 12.8 C 0 km/h
819 28-04-2009 19:48:52 12.7 C 7.01 g/m*3 12.7 C 0 km/h
820 28-04-2009 20:00:53 12.6 C 7.08 g/m*3 12.6 C 0 km/h
821 28-04-2009 20:12:53 12.5 C 7.04 g/m*3 12.5 C 0 km/h
822 28-04-2009 20:24:53 11.6 C 6.96 g/m*3 11.6 C 0 km/h
823 28-04-2009 20:36:52 10.8 C 6.92 g/m*3 10.8 C 0 km/h
824 28-04-2009 20:48:53 10.1 C 6.71 g/m*3 10.1 C 0 km/h
825 28-04-2009 21:00:52 9.6 C 6.69 g/m*3 9.6 C 0 km/h
Sensor: Nr:Datum:Temp:Abs-Feuchte:Windchill:Wind:
Aussen-T/F 826 28-04-2009 21:12:52 9.2 C 6.79 g/m*3 9.2 C 0 km/h
827 28-04-2009 21:24:52 9.1 C 6.83 g/m*3 9.1 C 0 km/h
828 28-04-2009 21:36:52 9.2 C 6.88 g/m*3 9.2 C 0 km/h
829 28-04-2009 21:49:53 9.3 C 6.92 g/m*3 9.3 C 0 km/h
830 28-04-2009 22:01:53 9.2 C 6.88 g/m*3 9.2 C 0 km/h
831 28-04-2009 22:13:53 9.1 C 7.01 g/m*3 9.1 C 0 km/h
832 28-04-2009 22:25:53 9 C 6.96 g/m*3 9 C 0 km/h
833 28-04-2009 22:37:53 8.9 C 7.01 g/m*3 8.9 C 0 km/h
834 28-04-2009 22:49:53 8.6 C 6.87 g/m*3 8.6 C 0 km/h
835 28-04-2009 23:01:53 8.7 C 6.92 g/m*3 8.7 C 0 km/h
836 28-04-2009 23:13:53 8.8 C 6.96 g/m*3 8.8 C 0 km/h
837 28-04-2009 23:25:53 8.9 C 7.01 g/m*3 8.9 C 0 km/h
838 28-04-2009 23:37:53 8.8 C 6.96 g/m*3 8.8 C 0 km/h
839 28-04-2009 23:49:53 8.7 C 6.92 g/m*3 8.7 C 0 km/h
840 29-04-2009 00:01:53 8.6 C 6.96 g/m*3 8.6 C 0 km/h
841 29-04-2009 00:13:53 8.6 C 6.96 g/m*3 8.6 C 0 km/h
842 29-04-2009 00:25:53 8.6 C 7.05 g/m*3 8.6 C 0 km/h
843 29-04-2009 00:37:53 8.5 C 7 g/m*3 8.5 C 0 km/h
844 29-04-2009 00:49:54 8.4 C 7.04 g/m*3 8.4 C 0 km/h
845 29-04-2009 01:01:54 8.4 C 7.04 g/m*3 8.4 C 0 km/h
846 29-04-2009 01:13:54 8.3 C 7 g/m*3 8.3 C 0 km/h
847 29-04-2009 01:25:54 8.2 C 6.95 g/m*3 8.2 C 0 km/h
848 29-04-2009 01:37:54 8.1 C 6.91 g/m*3 8.1 C 0 km/h
849 29-04-2009 01:49:54 8 C 6.86 g/m*3 8 C 0 km/h
850 29-04-2009 02:01:54 7.9 C 6.9 g/m*3 7.9 C 0 km/h
Sensor: Nr:Datum:Temp:Abs-Feuchte:Windchill:Wind:
Aussen-T/F 851 29-04-2009 02:13:54 7.7 C 6.81 g/m*3 7.7 C 0 km/h
852 29-04-2009 02:25:54 7.7 C 6.89 g/m*3 7.7 C 0 km/h
853 29-04-2009 02:37:54 7.6 C 6.85 g/m*3 7.6 C 0 km/h
854 29-04-2009 02:49:54 7.4 C 6.76 g/m*3 7.4 C 0 km/h
855 29-04-2009 03:01:54 7.3 C 6.79 g/m*3 7.3 C 0 km/h
856 29-04-2009 03:13:54 7.3 C 6.87 g/m*3 7.3 C 0 km/h
857 29-04-2009 03:25:54 7.3 C 6.87 g/m*3 7.3 C 0 km/h
858 29-04-2009 03:37:54 7.2 C 6.83 g/m*3 7.2 C 0 km/h
859 29-04-2009 03:49:54 7.2 C 6.83 g/m*3 7.2 C 0 km/h
860 29-04-2009 04:01:54 7.1 C 6.79 g/m*3 7.1 C 0 km/h
861 29-04-2009 04:13:54 6.9 C 6.77 g/m*3 6.9 C 0 km/h
862 29-04-2009 04:25:54 6.9 C 6.77 g/m*3 6.9 C 0 km/h
863 29-04-2009 04:37:54 6.8 C 6.73 g/m*3 6.8 C 0 km/h
864 29-04-2009 04:49:55 6.7 C 6.69 g/m*3 6.7 C 0 km/h
865 29-04-2009 05:01:55 6.6 C 6.72 g/m*3 6.6 C 0 km/h
866 29-04-2009 05:13:55 6.6 C 6.72 g/m*3 6.6 C 0 km/h
867 29-04-2009 05:25:55 7 C 6.9 g/m*3 7 C 0 km/h
868 29-04-2009 05:37:55 7.2 C 6.99 g/m*3 7.2 C 0 km/h
869 29-04-2009 05:49:55 7.3 C 7.11 g/m*3 7.3 C 0 km/h
870 29-04-2009 06:01:55 7.1 C 6.94 g/m*3 7.1 C 0 km/h
871 29-04-2009 06:13:55 7 C 6.97 g/m*3 7 C 0 km/h
872 29-04-2009 06:25:55 6.9 C 6.93 g/m*3 6.9 C 0 km/h
873 29-04-2009 06:37:55 7 C 6.97 g/m*3 7 C 0 km/h
874 29-04-2009 06:49:55 7 C 6.97 g/m*3 7 C 0 km/h
875 29-04-2009 07:01:55 7 C 6.97 g/m*3 7 C 0 km/h
Sensor: Nr:Datum:Temp:Abs-Feuchte:Windchill:Wind:
Aussen-T/F 876 29-04-2009 07:13:55 7.1 C 7.02 g/m*3 7.1 C 0 km/h
877 29-04-2009 07:25:53 7.4 C 7.16 g/m*3 7.4 C 0 km/h
878 29-04-2009 07:37:52 7.6 C 7.25 g/m*3 7.6 C 0 km/h
879 29-04-2009 07:49:52 7.8 C 7.26 g/m*3 7.8 C 0 km/h
880 29-04-2009 08:01:52 8 C 7.19 g/m*3 8 C 0 km/h
881 29-04-2009 08:13:52 8.1 C 7.07 g/m*3 8.1 C 0 km/h
882 29-04-2009 08:25:52 8.1 C 6.99 g/m*3 8.1 C 0 km/h
883 29-04-2009 08:37:51 8.2 C 7.03 g/m*3 8.2 C 0 km/h
884 29-04-2009 08:49:51 8.5 C 7.17 g/m*3 8.5 C 0 km/h
885 29-04-2009 09:01:51 8.7 C 7.18 g/m*3 8.7 C 0 km/h
886 29-04-2009 09:13:51 9.3 C 7.28 g/m*3 9.3 C 0 km/h
887 29-04-2009 09:25:51 9.7 C 7.28 g/m*3 9.7 C 0 km/h
888 29-04-2009 09:37:51 10.3 C 7.28 g/m*3 10.3 C 0 km/h
889 29-04-2009 09:49:51 10.8 C 7.31 g/m*3 10.8 C 0 km/h
890 29-04-2009 10:01:50 11.5 C 7.33 g/m*3 11.5 C 0 km/h
891 29-04-2009 10:13:50 12.2 C 7.45 g/m*3 12.2 C 0 km/h
892 29-04-2009 10:25:51 12.9 C 7.44 g/m*3 12.9 C 0 km/h
893 29-04-2009 10:37:50 13.2 C 7.23 g/m*3 13.2 C 0 km/h
894 29-04-2009 10:49:50 13.5 C 7.25 g/m*3 13.5 C 0 km/h
895 29-04-2009 11:01:50 14.1 C 7.04 g/m*3 14.1 C 0 km/h
896 29-04-2009 11:13:50 14.7 C 6.92 g/m*3 14.7 C 0 km/h
897 29-04-2009 11:25:50 15.5 C 6.87 g/m*3 15.5 C 0 km/h
898 29-04-2009 11:37:50 15.5 C 6.74 g/m*3 15.5 C 0 km/h
899 29-04-2009 11:49:50 16.3 C 6.66 g/m*3 16.3 C 0 km/h
900 29-04-2009 12:01:50 16.6 C 6.5 g/m*3 16.6 C 0 km/h
Sensor: Nr:Datum:Temp:Abs-Feuchte:Windchill:Wind:
Aussen-T/F 901 29-04-2009 12:13:50 16.4 C 5.44 g/m*3 16.4 C 0 km/h
902 29-04-2009 12:25:49 17.3 C 5.6 g/m*3 17.3 C 0 km/h
903 29-04-2009 12:37:50 17 C 5.35 g/m*3 17 C 0 km/h
904 29-04-2009 12:49:49 17.9 C 5.65 g/m*3 17.9 C 0 km/h
905 29-04-2009 13:01:49 18.5 C 5.22 g/m*3 18.5 C 0 km/h
906 29-04-2009 13:13:50 18.6 C 4.93 g/m*3 18.6 C 0 km/h
907 29-04-2009 13:25:49 18.3 C 5 g/m*3 18.3 C 0 km/h
908 29-04-2009 13:37:49 18.5 C 4.59 g/m*3 18.5 C 0 km/h
909 29-04-2009 13:49:48 18.1 C 3.86 g/m*3 18.1 C 0 km/h
910 29-04-2009 14:01:48 17.9 C 4.12 g/m*3 17.9 C 0 km/h
911 29-04-2009 14:13:48 17.5 C 4.47 g/m*3 17.5 C 0 km/h
912 29-04-2009 14:25:49 18.5 C 4.75 g/m*3 18.5 C 0 km/h
913 29-04-2009 14:37:48 18.6 C 4.77 g/m*3 18.6 C 0 km/h
914 29-04-2009 14:49:48 20.3 C 5.1 g/m*3 20.3 C 0 km/h
915 29-04-2009 15:01:48 20.2 C 4.37 g/m*3 20.2 C 0 km/h
916 29-04-2009 15:13:48 18.1 C 4.94 g/m*3 18.1 C 0 km/h
917 29-04-2009 15:25:48 17.5 C 5.22 g/m*3 17.5 C 0 km/h
918 29-04-2009 15:37:47 18 C 4.92 g/m*3 18 C 0 km/h
919 29-04-2009 15:49:48 20 C 5.01 g/m*3 20 C 0 km/h
920 29-04-2009 16:01:47 21.1 C 4.97 g/m*3 21.1 C 0 km/h
921 29-04-2009 16:13:47 20.5 C 4.45 g/m*3 20.5 C 0 km/h
922 29-04-2009 16:25:47 20.7 C 4.5 g/m*3 20.7 C 0 km/h
923 29-04-2009 16:37:48 21.2 C 4.63 g/m*3 21.2 C 0 km/h
924 29-04-2009 16:49:47 21.8 C 4.22 g/m*3 21.8 C 0 km/h
925 29-04-2009 17:01:47 19.5 C 4.36 g/m*3 19.5 C 0 km/h
Sensor: Nr:Datum:Temp:Abs-Feuchte:Windchill:Wind:
Aussen-T/F 926 29-04-2009 17:13:47 17.6 C 4.65 g/m*3 17.6 C 0 km/h
927 29-04-2009 17:25:47 17.3 C 5.01 g/m*3 17.3 C 0 km/h
928 29-04-2009 17:37:47 16.8 C 5 g/m*3 16.8 C 0 km/h
929 29-04-2009 17:49:46 14.9 C 6.37 g/m*3 14.9 C 0 km/h
930 29-04-2009 18:01:47 13.7 C 8.64 g/m*3 13.7 C 0 km/h
931 29-04-2009 18:13:47 12.5 C 8.36 g/m*3 12.5 C 0 km/h
932 29-04-2009 18:25:46 12 C 8.42 g/m*3 12 C 0 km/h
933 29-04-2009 18:37:46 11.2 C 8.11 g/m*3 11.2 C 0 km/h
934 29-04-2009 18:49:46 11.8 C 8.63 g/m*3 11.8 C 0 km/h
935 29-04-2009 19:01:46 12.7 C 9.02 g/m*3 12.7 C 0 km/h
936 29-04-2009 19:13:46 12.8 C 8.62 g/m*3 12.8 C 0 km/h
937 29-04-2009 19:25:45 12.7 C 8.68 g/m*3 12.7 C 0 km/h
938 29-04-2009 19:37:46 12.5 C 8.58 g/m*3 12.5 C 0 km/h
939 29-04-2009 19:49:45 12.5 C 8.47 g/m*3 12.5 C 0 km/h
940 29-04-2009 20:01:45 12.2 C 8.09 g/m*3 12.2 C 0 km/h
941 29-04-2009 20:13:45 12.3 C 8.25 g/m*3 12.3 C 0 km/h
942 29-04-2009 20:25:45 12 C 7.99 g/m*3 12 C 0 km/h
943 29-04-2009 20:37:45 11.7 C 8.05 g/m*3 11.7 C 0 km/h
944 29-04-2009 20:49:44 11.7 C 8.05 g/m*3 11.7 C 0 km/h
945 29-04-2009 21:01:45 11.3 C 7.65 g/m*3 11.3 C 0 km/h
946 29-04-2009 21:13:46 11.1 C 7.55 g/m*3 11.1 C 0 km/h
947 29-04-2009 21:25:44 11 C 7.41 g/m*3 11 C 0 km/h
948 29-04-2009 21:37:44 10.8 C 7.41 g/m*3 10.8 C 0 km/h
949 29-04-2009 21:49:44 10.7 C 7.27 g/m*3 10.7 C 0 km/h
950 29-04-2009 22:01:44 10.6 C 7.22 g/m*3 10.6 C 0 km/h
Sensor: Nr:Datum:Temp:Abs-Feuchte:Windchill:Wind:
Aussen-T/F 951 29-04-2009 22:13:44 10.7 C 7.07 g/m*3 10.7 C 0 km/h
952 29-04-2009 22:25:44 10.7 C 7.07 g/m*3 10.7 C 0 km/h
953 29-04-2009 22:38:45 10.7 C 7.07 g/m*3 10.7 C 0 km/h
954 29-04-2009 22:50:45 10.7 C 7.07 g/m*3 10.7 C 0 km/h
955 29-04-2009 23:02:45 10.7 C 7.17 g/m*3 10.7 C 0 km/h
956 29-04-2009 23:14:46 10.6 C 7.12 g/m*3 10.6 C 0 km/h
957 29-04-2009 23:26:46 10.5 C 7.18 g/m*3 10.5 C 0 km/h
958 29-04-2009 23:38:46 10.3 C 7.18 g/m*3 10.3 C 0 km/h
959 29-04-2009 23:50:46 10 C 7.14 g/m*3 10 C 0 km/h
960 30-04-2009 00:02:46 9.7 C 7.19 g/m*3 9.7 C 0 km/h
961 30-04-2009 00:14:46 9.5 C 7.19 g/m*3 9.5 C 0 km/h
962 30-04-2009 00:26:46 9.5 C 7.28 g/m*3 9.5 C 0 km/h
963 30-04-2009 00:38:46 9.6 C 7.33 g/m*3 9.6 C 0 km/h
964 30-04-2009 00:50:46 9.6 C 7.42 g/m*3 9.6 C 0 km/h
965 30-04-2009 01:02:46 9.6 C 7.42 g/m*3 9.6 C 0 km/h
966 30-04-2009 01:14:46 9.5 C 7.37 g/m*3 9.5 C 0 km/h
967 30-04-2009 01:26:46 9.2 C 7.32 g/m*3 9.2 C 0 km/h
968 30-04-2009 01:38:46 9.1 C 7.28 g/m*3 9.1 C 0 km/h
969 30-04-2009 01:50:46 9 C 7.32 g/m*3 9 C 0 km/h
970 30-04-2009 02:02:46 8.9 C 7.36 g/m*3 8.9 C 0 km/h
971 30-04-2009 02:14:46 8.7 C 7.35 g/m*3 8.7 C 0 km/h
972 30-04-2009 02:26:46 8.8 C 7.4 g/m*3 8.8 C 0 km/h
973 30-04-2009 02:38:46 8.9 C 7.45 g/m*3 8.9 C 0 km/h
974 30-04-2009 02:50:46 8.9 C 7.45 g/m*3 8.9 C 0 km/h
975 30-04-2009 03:02:47 8.9 C 7.45 g/m*3 8.9 C 0 km/h
Sensor: Nr:Datum:Temp:Abs-Feuchte:Windchill:Wind:
Aussen-T/F 976 30-04-2009 03:14:47 8.6 C 7.3 g/m*3 8.6 C 0 km/h
977 30-04-2009 03:26:47 8.4 C 7.21 g/m*3 8.4 C 0 km/h
978 30-04-2009 03:38:47 8.2 C 7.12 g/m*3 8.2 C 0 km/h
979 30-04-2009 03:50:47 8 C 7.11 g/m*3 8 C 0 km/h
980 30-04-2009 04:02:47 7.8 C 7.18 g/m*3 7.8 C 0 km/h
981 30-04-2009 04:14:47 7.8 C 7.18 g/m*3 7.8 C 0 km/h
982 30-04-2009 04:26:47 7.6 C 7.09 g/m*3 7.6 C 0 km/h
983 30-04-2009 04:38:47 7.4 C 7.08 g/m*3 7.4 C 0 km/h
984 30-04-2009 04:50:47 7.4 C 7.08 g/m*3 7.4 C 0 km/h
985 30-04-2009 05:02:47 7.6 C 7.25 g/m*3 7.6 C 0 km/h
986 30-04-2009 05:14:47 7.8 C 7.43 g/m*3 7.8 C 0 km/h
987 30-04-2009 05:26:47 7.9 C 7.47 g/m*3 7.9 C 0 km/h
988 30-04-2009 05:38:47 8 C 7.36 g/m*3 8 C 0 km/h
989 30-04-2009 05:50:47 8.1 C 7.41 g/m*3 8.1 C 0 km/h
990 30-04-2009 06:02:47 8.1 C 7.41 g/m*3 8.1 C 0 km/h
991 30-04-2009 06:14:47 8.1 C 7.32 g/m*3 8.1 C 0 km/h
992 30-04-2009 06:26:47 8.2 C 7.37 g/m*3 8.2 C 0 km/h
993 30-04-2009 06:38:47 8.2 C 7.37 g/m*3 8.2 C 0 km/h
994 30-04-2009 06:50:44 8.3 C 7.33 g/m*3 8.3 C 0 km/h
995 30-04-2009 07:02:45 8.3 C 7.33 g/m*3 8.3 C 0 km/h
996 30-04-2009 07:14:44 8.4 C 7.38 g/m*3 8.4 C 0 km/h
997 30-04-2009 07:26:44 8.4 C 7.38 g/m*3 8.4 C 0 km/h
998 30-04-2009 07:38:44 8.6 C 7.48 g/m*3 8.6 C 0 km/h
999 30-04-2009 07:50:44 8.7 C 7.52 g/m*3 8.7 C 0 km/h
1000 30-04-2009 08:02:44 9 C 7.49 g/m*3 9 C 0 km/h
Sensor: Nr:Datum:Temp:Abs-Feuchte:Windchill:Wind:
Aussen-T/F 1001 30-04-2009 08:14:43 9.1 C 7.45 g/m*3 9.1 C 0 km/h
1002 30-04-2009 08:26:43 9.3 C 7.55 g/m*3 9.3 C 0 km/h
1003 30-04-2009 08:38:43 9.6 C 7.6 g/m*3 9.6 C 0 km/h
1004 30-04-2009 08:50:44 9.8 C 7.52 g/m*3 9.8 C 0 km/h
1005 30-04-2009 09:02:43 9.8 C 7.42 g/m*3 9.8 C 0 km/h
1006 30-04-2009 09:14:43 10.1 C 7.47 g/m*3 10.1 C 0 km/h
1007 30-04-2009 09:26:43 10.3 C 7.47 g/m*3 10.3 C 0 km/h
1008 30-04-2009 09:38:44 10.6 C 7.52 g/m*3 10.6 C 0 km/h
1009 30-04-2009 09:50:43 10.8 C 7.41 g/m*3 10.8 C 0 km/h
1010 30-04-2009 10:02:43 11 C 7.41 g/m*3 11 C 0 km/h
1011 30-04-2009 10:14:42 11.2 C 7.5 g/m*3 11.2 C 0 km/h
1012 30-04-2009 10:26:42 11.4 C 7.49 g/m*3 11.4 C 0 km/h
1013 30-04-2009 10:38:43 11.7 C 7.53 g/m*3 11.7 C 0 km/h
1014 30-04-2009 10:50:42 12 C 7.46 g/m*3 12 C 0 km/h
1015 30-04-2009 11:02:42 12.2 C 7.45 g/m*3 12.2 C 0 km/h
1016 30-04-2009 11:14:42 12.4 C 7.65 g/m*3 12.4 C 0 km/h
1017 30-04-2009 11:26:42 12.6 C 7.63 g/m*3 12.6 C 0 km/h
1018 30-04-2009 11:38:42 12.8 C 7.73 g/m*3 12.8 C 0 km/h
1019 30-04-2009 11:50:41 13.2 C 7.69 g/m*3 13.2 C 0 km/h
1020 30-04-2009 12:02:42 13.4 C 7.56 g/m*3 13.4 C 0 km/h
1021 30-04-2009 12:14:42 13.8 C 7.63 g/m*3 13.8 C 0 km/h
1022 30-04-2009 12:26:42 13.8 C 7.39 g/m*3 13.8 C 0 km/h
1023 30-04-2009 12:38:41 14.2 C 7.45 g/m*3 14.2 C 0 km/h
1024 30-04-2009 12:50:42 15 C 7.44 g/m*3 15 C 0 km/h
1025 30-04-2009 13:02:41 15.3 C 7.31 g/m*3 15.3 C 0 km/h
Sensor: Nr:Datum:Temp:Abs-Feuchte:Windchill:Wind:
Aussen-T/F 1026 30-04-2009 13:14:41 16.1 C 7.13 g/m*3 16.1 C 0 km/h
1027 30-04-2009 13:26:41 16.1 C 6.72 g/m*3 16.1 C 0 km/h
1028 30-04-2009 13:38:41 16.9 C 6.9 g/m*3 16.9 C 0 km/h
1029 30-04-2009 13:50:41 18.1 C 6.49 g/m*3 18.1 C 0 km/h
1030 30-04-2009 14:02:40 18.1 C 6.33 g/m*3 18.1 C 0 km/h
1031 30-04-2009 14:14:40 18 C 6.3 g/m*3 18 C 0 km/h
1032 30-04-2009 14:26:40 19.1 C 6.23 g/m*3 19.1 C 0 km/h
1033 30-04-2009 14:38:40 19 C 6.36 g/m*3 19 C 0 km/h
1034 30-04-2009 14:50:40 17.8 C 6.53 g/m*3 17.8 C 0 km/h
1035 30-04-2009 15:02:40 17.9 C 6.57 g/m*3 17.9 C 0 km/h
1036 30-04-2009 15:14:40 18 C 6.45 g/m*3 18 C 0 km/h
1037 30-04-2009 15:26:40 18.4 C 6.45 g/m*3 18.4 C 0 km/h
1038 30-04-2009 15:38:40 18 C 6.6 g/m*3 18 C 0 km/h
1039 30-04-2009 15:50:39 17.6 C 6.75 g/m*3 17.6 C 0 km/h
1040 30-04-2009 16:02:40 17.6 C 6.6 g/m*3 17.6 C 0 km/h
1041 30-04-2009 16:14:39 17.8 C 6.37 g/m*3 17.8 C 0 km/h
1042 30-04-2009 16:26:39 17.9 C 6.57 g/m*3 17.9 C 0 km/h
1043 30-04-2009 16:38:39 18.1 C 6.64 g/m*3 18.1 C 0 km/h
1044 30-04-2009 16:50:39 18.3 C 6.57 g/m*3 18.3 C 0 km/h
1045 30-04-2009 17:02:39 18.9 C 6.64 g/m*3 18.9 C 0 km/h
1046 30-04-2009 17:14:38 18.9 C 6.64 g/m*3 18.9 C 0 km/h
1047 30-04-2009 17:26:38 18.3 C 6.41 g/m*3 18.3 C 0 km/h
1048 30-04-2009 17:38:39 18.1 C 6.49 g/m*3 18.1 C 0 km/h
1049 30-04-2009 17:50:38 18 C 6.45 g/m*3 18 C 0 km/h
1050 30-04-2009 18:02:38 17.9 C 6.72 g/m*3 17.9 C 0 km/h
Sensor: Nr:Datum:Temp:Abs-Feuchte:Windchill:Wind:
Aussen-T/F 1051 30-04-2009 18:14:39 18.1 C 6.49 g/m*3 18.1 C 0 km/h
1052 30-04-2009 18:26:39 17.9 C 6.57 g/m*3 17.9 C 0 km/h
1053 30-04-2009 18:38:38 17.7 C 6.79 g/m*3 17.7 C 0 km/h
1054 30-04-2009 18:50:38 17.9 C 6.87 g/m*3 17.9 C 0 km/h
1055 30-04-2009 19:02:37 18.7 C 6.72 g/m*3 18.7 C 0 km/h
1056 30-04-2009 19:14:38 19.3 C 6.63 g/m*3 19.3 C 0 km/h
1057 30-04-2009 19:26:39 19.5 C 6.71 g/m*3 19.5 C 0 km/h
1058 30-04-2009 19:38:37 19.1 C 6.88 g/m*3 19.1 C 0 km/h
1059 30-04-2009 19:50:37 18.5 C 6.8 g/m*3 18.5 C 0 km/h
1060 30-04-2009 20:02:37 18.2 C 7.15 g/m*3 18.2 C 0 km/h
1061 30-04-2009 20:14:37 17.6 C 7.5 g/m*3 17.6 C 0 km/h
1062 30-04-2009 20:26:37 16.5 C 7.44 g/m*3 16.5 C 0 km/h
1063 30-04-2009 20:38:37 15.7 C 7.63 g/m*3 15.7 C 0 km/h
1064 30-04-2009 20:50:37 14.9 C 7.52 g/m*3 14.9 C 0 km/h
1065 30-04-2009 21:02:36 14.1 C 7.28 g/m*3 14.1 C 0 km/h
1066 30-04-2009 21:14:37 13.8 C 7.51 g/m*3 13.8 C 0 km/h
1067 30-04-2009 21:26:37 13.9 C 7.55 g/m*3 13.9 C 0 km/h
1068 30-04-2009 21:38:36 13.9 C 7.67 g/m*3 13.9 C 0 km/h
1069 30-04-2009 21:50:36 13.8 C 7.74 g/m*3 13.8 C 0 km/h
1070 30-04-2009 22:02:36 13.7 C 7.82 g/m*3 13.7 C 0 km/h
1071 30-04-2009 22:14:36 13.6 C 7.77 g/m*3 13.6 C 0 km/h
1072 30-04-2009 22:26:36 13.5 C 7.95 g/m*3 13.5 C 0 km/h
1073 30-04-2009 22:39:30 13.3 C 7.97 g/m*3 13.3 C 0 km/h
1074 30-04-2009 22:51:30 13 C 7.94 g/m*3 13 C 0 km/h
1075 30-04-2009 23:03:30 12.8 C 7.95 g/m*3 12.8 C 0 km/h
Sensor: Nr:Datum:Temp:Abs-Feuchte:Windchill:Wind:
Aussen-T/F 1076 30-04-2009 23:15:30 12.6 C 7.85 g/m*3 12.6 C 0 km/h
1077 30-04-2009 23:27:30 12.4 C 7.87 g/m*3 12.4 C 0 km/h
1078 30-04-2009 23:39:30 12.3 C 7.93 g/m*3 12.3 C 0 km/h
1079 30-04-2009 23:51:30 12.1 C 7.83 g/m*3 12.1 C 0 km/h
1080 01-05-2009 00:03:30 11.9 C 7.94 g/m*3 11.9 C 0 km/h
1081 01-05-2009 00:15:31 11.7 C 7.95 g/m*3 11.7 C 0 km/h
1082 01-05-2009 00:27:31 11.5 C 7.85 g/m*3 11.5 C 0 km/h
1083 01-05-2009 00:39:31 11.3 C 7.85 g/m*3 11.3 C 0 km/h
1084 01-05-2009 00:51:31 11.2 C 7.8 g/m*3 11.2 C 0 km/h
1085 01-05-2009 01:03:31 11 C 7.71 g/m*3 11 C 0 km/h
1086 01-05-2009 01:15:31 10.9 C 7.76 g/m*3 10.9 C 0 km/h
1087 01-05-2009 01:27:31 10.7 C 7.66 g/m*3 10.7 C 0 km/h
1088 01-05-2009 01:39:31 10.5 C 7.66 g/m*3 10.5 C 0 km/h
1089 01-05-2009 01:51:31 10.4 C 7.61 g/m*3 10.4 C 0 km/h
1090 01-05-2009 02:03:31 10.2 C 7.61 g/m*3 10.2 C 0 km/h
1091 01-05-2009 02:15:31 10 C 7.52 g/m*3 10 C 0 km/h
1092 01-05-2009 02:27:31 9.9 C 7.66 g/m*3 9.9 C 0 km/h
1093 01-05-2009 02:39:31 9.8 C 7.7 g/m*3 9.8 C 0 km/h
1094 01-05-2009 02:51:31 9.7 C 7.65 g/m*3 9.7 C 0 km/h
1095 01-05-2009 03:03:31 9.5 C 7.65 g/m*3 9.5 C 0 km/h
1096 01-05-2009 03:15:31 9.3 C 7.55 g/m*3 9.3 C 0 km/h
1097 01-05-2009 03:27:31 9.3 C 7.64 g/m*3 9.3 C 0 km/h
1098 01-05-2009 03:39:31 9.2 C 7.59 g/m*3 9.2 C 0 km/h
1099 01-05-2009 03:51:31 9 C 7.49 g/m*3 9 C 0 km/h
1100 01-05-2009 04:03:32 8.8 C 7.49 g/m*3 8.8 C 0 km/h
Sensor: Nr:Datum:Temp:Abs-Feuchte:Windchill:Wind:
Aussen-T/F 1101 01-05-2009 04:15:32 8.7 C 7.44 g/m*3 8.7 C 0 km/h
1102 01-05-2009 04:27:32 8.6 C 7.39 g/m*3 8.6 C 0 km/h
1103 01-05-2009 04:39:32 8.4 C 7.3 g/m*3 8.4 C 0 km/h
1104 01-05-2009 04:51:32 8.3 C 7.33 g/m*3 8.3 C 0 km/h
1105 01-05-2009 05:03:32 8.1 C 7.24 g/m*3 8.1 C 0 km/h
1106 01-05-2009 05:15:32 8.1 C 7.32 g/m*3 8.1 C 0 km/h
1107 01-05-2009 05:27:32 8 C 7.36 g/m*3 8 C 0 km/h
1108 01-05-2009 05:39:32 8.2 C 7.45 g/m*3 8.2 C 0 km/h
1109 01-05-2009 05:51:32 8.3 C 7.59 g/m*3 8.3 C 0 km/h
1110 01-05-2009 06:03:32 8.2 C 7.54 g/m*3 8.2 C 0 km/h
1111 01-05-2009 06:15:32 8.2 C 7.54 g/m*3 8.2 C 0 km/h
1112 01-05-2009 06:27:32 8 C 7.36 g/m*3 8 C 0 km/h
1113 01-05-2009 06:39:32 8 C 7.44 g/m*3 8 C 0 km/h
1114 01-05-2009 06:51:32 8 C 7.44 g/m*3 8 C 0 km/h
1115 01-05-2009 07:03:32 8 C 7.44 g/m*3 8 C 0 km/h
1116 01-05-2009 07:15:32 8 C 7.52 g/m*3 8 C 0 km/h
1117 01-05-2009 07:27:32 8.2 C 7.62 g/m*3 8.2 C 0 km/h
1118 01-05-2009 07:39:32 8.3 C 7.67 g/m*3 8.3 C 0 km/h
1119 01-05-2009 07:51:36 8.5 C 7.77 g/m*3 8.5 C 0 km/h
1120 01-05-2009 08:03:36 8.6 C 7.73 g/m*3 8.6 C 0 km/h
1121 01-05-2009 08:15:36 9 C 7.85 g/m*3 9 C 0 km/h
1122 01-05-2009 08:27:36 9 C 7.76 g/m*3 9 C 0 km/h
1123 01-05-2009 08:39:36 9.3 C 8 g/m*3 9.3 C 0 km/h
1124 01-05-2009 08:51:36 9.7 C 8.11 g/m*3 9.7 C 0 km/h
1125 01-05-2009 09:03:36 9.7 C 8.02 g/m*3 9.7 C 0 km/h
Sensor: Nr:Datum:Temp:Abs-Feuchte:Windchill:Wind:
Aussen-T/F 1126 01-05-2009 09:15:35 9.9 C 8.12 g/m*3 9.9 C 0 km/h
1127 01-05-2009 09:27:35 10.9 C 8.45 g/m*3 10.9 C 0 km/h
1128 01-05-2009 09:39:36 11.7 C 8.47 g/m*3 11.7 C 0 km/h
1129 01-05-2009 09:51:35 11.6 C 8 g/m*3 11.6 C 0 km/h
1130 01-05-2009 10:03:35 11.5 C 7.95 g/m*3 11.5 C 0 km/h
1131 01-05-2009 10:15:35 11.6 C 8.11 g/m*3 11.6 C 0 km/h
1132 01-05-2009 10:27:35 12.2 C 8.2 g/m*3 12.2 C 0 km/h
1133 01-05-2009 10:39:35 13.2 C 8.5 g/m*3 13.2 C 0 km/h
1134 01-05-2009 10:51:34 14 C 8.44 g/m*3 14 C 0 km/h
1135 01-05-2009 11:03:35 14.9 C 8.79 g/m*3 14.9 C 0 km/h
1136 01-05-2009 11:15:35 15.9 C 8.67 g/m*3 15.9 C 0 km/h
1137 01-05-2009 11:27:35 16.6 C 8.76 g/m*3 16.6 C 0 km/h
1138 01-05-2009 11:39:34 17.2 C 8.79 g/m*3 17.2 C 0 km/h
1139 01-05-2009 11:51:35 18 C 8.75 g/m*3 18 C 0 km/h
1140 01-05-2009 12:03:34 18.4 C 8.34 g/m*3 18.4 C 0 km/h
1141 01-05-2009 12:15:34 19.2 C 8.57 g/m*3 19.2 C 0 km/h
1142 01-05-2009 12:27:34 19.5 C 7.89 g/m*3 19.5 C 0 km/h
1143 01-05-2009 12:39:33 19.3 C 7.46 g/m*3 19.3 C 0 km/h
1144 01-05-2009 12:51:34 20.1 C 7.65 g/m*3 20.1 C 0 km/h
1145 01-05-2009 13:03:33 21.6 C 7.21 g/m*3 21.6 C 0 km/h
1146 01-05-2009 13:15:33 21.5 C 6.79 g/m*3 21.5 C 0 km/h
1147 01-05-2009 13:27:33 22.7 C 6.87 g/m*3 22.7 C 0 km/h
1148 01-05-2009 13:39:34 23.6 C 6.81 g/m*3 23.6 C 0 km/h
1149 01-05-2009 13:51:33 23.3 C 6.27 g/m*3 23.3 C 0 km/h
1150 01-05-2009 14:03:33 23.4 C 6.31 g/m*3 23.4 C 0 km/h
Sensor: Nr:Datum:Temp:Abs-Feuchte:Windchill:Wind:
Aussen-T/F 1151 01-05-2009 14:15:33 23.7 C 6.2 g/m*3 23.7 C 0 km/h
1152 01-05-2009 14:27:33 23.3 C 6.27 g/m*3 23.3 C 0 km/h
1153 01-05-2009 14:39:33 24.9 C 6.41 g/m*3 24.9 C 0 km/h
1154 01-05-2009 14:51:32 24.2 C 5.94 g/m*3 24.2 C 0 km/h
1155 01-05-2009 15:03:33 25.8 C 6.02 g/m*3 25.8 C 0 km/h
1156 01-05-2009 15:15:32 24.8 C 5.92 g/m*3 24.8 C 0 km/h
1157 01-05-2009 15:27:32 25 C 5.75 g/m*3 25 C 0 km/h
1158 01-05-2009 15:39:32 26.5 C 6.26 g/m*3 26.5 C 0 km/h
1159 01-05-2009 15:51:31 25.3 C 5.85 g/m*3 25.3 C 0 km/h
1160 01-05-2009 16:03:32 26.4 C 5.23 g/m*3 26.4 C 0 km/h
1161 01-05-2009 16:15:32 27.1 C 5.43 g/m*3 27.1 C 0 km/h
1162 01-05-2009 16:27:32 27.7 C 5.62 g/m*3 27.7 C 0 km/h
1163 01-05-2009 16:39:31 26.4 C 5.23 g/m*3 26.4 C 0 km/h
1164 01-05-2009 16:51:32 26.4 C 5.23 g/m*3 26.4 C 0 km/h
1165 01-05-2009 17:03:31 26.9 C 5.37 g/m*3 26.9 C 0 km/h
1166 01-05-2009 17:15:31 25.6 C 4.76 g/m*3 25.6 C 0 km/h
1167 01-05-2009 17:27:32 26.8 C 5.09 g/m*3 26.8 C 0 km/h
1168 01-05-2009 17:39:31 26 C 4.87 g/m*3 26 C 0 km/h
1169 01-05-2009 17:51:31 25.5 C 5.21 g/m*3 25.5 C 0 km/h
1170 01-05-2009 18:03:30 26.6 C 5.29 g/m*3 26.6 C 0 km/h
1171 01-05-2009 18:15:30 26.9 C 5.37 g/m*3 26.9 C 0 km/h
1172 01-05-2009 18:27:30 26.3 C 5.2 g/m*3 26.3 C 0 km/h
1173 01-05-2009 18:39:31 25.4 C 5.18 g/m*3 25.4 C 0 km/h
1174 01-05-2009 18:51:30 25.8 C 5.54 g/m*3 25.8 C 0 km/h
1175 01-05-2009 19:03:30 25 C 5.29 g/m*3 25 C 0 km/h
Sensor: Nr:Datum:Temp:Abs-Feuchte:Windchill:Wind:
Aussen-T/F 1176 01-05-2009 19:15:30 25.4 C 5.41 g/m*3 25.4 C 0 km/h
1177 01-05-2009 19:27:30 24.9 C 5.49 g/m*3 24.9 C 0 km/h
1178 01-05-2009 19:39:30 24.8 C 5.69 g/m*3 24.8 C 0 km/h
1179 01-05-2009 19:51:29 23.9 C 5.84 g/m*3 23.9 C 0 km/h
1180 01-05-2009 20:03:30 22.9 C 6.34 g/m*3 22.9 C 0 km/h
1181 01-05-2009 20:15:29 22.6 C 7.23 g/m*3 22.6 C 0 km/h
1182 01-05-2009 20:27:29 21.5 C 7.35 g/m*3 21.5 C 0 km/h
1183 01-05-2009 20:39:29 20.7 C 7.56 g/m*3 20.7 C 0 km/h
1184 01-05-2009 20:51:30 19.7 C 7.13 g/m*3 19.7 C 0 km/h
1185 01-05-2009 21:03:29 19 C 7.01 g/m*3 19 C 0 km/h
1186 01-05-2009 21:15:28 18.5 C 7.12 g/m*3 18.5 C 0 km/h
1187 01-05-2009 21:27:28 18.2 C 7.15 g/m*3 18.2 C 0 km/h
1188 01-05-2009 21:39:29 17.8 C 7.29 g/m*3 17.8 C 0 km/h
1189 01-05-2009 21:51:28 17.6 C 7.2 g/m*3 17.6 C 0 km/h
1190 01-05-2009 22:03:28 17.4 C 7.11 g/m*3 17.4 C 0 km/h
1191 01-05-2009 22:15:29 17 C 7.38 g/m*3 17 C 0 km/h
1192 01-05-2009 22:27:29 16.6 C 7.49 g/m*3 16.6 C 0 km/h
1193 01-05-2009 22:40:28 16.8 C 7.43 g/m*3 16.8 C 0 km/h
1194 01-05-2009 22:52:28 16.2 C 7.17 g/m*3 16.2 C 0 km/h
1195 01-05-2009 23:04:29 15.8 C 7.4 g/m*3 15.8 C 0 km/h
1196 01-05-2009 23:16:29 15.5 C 7.4 g/m*3 15.5 C 0 km/h
1197 01-05-2009 23:28:29 15.1 C 7.48 g/m*3 15.1 C 0 km/h
1198 01-05-2009 23:40:29 14.9 C 7.65 g/m*3 14.9 C 0 km/h
1199 01-05-2009 23:52:29 14.6 C 7.76 g/m*3 14.6 C 0 km/h
1200 02-05-2009 00:04:29 14.4 C 7.91 g/m*3 14.4 C 0 km/h
Sensor: Nr:Datum:Temp:Abs-Feuchte:Windchill:Wind:
Aussen-T/F 1201 02-05-2009 00:16:29 14.2 C 7.94 g/m*3 14.2 C 0 km/h
1202 02-05-2009 00:28:29 14.2 C 7.94 g/m*3 14.2 C 0 km/h
1203 02-05-2009 00:40:29 13.9 C 8.15 g/m*3 13.9 C 0 km/h
1204 02-05-2009 00:52:29 13.7 C 8.17 g/m*3 13.7 C 0 km/h
1205 02-05-2009 01:04:29 13.3 C 8.09 g/m*3 13.3 C 0 km/h
1206 02-05-2009 01:16:29 13.1 C 8.1 g/m*3 13.1 C 0 km/h
1207 02-05-2009 01:28:29 12.9 C 8.23 g/m*3 12.9 C 0 km/h
1208 02-05-2009 01:40:29 12.7 C 8.24 g/m*3 12.7 C 0 km/h
1209 02-05-2009 01:52:29 12.5 C 8.14 g/m*3 12.5 C 0 km/h
1210 02-05-2009 02:04:29 12.4 C 8.19 g/m*3 12.4 C 0 km/h
1211 02-05-2009 02:16:29 12.2 C 8.09 g/m*3 12.2 C 0 km/h
1212 02-05-2009 02:28:29 12.1 C 8.15 g/m*3 12.1 C 0 km/h
1213 02-05-2009 02:40:29 12 C 8.1 g/m*3 12 C 0 km/h
1214 02-05-2009 02:52:30 11.9 C 8.15 g/m*3 11.9 C 0 km/h
1215 02-05-2009 03:04:30 11.8 C 8.1 g/m*3 11.8 C 0 km/h
1216 02-05-2009 03:16:30 11.8 C 8.21 g/m*3 11.8 C 0 km/h
1217 02-05-2009 03:28:30 11.3 C 8.06 g/m*3 11.3 C 0 km/h
1218 02-05-2009 03:40:30 11.2 C 8.01 g/m*3 11.2 C 0 km/h
1219 02-05-2009 03:52:30 11 C 8.01 g/m*3 11 C 0 km/h
1220 02-05-2009 04:04:30 10.9 C 8.16 g/m*3 10.9 C 0 km/h
1221 02-05-2009 04:16:30 10.7 C 8.05 g/m*3 10.7 C 0 km/h
1222 02-05-2009 04:28:30 10.6 C 8 g/m*3 10.6 C 0 km/h
1223 02-05-2009 04:40:30 10.6 C 8.1 g/m*3 10.6 C 0 km/h
1224 02-05-2009 04:52:30 10.5 C 8.05 g/m*3 10.5 C 0 km/h
1225 02-05-2009 05:04:30 10.4 C 8 g/m*3 10.4 C 0 km/h
Sensor: Nr:Datum:Temp:Abs-Feuchte:Windchill:Wind:
Aussen-T/F 1226 02-05-2009 05:16:30 10.3 C 7.95 g/m*3 10.3 C 0 km/h
1227 02-05-2009 05:28:30 10.2 C 7.99 g/m*3 10.2 C 0 km/h
1228 02-05-2009 05:40:30 10.2 C 7.99 g/m*3 10.2 C 0 km/h
1229 02-05-2009 05:52:30 10 C 7.89 g/m*3 10 C 0 km/h
1230 02-05-2009 06:04:30 10 C 7.89 g/m*3 10 C 0 km/h
1231 02-05-2009 06:16:30 10 C 7.99 g/m*3 10 C 0 km/h
1232 02-05-2009 06:28:30 10 C 7.99 g/m*3 10 C 0 km/h
1233 02-05-2009 06:40:31 10 C 7.99 g/m*3 10 C 0 km/h
1234 02-05-2009 06:52:31 10.3 C 8.14 g/m*3 10.3 C 0 km/h
1235 02-05-2009 07:04:31 10.6 C 8.2 g/m*3 10.6 C 0 km/h
1236 02-05-2009 07:16:31 11.2 C 8.51 g/m*3 11.2 C 0 km/h
1237 02-05-2009 07:28:31 11.5 C 8.47 g/m*3 11.5 C 0 km/h
1238 02-05-2009 07:40:31 12.2 C 8.63 g/m*3 12.2 C 0 km/h
1239 02-05-2009 07:52:31 12.7 C 8.46 g/m*3 12.7 C 0 km/h
1240 02-05-2009 08:04:28 13.3 C 8.55 g/m*3 13.3 C 0 km/h
1241 02-05-2009 08:16:28 13.5 C 8.19 g/m*3 13.5 C 0 km/h
1242 02-05-2009 08:28:28 13.5 C 8.07 g/m*3 13.5 C 0 km/h
1243 02-05-2009 08:40:27 13.6 C 8 g/m*3 13.6 C 0 km/h
1244 02-05-2009 08:52:27 13.7 C 7.93 g/m*3 13.7 C 0 km/h
1245 02-05-2009 09:04:27 14.1 C 7.89 g/m*3 14.1 C 0 km/h
1246 02-05-2009 09:16:27 14.4 C 7.66 g/m*3 14.4 C 0 km/h
1247 02-05-2009 09:28:27 14.8 C 7.6 g/m*3 14.8 C 0 km/h
1248 02-05-2009 09:40:27 15.2 C 7.66 g/m*3 15.2 C 0 km/h
1249 02-05-2009 09:52:27 15.6 C 7.85 g/m*3 15.6 C 0 km/h
1250 02-05-2009 10:04:26 16.1 C 7.54 g/m*3 16.1 C 0 km/h
Sensor: Nr:Datum:Temp:Abs-Feuchte:Windchill:Wind:
Aussen-T/F 1251 02-05-2009 10:16:27 16.1 C 7.68 g/m*3 16.1 C 0 km/h
1252 02-05-2009 10:28:27 16.8 C 7.72 g/m*3 16.8 C 0 km/h
1253 02-05-2009 10:40:26 17.5 C 7.6 g/m*3 17.5 C 0 km/h
1254 02-05-2009 10:52:26 18.3 C 7.66 g/m*3 18.3 C 0 km/h
1255 02-05-2009 11:04:26 18.1 C 7.42 g/m*3 18.1 C 0 km/h
1256 02-05-2009 11:16:26 17.3 C 7.51 g/m*3 17.3 C 0 km/h
1257 02-05-2009 11:28:26 18.1 C 7.57 g/m*3 18.1 C 0 km/h
1258 02-05-2009 11:40:26 17.3 C 7.37 g/m*3 17.3 C 0 km/h
1259 02-05-2009 11:52:26 18.5 C 7.91 g/m*3 18.5 C 0 km/h
1260 02-05-2009 12:04:26 18.8 C 7.41 g/m*3 18.8 C 0 km/h
1261 02-05-2009 12:16:25 18.9 C 7.78 g/m*3 18.9 C 0 km/h
1262 02-05-2009 12:28:25 20 C 7.6 g/m*3 20 C 0 km/h
1263 02-05-2009 12:40:25 20 C 7.6 g/m*3 20 C 0 km/h
1264 02-05-2009 12:52:25 21.5 C 7.73 g/m*3 21.5 C 0 km/h
1265 02-05-2009 13:04:25 21.9 C 7.72 g/m*3 21.9 C 0 km/h
1266 02-05-2009 13:16:25 22.3 C 7.11 g/m*3 22.3 C 0 km/h
1267 02-05-2009 13:28:25 23 C 6.78 g/m*3 23 C 0 km/h
1268 02-05-2009 13:40:25 22.3 C 6.91 g/m*3 22.3 C 0 km/h
1269 02-05-2009 13:52:25 22.8 C 6.5 g/m*3 22.8 C 0 km/h
1270 02-05-2009 14:04:24 22.3 C 6.12 g/m*3 22.3 C 0 km/h
1271 02-05-2009 14:16:25 22.8 C 6.5 g/m*3 22.8 C 0 km/h
1272 02-05-2009 14:28:25 22.7 C 6.47 g/m*3 22.7 C 0 km/h
1273 02-05-2009 14:40:24 23.1 C 6.61 g/m*3 23.1 C 0 km/h
1274 02-05-2009 14:52:24 23.9 C 6.06 g/m*3 23.9 C 0 km/h
1275 02-05-2009 15:04:24 24 C 5.87 g/m*3 24 C 0 km/h
Sensor: Nr:Datum:Temp:Abs-Feuchte:Windchill:Wind:
Aussen-T/F 1276 02-05-2009 15:16:24 23.8 C 5.81 g/m*3 23.8 C 0 km/h
1277 02-05-2009 15:28:24 24.7 C 5.66 g/m*3 24.7 C 0 km/h
1278 02-05-2009 15:40:24 25.8 C 5.78 g/m*3 25.8 C 0 km/h
1279 02-05-2009 15:52:24 24.3 C 5.31 g/m*3 24.3 C 0 km/h
1280 02-05-2009 16:04:24 26.1 C 5.39 g/m*3 26.1 C 0 km/h
1281 02-05-2009 16:16:23 26.7 C 5.06 g/m*3 26.7 C 0 km/h
1282 02-05-2009 16:28:23 26.7 C 5.06 g/m*3 26.7 C 0 km/h
1283 02-05-2009 16:40:23 25.9 C 4.84 g/m*3 25.9 C 0 km/h
1284 02-05-2009 16:52:23 25.5 C 4.73 g/m*3 25.5 C 0 km/h
1285 02-05-2009 17:04:23 26.1 C 4.9 g/m*3 26.1 C 0 km/h
1286 02-05-2009 17:16:22 27.3 C 5.23 g/m*3 27.3 C 0 km/h
1287 02-05-2009 17:28:22 27.6 C 5.32 g/m*3 27.6 C 0 km/h
1288 02-05-2009 17:40:23 26.8 C 5.09 g/m*3 26.8 C 0 km/h
1289 02-05-2009 17:52:22 26.6 C 5.03 g/m*3 26.6 C 0 km/h
1290 02-05-2009 18:04:22 26.3 C 4.95 g/m*3 26.3 C 0 km/h
1291 02-05-2009 18:16:23 27 C 5.15 g/m*3 27 C 0 km/h
1292 02-05-2009 18:28:23 27.1 C 5.18 g/m*3 27.1 C 0 km/h
1293 02-05-2009 18:40:22 25.9 C 4.84 g/m*3 25.9 C 0 km/h
1294 02-05-2009 18:52:22 26.9 C 5.12 g/m*3 26.9 C 0 km/h
1295 02-05-2009 19:04:22 26 C 4.87 g/m*3 26 C 0 km/h
1296 02-05-2009 19:16:22 24.1 C 4.38 g/m*3 24.1 C 0 km/h
1297 02-05-2009 19:28:22 24.5 C 4.7 g/m*3 24.5 C 0 km/h
1298 02-05-2009 19:40:21 23.9 C 4.54 g/m*3 23.9 C 0 km/h
1299 02-05-2009 19:52:22 23.2 C 4.99 g/m*3 23.2 C 0 km/h
1300 02-05-2009 20:04:21 22.9 C 5.11 g/m*3 22.9 C 0 km/h
Sensor: Nr:Datum:Temp:Abs-Feuchte:Windchill:Wind:
Aussen-T/F 1301 02-05-2009 20:16:21 22.5 C 5.59 g/m*3 22.5 C 0 km/h
1302 02-05-2009 20:28:21 21.8 C 5.76 g/m*3 21.8 C 0 km/h
1303 02-05-2009 20:40:21 21 C 5.5 g/m*3 21 C 0 km/h
1304 02-05-2009 20:52:21 20.3 C 5.45 g/m*3 20.3 C 0 km/h
1305 02-05-2009 21:04:21 19.6 C 5.57 g/m*3 19.6 C 0 km/h
1306 02-05-2009 21:16:20 18.7 C 5.6 g/m*3 18.7 C 0 km/h
1307 02-05-2009 21:28:20 17.9 C 5.5 g/m*3 17.9 C 0 km/h
1308 02-05-2009 21:40:20 17.6 C 5.55 g/m*3 17.6 C 0 km/h
1309 02-05-2009 21:52:20 17.2 C 5.71 g/m*3 17.2 C 0 km/h
1310 02-05-2009 22:04:20 16.9 C 5.75 g/m*3 16.9 C 0 km/h
1311 02-05-2009 22:16:20 16.7 C 5.83 g/m*3 16.7 C 0 km/h
1312 02-05-2009 22:28:20 16.8 C 6 g/m*3 16.8 C 0 km/h
1313 02-05-2009 22:41:22 16.5 C 6.18 g/m*3 16.5 C 0 km/h
1314 02-05-2009 22:53:22 16.4 C 6.28 g/m*3 16.4 C 0 km/h
1315 02-05-2009 23:05:22 16.1 C 6.44 g/m*3 16.1 C 0 km/h
1316 02-05-2009 23:17:22 16 C 6.54 g/m*3 16 C 0 km/h
1317 02-05-2009 23:29:22 16 C 6.4 g/m*3 16 C 0 km/h
1318 02-05-2009 23:41:22 15.6 C 6.52 g/m*3 15.6 C 0 km/h
1319 02-05-2009 23:53:22 15.3 C 6.66 g/m*3 15.3 C 0 km/h
1320 03-05-2009 00:05:22 14.9 C 6.75 g/m*3 14.9 C 0 km/h
1321 03-05-2009 00:17:22 14.6 C 6.88 g/m*3 14.6 C 0 km/h
1322 03-05-2009 00:29:22 14.4 C 6.92 g/m*3 14.4 C 0 km/h
1323 03-05-2009 00:41:22 13.9 C 7.07 g/m*3 13.9 C 0 km/h
1324 03-05-2009 00:53:22 13.2 C 7 g/m*3 13.2 C 0 km/h
1325 03-05-2009 01:05:22 13.2 C 7.12 g/m*3 13.2 C 0 km/h
Sensor: Nr:Datum:Temp:Abs-Feuchte:Windchill:Wind:
Aussen-T/F 1326 03-05-2009 01:17:22 13.2 C 7.23 g/m*3 13.2 C 0 km/h
1327 03-05-2009 01:29:22 12.9 C 7.33 g/m*3 12.9 C 0 km/h
1328 03-05-2009 01:41:22 12.6 C 7.3 g/m*3 12.6 C 0 km/h
1329 03-05-2009 01:53:23 12.4 C 7.32 g/m*3 12.4 C 0 km/h
1330 03-05-2009 02:05:23 12.2 C 7.34 g/m*3 12.2 C 0 km/h
1331 03-05-2009 02:17:23 12.2 C 7.34 g/m*3 12.2 C 0 km/h
1332 03-05-2009 02:29:23 12 C 7.35 g/m*3 12 C 0 km/h
1333 03-05-2009 02:41:23 11.8 C 7.37 g/m*3 11.8 C 0 km/h
1334 03-05-2009 02:53:23 11.8 C 7.47 g/m*3 11.8 C 0 km/h
1335 03-05-2009 03:05:23 11.4 C 7.39 g/m*3 11.4 C 0 km/h
1336 03-05-2009 03:17:23 11.2 C 7.4 g/m*3 11.2 C 0 km/h
1337 03-05-2009 03:29:23 10.9 C 7.36 g/m*3 10.9 C 0 km/h
1338 03-05-2009 03:41:23 10.8 C 7.41 g/m*3 10.8 C 0 km/h
1339 03-05-2009 03:53:23 10.6 C 7.42 g/m*3 10.6 C 0 km/h
1340 03-05-2009 04:05:23 10.5 C 7.37 g/m*3 10.5 C 0 km/h
1341 03-05-2009 04:17:23 10.2 C 7.33 g/m*3 10.2 C 0 km/h
1342 03-05-2009 04:29:23 9.9 C 7.38 g/m*3 9.9 C 0 km/h
1343 03-05-2009 04:41:23 9.9 C 7.38 g/m*3 9.9 C 0 km/h
1344 03-05-2009 04:53:23 9.8 C 7.33 g/m*3 9.8 C 0 km/h
1345 03-05-2009 05:05:23 9.7 C 7.38 g/m*3 9.7 C 0 km/h
1346 03-05-2009 05:17:23 9.3 C 7.19 g/m*3 9.3 C 0 km/h
1347 03-05-2009 05:29:23 9.1 C 7.19 g/m*3 9.1 C 0 km/h
1348 03-05-2009 05:41:23 9.1 C 7.19 g/m*3 9.1 C 0 km/h
1349 03-05-2009 05:53:24 9 C 7.23 g/m*3 9 C 0 km/h
1350 03-05-2009 06:05:24 9.1 C 7.28 g/m*3 9.1 C 0 km/h
Sensor: Nr:Datum:Temp:Abs-Feuchte:Windchill:Wind:
Aussen-T/F 1351 03-05-2009 06:17:24 9.5 C 7.46 g/m*3 9.5 C 0 km/h
1352 03-05-2009 06:29:24 9.6 C 7.42 g/m*3 9.6 C 0 km/h
1353 03-05-2009 06:41:24 9.5 C 7.28 g/m*3 9.5 C 0 km/h
1354 03-05-2009 06:53:24 9.6 C 7.42 g/m*3 9.6 C 0 km/h
1355 03-05-2009 07:05:24 9.8 C 7.42 g/m*3 9.8 C 0 km/h
1356 03-05-2009 07:17:24 10.1 C 7.38 g/m*3 10.1 C 0 km/h
1357 03-05-2009 07:29:24 9.9 C 7.38 g/m*3 9.9 C 0 km/h
1358 03-05-2009 07:41:24 9.9 C 7.47 g/m*3 9.9 C 0 km/h
1359 03-05-2009 07:53:24 10.3 C 7.47 g/m*3 10.3 C 0 km/h
1360 03-05-2009 08:05:21 10.6 C 7.52 g/m*3 10.6 C 0 km/h
1361 03-05-2009 08:17:20 11.1 C 7.55 g/m*3 11.1 C 0 km/h
1362 03-05-2009 08:29:20 11.5 C 7.54 g/m*3 11.5 C 0 km/h
1363 03-05-2009 08:41:20 11.6 C 7.59 g/m*3 11.6 C 0 km/h
1364 03-05-2009 08:53:21 12 C 7.57 g/m*3 12 C 0 km/h
1365 03-05-2009 09:05:20 12.2 C 7.66 g/m*3 12.2 C 0 km/h
1366 03-05-2009 09:17:20 12.9 C 7.89 g/m*3 12.9 C 0 km/h
1367 03-05-2009 09:29:20 13.1 C 7.76 g/m*3 13.1 C 0 km/h
1368 03-05-2009 09:41:21 13.7 C 7.93 g/m*3 13.7 C 0 km/h
1369 03-05-2009 09:53:20 14.1 C 8.01 g/m*3 14.1 C 0 km/h
1370 03-05-2009 10:05:20 14.6 C 8.01 g/m*3 14.6 C 0 km/h
1371 03-05-2009 10:17:20 14.9 C 8.03 g/m*3 14.9 C 0 km/h
1372 03-05-2009 10:29:20 15.4 C 8.15 g/m*3 15.4 C 0 km/h
1373 03-05-2009 10:41:20 16.8 C 8.44 g/m*3 16.8 C 0 km/h
1374 03-05-2009 10:53:19 17.3 C 8.1 g/m*3 17.3 C 0 km/h
1375 03-05-2009 11:05:20 17.5 C 8.05 g/m*3 17.5 C 0 km/h
Sensor: Nr:Datum:Temp:Abs-Feuchte:Windchill:Wind:
Aussen-T/F 1376 03-05-2009 11:17:19 17.8 C 8.04 g/m*3 17.8 C 0 km/h
1377 03-05-2009 11:29:19 18.4 C 8.02 g/m*3 18.4 C 0 km/h
1378 03-05-2009 11:41:19 18.9 C 7.78 g/m*3 18.9 C 0 km/h
1379 03-05-2009 11:53:18 19 C 7.99 g/m*3 19 C 0 km/h
1380 03-05-2009 12:05:19 19.4 C 7.67 g/m*3 19.4 C 0 km/h
1381 03-05-2009 12:17:19 19.9 C 7.56 g/m*3 19.9 C 0 km/h
1382 03-05-2009 12:29:19 20.2 C 7.52 g/m*3 20.2 C 0 km/h
1383 03-05-2009 12:41:18 20.7 C 7.56 g/m*3 20.7 C 0 km/h
1384 03-05-2009 12:53:19 21.4 C 7.5 g/m*3 21.4 C 0 km/h
1385 03-05-2009 13:05:18 22.5 C 7.59 g/m*3 22.5 C 0 km/h
1386 03-05-2009 13:17:18 23.3 C 7.32 g/m*3 23.3 C 0 km/h
1387 03-05-2009 13:29:18 21.7 C 7.44 g/m*3 21.7 C 0 km/h
1388 03-05-2009 13:41:18 22.2 C 7.66 g/m*3 22.2 C 0 km/h
1389 03-05-2009 13:53:18 21.1 C 7.74 g/m*3 21.1 C 0 km/h
1390 03-05-2009 14:05:18 20.6 C 8.23 g/m*3 20.6 C 0 km/h
1391 03-05-2009 14:17:17 19.8 C 8.03 g/m*3 19.8 C 0 km/h
1392 03-05-2009 14:29:17 16.8 C 9.44 g/m*3 16.8 C 0 km/h
1393 03-05-2009 14:41:18 17.3 C 9.72 g/m*3 17.3 C 0 km/h
1394 03-05-2009 14:53:17 18.3 C 8.29 g/m*3 18.3 C 0 km/h
1395 03-05-2009 15:05:17 19 C 8.15 g/m*3 19 C 0 km/h
1396 03-05-2009 15:17:17 18.8 C 7.57 g/m*3 18.8 C 0 km/h
1397 03-05-2009 15:29:17 20.6 C 7.87 g/m*3 20.6 C 0 km/h
1398 03-05-2009 15:41:17 20.9 C 7.47 g/m*3 20.9 C 0 km/h
1399 03-05-2009 15:53:17 20.4 C 7.25 g/m*3 20.4 C 0 km/h
1400 03-05-2009 16:05:02 21.5 C 7.35 g/m*3 21.5 C 0 km/h
Sensor: Nr:Datum:Temp:Abs-Feuchte:Windchill:Wind:
Aussen-T/F 1401 03-05-2009 16:17:02 19.9 C 6.53 g/m*3 19.9 C 0 km/h
1402 03-05-2009 16:29:02 17.1 C 5.68 g/m*3 17.1 C 0 km/h
1403 03-05-2009 16:41:02 16.9 C 5.9 g/m*3 16.9 C 0 km/h
1404 03-05-2009 16:53:02 16.1 C 5.76 g/m*3 16.1 C 0 km/h
1405 03-05-2009 17:05:01 16.2 C 5.79 g/m*3 16.2 C 0 km/h
1406 03-05-2009 17:17:02 16.1 C 5.76 g/m*3 16.1 C 0 km/h
1407 03-05-2009 17:29:02 16.4 C 6.28 g/m*3 16.4 C 0 km/h
1408 03-05-2009 17:41:01 16.4 C 6.28 g/m*3 16.4 C 0 km/h
1409 03-05-2009 17:53:01 16.3 C 5.83 g/m*3 16.3 C 0 km/h
1410 03-05-2009 18:05:01 16.6 C 5.93 g/m*3 16.6 C 0 km/h
1411 03-05-2009 18:17:01 16.6 C 5.51 g/m*3 16.6 C 0 km/h
1412 03-05-2009 18:29:01 17.1 C 5.24 g/m*3 17.1 C 0 km/h
1413 03-05-2009 18:41:01 16.5 C 5.34 g/m*3 16.5 C 0 km/h
1414 03-05-2009 18:53:01 16.5 C 5.34 g/m*3 16.5 C 0 km/h
1415 03-05-2009 19:05:01 17.3 C 5.45 g/m*3 17.3 C 0 km/h
1416 03-05-2009 19:17:00 16.4 C 5.44 g/m*3 16.4 C 0 km/h
1417 03-05-2009 19:29:00 16.1 C 5.62 g/m*3 16.1 C 0 km/h
1418 03-05-2009 19:41:00 16.8 C 5.72 g/m*3 16.8 C 0 km/h
1419 03-05-2009 19:53:00 16.8 C 5.72 g/m*3 16.8 C 0 km/h
1420 03-05-2009 20:05:00 16.1 C 5.35 g/m*3 16.1 C 0 km/h
1421 03-05-2009 20:17:59 15.4 C 5.39 g/m*3 15.4 C 0 km/h
1422 03-05-2009 20:29:59 14.8 C 5.7 g/m*3 14.8 C 0 km/h
1423 03-05-2009 20:41:00 14.5 C 5.72 g/m*3 14.5 C 0 km/h
1424 03-05-2009 20:53:59 14.5 C 5.85 g/m*3 14.5 C 0 km/h
1425 03-05-2009 21:05:59 14.4 C 5.93 g/m*3 14.4 C 0 km/h
Sensor: Nr:Datum:Temp:Abs-Feuchte:Windchill:Wind:
Aussen-T/F 1426 03-05-2009 21:17:59 14.2 C 5.74 g/m*3 14.2 C 0 km/h
1427 03-05-2009 21:29:59 14 C 5.79 g/m*3 14 C 0 km/h
1428 03-05-2009 21:41:59 13.6 C 5.77 g/m*3 13.6 C 0 km/h
1429 03-05-2009 21:53:58 13.5 C 5.61 g/m*3 13.5 C 0 km/h
1430 03-05-2009 22:05:59 13.1 C 5.36 g/m*3 13.1 C 0 km/h
1431 03-05-2009 22:17:59 12.9 C 5.3 g/m*3 12.9 C 0 km/h
1432 03-05-2009 22:29:59 12.7 C 5.12 g/m*3 12.7 C 0 km/h
1433 03-05-2009 22:41:58 12.5 C 5.06 g/m*3 12.5 C 0 km/h
1434 03-05-2009 22:53:59 12.3 C 5.1 g/m*3 12.3 C 0 km/h
1435 03-05-2009 23:05:58 12.2 C 5.07 g/m*3 12.2 C 0 km/h
1436 03-05-2009 23:17:58 12.1 C 5.15 g/m*3 12.1 C 0 km/h
1437 03-05-2009 23:29:58 11.8 C 5.16 g/m*3 11.8 C 0 km/h
1438 03-05-2009 23:41:58 11.7 C 5.23 g/m*3 11.7 C 0 km/h
1439 03-05-2009 23:53:58 11.8 C 5.37 g/m*3 11.8 C 0 km/h
1440 04-05-2009 00:06:59 11.8 C 5.47 g/m*3 11.8 C 0 km/h
1441 04-05-2009 00:18:59 11.5 C 5.47 g/m*3 11.5 C 0 km/h
1442 04-05-2009 00:30:59 11.5 C 5.47 g/m*3 11.5 C 0 km/h
1443 04-05-2009 00:42:59 11.2 C 5.37 g/m*3 11.2 C 0 km/h
1444 04-05-2009 00:54:59 11 C 5.1 g/m*3 11 C 0 km/h
1445 04-05-2009 01:06:59 10.7 C 5.11 g/m*3 10.7 C 0 km/h
1446 04-05-2009 01:18:59 10.6 C 5.17 g/m*3 10.6 C 0 km/h
1447 04-05-2009 01:30:59 10.5 C 4.95 g/m*3 10.5 C 0 km/h
1448 04-05-2009 01:42:59 10.4 C 4.72 g/m*3 10.4 C 0 km/h
1449 04-05-2009 01:54:59 10.2 C 4.66 g/m*3 10.2 C 0 km/h
1450 04-05-2009 02:06:59 10 C 4.51 g/m*3 10 C 0 km/h
Sensor: Nr:Datum:Temp:Abs-Feuchte:Windchill:Wind:
Aussen-T/F 1451 04-05-2009 02:18:59 9.8 C 4.55 g/m*3 9.8 C 0 km/h
1452 04-05-2009 02:30:59 9.7 C 4.61 g/m*3 9.7 C 0 km/h
1453 04-05-2009 02:42:59 9.3 C 4.49 g/m*3 9.3 C 0 km/h
1454 04-05-2009 03:05:59 8.9 C 4.56 g/m*3 8.9 C 0 km/h
1455 04-05-2009 03:17:59 8.6 C 4.55 g/m*3 8.6 C 0 km/h
1456 04-05-2009 03:30:00 8.5 C 4.61 g/m*3 8.5 C 0 km/h
1457 04-05-2009 03:42:00 8.3 C 4.64 g/m*3 8.3 C 0 km/h
1458 04-05-2009 03:54:00 8.2 C 4.69 g/m*3 8.2 C 0 km/h
1459 04-05-2009 04:06:00 8.2 C 4.69 g/m*3 8.2 C 0 km/h
1460 04-05-2009 04:18:00 7.9 C 4.68 g/m*3 7.9 C 0 km/h
1461 04-05-2009 04:30:00 7.8 C 4.82 g/m*3 7.8 C 0 km/h
1462 04-05-2009 04:42:00 7.5 C 4.8 g/m*3 7.5 C 0 km/h
1463 04-05-2009 04:54:00 7.2 C 4.79 g/m*3 7.2 C 0 km/h
1464 04-05-2009 05:06:00 7 C 4.88 g/m*3 7 C 0 km/h
1465 04-05-2009 05:18:00 6.9 C 4.93 g/m*3 6.9 C 0 km/h
1466 04-05-2009 05:30:00 6.8 C 5.05 g/m*3 6.8 C 0 km/h
1467 04-05-2009 05:42:00 7 C 4.96 g/m*3 7 C 0 km/h
1468 04-05-2009 05:54:00 7.3 C 5.06 g/m*3 7.3 C 0 km/h
1469 04-05-2009 06:06:00 7.4 C 5.01 g/m*3 7.4 C 0 km/h
1470 04-05-2009 06:18:00 7.1 C 4.99 g/m*3 7.1 C 0 km/h
1471 04-05-2009 06:30:00 6.9 C 5.16 g/m*3 6.9 C 0 km/h
1472 04-05-2009 06:42:00 6.7 C 5.17 g/m*3 6.7 C 0 km/h
1473 04-05-2009 06:54:00 6.5 C 5.17 g/m*3 6.5 C 0 km/h
1474 04-05-2009 07:06:00 6.4 C 5.22 g/m*3 6.4 C 0 km/h
1475 04-05-2009 07:18:00 7.1 C 5.46 g/m*3 7.1 C 0 km/h
Sensor: Nr:Datum:Temp:Abs-Feuchte:Windchill:Wind:
Aussen-T/F 1476 04-05-2009 07:30:00 7.1 C 5.38 g/m*3 7.1 C 0 km/h
1477 04-05-2009 07:30:58 7 C 5.27 g/m*3 7 C 0 km/h
1478 04-05-2009 07:42:58 7.1 C 5.3 g/m*3 7.1 C 0 km/h
1479 04-05-2009 07:54:58 8.1 C 5.41 g/m*3 8.1 C 0 km/h
1480 04-05-2009 08:06:57 7.9 C 5.42 g/m*3 7.9 C 0 km/h
1481 04-05-2009 08:18:58 7.8 C 5.47 g/m*3 7.8 C 0 km/h
1482 04-05-2009 08:30:58 7.9 C 5.5 g/m*3 7.9 C 0 km/h
1483 04-05-2009 08:42:58 8 C 5.37 g/m*3 8 C 0 km/h
1484 04-05-2009 08:54:57 8.1 C 5.41 g/m*3 8.1 C 0 km/h
1485 04-05-2009 09:06:57 8.3 C 5.31 g/m*3 8.3 C 0 km/h
1486 04-05-2009 09:18:58 8.6 C 5.07 g/m*3 8.6 C 0 km/h
1487 04-05-2009 09:30:57 9 C 5.2 g/m*3 9 C 0 km/h
1488 04-05-2009 09:42:57 9.6 C 5.04 g/m*3 9.6 C 0 km/h
1489 04-05-2009 09:54:57 9.3 C 4.76 g/m*3 9.3 C 0 km/h
1490 04-05-2009 10:06:57 9.7 C 4.98 g/m*3 9.7 C 0 km/h
1491 04-05-2009 10:18:57 10.8 C 4.65 g/m*3 10.8 C 0 km/h
1492 04-05-2009 10:30:56 10.9 C 4.48 g/m*3 10.9 C 0 km/h
1493 04-05-2009 10:42:56 10.8 C 4.55 g/m*3 10.8 C 0 km/h
1494 04-05-2009 10:54:56 10.3 C 4.12 g/m*3 10.3 C 0 km/h
1495 04-05-2009 11:06:56 11.3 C 4.49 g/m*3 11.3 C 0 km/h
1496 04-05-2009 11:18:56 11.9 C 4.45 g/m*3 11.9 C 0 km/h
1497 04-05-2009 11:30:56 13.4 C 4.42 g/m*3 13.4 C 0 km/h
1498 04-05-2009 11:42:56 11.7 C 3.97 g/m*3 11.7 C 0 km/h
1499 04-05-2009 11:54:56 12.4 C 3.93 g/m*3 12.4 C 0 km/h
1500 04-05-2009 12:06:56 12.6 C 3.98 g/m*3 12.6 C 0 km/h
Sensor: Nr:Datum:Temp:Abs-Feuchte:Windchill:Wind:
Aussen-T/F 1501 04-05-2009 12:18:55 13.2 C 4.02 g/m*3 13.2 C 0 km/h
1502 04-05-2009 12:30:55 13.8 C 4.05 g/m*3 13.8 C 0 km/h
1503 04-05-2009 12:42:55 14 C 3.62 g/m*3 14 C 0 km/h
1504 04-05-2009 12:54:55 14 C 3.74 g/m*3 14 C 0 km/h
1505 04-05-2009 13:06:55 14.6 C 3.5 g/m*3 14.6 C 0 km/h
1506 04-05-2009 13:18:54 15.4 C 3.28 g/m*3 15.4 C 0 km/h
1507 04-05-2009 13:30:55 15.6 C 3.46 g/m*3 15.6 C 0 km/h
1508 04-05-2009 13:42:55 15.4 C 3.28 g/m*3 15.4 C 0 km/h
1509 04-05-2009 13:54:54 16.2 C 2.9 g/m*3 16.2 C 0 km/h
1510 04-05-2009 14:06:54 15.5 C 2.64 g/m*3 15.5 C 0 km/h
1511 04-05-2009 14:18:55 15.9 C 3.25 g/m*3 15.9 C 0 km/h
1512 04-05-2009 14:30:54 15.6 C 2.66 g/m*3 15.6 C 0 km/h
1513 04-05-2009 14:42:54 16.8 C 3 g/m*3 16.8 C 0 km/h
1514 04-05-2009 14:54:54 16.8 C 2.86 g/m*3 16.8 C 0 km/h
1515 04-05-2009 15:06:54 15 C 2.56 g/m*3 15 C 0 km/h
1516 04-05-2009 15:18:54 14.6 C 3.25 g/m*3 14.6 C 0 km/h
1517 04-05-2009 15:30:54 16.2 C 3.31 g/m*3 16.2 C 0 km/h
1518 04-05-2009 15:42:54 17.1 C 2.91 g/m*3 17.1 C 0 km/h
1519 04-05-2009 15:54:54 15.2 C 2.86 g/m*3 15.2 C 0 km/h
1520 04-05-2009 16:06:54 15.8 C 2.96 g/m*3 15.8 C 0 km/h
1521 04-05-2009 16:18:53 16.8 C 3.15 g/m*3 16.8 C 0 km/h
1522 04-05-2009 16:30:53 16.6 C 2.83 g/m*3 16.6 C 0 km/h
1523 04-05-2009 16:42:53 15.8 C 2.96 g/m*3 15.8 C 0 km/h
1524 04-05-2009 16:54:53 16.2 C 3.17 g/m*3 16.2 C 0 km/h
1525 04-05-2009 17:06:53 15 C 3.08 g/m*3 15 C 0 km/h
Sensor: Nr:Datum:Temp:Abs-Feuchte:Windchill:Wind:
Aussen-T/F 1526 04-05-2009 17:18:52 17 C 2.89 g/m*3 17 C 0 km/h
1527 04-05-2009 17:30:53 16 C 2.72 g/m*3 16 C 0 km/h
1528 04-05-2009 17:42:53 15.4 C 3.02 g/m*3 15.4 C 0 km/h
1529 04-05-2009 17:54:53 16 C 3.13 g/m*3 16 C 0 km/h
1530 04-05-2009 18:06:52 16.4 C 3.07 g/m*3 16.4 C 0 km/h
1531 04-05-2009 18:18:52 17.3 C 2.95 g/m*3 17.3 C 0 km/h
1532 04-05-2009 18:30:51 17.5 C 2.98 g/m*3 17.5 C 0 km/h
1533 04-05-2009 18:42:51 18.7 C 3.2 g/m*3 18.7 C 0 km/h
1534 04-05-2009 18:54:52 18 C 3.07 g/m*3 18 C 0 km/h
1535 04-05-2009 19:06:51 18.1 C 3.09 g/m*3 18.1 C 0 km/h
1536 04-05-2009 19:18:51 18.9 C 3.24 g/m*3 18.9 C 0 km/h
1537 04-05-2009 19:30:52 17.9 C 3.05 g/m*3 17.9 C 0 km/h
1538 04-05-2009 19:42:52 17.7 C 3.02 g/m*3 17.7 C 0 km/h
1539 04-05-2009 19:54:51 16.1 C 3.56 g/m*3 16.1 C 0 km/h
1540 04-05-2009 20:06:51 14.8 C 3.8 g/m*3 14.8 C 0 km/h
1541 04-05-2009 20:18:51 13.8 C 3.93 g/m*3 13.8 C 0 km/h
1542 04-05-2009 20:30:51 12.8 C 3.92 g/m*3 12.8 C 0 km/h
1543 04-05-2009 20:42:52 12.6 C 3.98 g/m*3 12.6 C 0 km/h
1544 04-05-2009 20:54:50 12.7 C 4.01 g/m*3 12.7 C 0 km/h
1545 04-05-2009 21:06:51 12.8 C 4.03 g/m*3 12.8 C 0 km/h
1546 04-05-2009 21:18:50 12.8 C 4.03 g/m*3 12.8 C 0 km/h
1547 04-05-2009 21:30:50 12.8 C 4.14 g/m*3 12.8 C 0 km/h
1548 04-05-2009 21:42:50 12.7 C 4.34 g/m*3 12.7 C 0 km/h
1549 04-05-2009 21:54:50 12.3 C 4.34 g/m*3 12.3 C 0 km/h
1550 04-05-2009 22:07:51 12.1 C 4.61 g/m*3 12.1 C 0 km/h
Sensor: Nr:Datum:Temp:Abs-Feuchte:Windchill:Wind:
Aussen-T/F 1551 04-05-2009 22:19:51 11.9 C 4.77 g/m*3 11.9 C 0 km/h
1552 04-05-2009 22:31:51 11.7 C 4.71 g/m*3 11.7 C 0 km/h
1553 04-05-2009 22:43:51 11.8 C 4.74 g/m*3 11.8 C 0 km/h
1554 04-05-2009 22:55:52 11.8 C 4.63 g/m*3 11.8 C 0 km/h
1555 04-05-2009 23:07:52 11.7 C 4.81 g/m*3 11.7 C 0 km/h
1556 04-05-2009 23:19:52 11.5 C 4.85 g/m*3 11.5 C 0 km/h
1557 04-05-2009 23:31:52 11.4 C 4.72 g/m*3 11.4 C 0 km/h
1558 04-05-2009 23:43:52 11.1 C 4.73 g/m*3 11.1 C 0 km/h
1559 04-05-2009 23:55:52 10.8 C 4.74 g/m*3 10.8 C 0 km/h
1560 05-05-2009 00:07:52 10.5 C 4.66 g/m*3 10.5 C 0 km/h
1561 05-05-2009 00:19:52 10 C 4.6 g/m*3 10 C 0 km/h
1562 05-05-2009 00:31:52 9.6 C 4.67 g/m*3 9.6 C 0 km/h
1563 05-05-2009 00:43:52 9.3 C 4.67 g/m*3 9.3 C 0 km/h
1564 05-05-2009 00:55:52 9.1 C 4.79 g/m*3 9.1 C 0 km/h
1565 05-05-2009 01:07:52 8.9 C 4.73 g/m*3 8.9 C 0 km/h
1566 05-05-2009 01:19:52 8.7 C 4.93 g/m*3 8.7 C 0 km/h
1567 05-05-2009 01:31:52 8.4 C 5.01 g/m*3 8.4 C 0 km/h
1568 05-05-2009 01:43:52 8.1 C 4.99 g/m*3 8.1 C 0 km/h
1569 05-05-2009 01:55:52 8 C 4.96 g/m*3 8 C 0 km/h
1570 05-05-2009 02:07:52 8.2 C 5.19 g/m*3 8.2 C 0 km/h
1571 05-05-2009 02:19:52 8.2 C 5.28 g/m*3 8.2 C 0 km/h
1572 05-05-2009 02:31:52 8.2 C 5.28 g/m*3 8.2 C 0 km/h
1573 05-05-2009 02:43:52 8.2 C 5.28 g/m*3 8.2 C 0 km/h
1574 05-05-2009 02:55:53 8.2 C 5.28 g/m*3 8.2 C 0 km/h
1575 05-05-2009 03:07:53 7.9 C 5.42 g/m*3 7.9 C 0 km/h
Sensor: Nr:Datum:Temp:Abs-Feuchte:Windchill:Wind:
Aussen-T/F 1576 05-05-2009 03:19:53 7.9 C 5.42 g/m*3 7.9 C 0 km/h
1577 05-05-2009 03:31:53 7.8 C 5.39 g/m*3 7.8 C 0 km/h
1578 05-05-2009 03:43:53 7.9 C 5.26 g/m*3 7.9 C 0 km/h
1579 05-05-2009 03:55:53 7.9 C 5.17 g/m*3 7.9 C 0 km/h
1580 05-05-2009 04:07:53 8 C 4.96 g/m*3 8 C 0 km/h
1581 05-05-2009 04:19:53 7.9 C 5.09 g/m*3 7.9 C 0 km/h
1582 05-05-2009 04:31:53 7.8 C 5.22 g/m*3 7.8 C 0 km/h
1583 05-05-2009 04:43:53 7.9 C 5.17 g/m*3 7.9 C 0 km/h
1584 05-05-2009 04:55:53 7.9 C 5.17 g/m*3 7.9 C 0 km/h
1585 05-05-2009 05:07:53 7.9 C 5.34 g/m*3 7.9 C 0 km/h
1586 05-05-2009 05:19:53 7.8 C 5.39 g/m*3 7.8 C 0 km/h
1587 05-05-2009 05:31:53 7.8 C 5.47 g/m*3 7.8 C 0 km/h
1588 05-05-2009 05:43:53 7.7 C 5.43 g/m*3 7.7 C 0 km/h
1589 05-05-2009 05:55:53 7.9 C 5.42 g/m*3 7.9 C 0 km/h
1590 05-05-2009 06:07:53 8 C 5.29 g/m*3 8 C 0 km/h
1591 05-05-2009 06:19:53 8 C 5.29 g/m*3 8 C 0 km/h
1592 05-05-2009 06:31:53 8.1 C 5.33 g/m*3 8.1 C 0 km/h
1593 05-05-2009 06:43:53 8.2 C 5.36 g/m*3 8.2 C 0 km/h
1594 05-05-2009 06:55:54 8.3 C 5.39 g/m*3 8.3 C 0 km/h
1595 05-05-2009 07:07:54 8.5 C 5.46 g/m*3 8.5 C 0 km/h
1596 05-05-2009 07:19:54 8.6 C 5.41 g/m*3 8.6 C 0 km/h
1597 05-05-2009 07:31:54 8.9 C 5.43 g/m*3 8.9 C 0 km/h
1598 05-05-2009 07:43:54 9.2 C 5.36 g/m*3 9.2 C 0 km/h
1599 05-05-2009 07:55:54 9.4 C 5.43 g/m*3 9.4 C 0 km/h
1600 05-05-2009 08:07:54 9.5 C 5.28 g/m*3 9.5 C 0 km/h
Sensor: Nr:Datum:Temp:Abs-Feuchte:Windchill:Wind:
Aussen-T/F 1601 05-05-2009 08:19:54 9.6 C 5.13 g/m*3 9.6 C 0 km/h
1602 05-05-2009 08:31:54 9.8 C 5.1 g/m*3 9.8 C 0 km/h
1603 05-05-2009 08:43:54 9.9 C 5.14 g/m*3 9.9 C 0 km/h
1604 05-05-2009 08:55:50 10.4 C 5.3 g/m*3 10.4 C 0 km/h
1605 05-05-2009 09:07:50 10.5 C 5.14 g/m*3 10.5 C 0 km/h
1606 05-05-2009 09:19:50 10.4 C 5.3 g/m*3 10.4 C 0 km/h
1607 05-05-2009 09:31:50 10.6 C 5.56 g/m*3 10.6 C 0 km/h
1608 05-05-2009 09:43:50 10.8 C 5.54 g/m*3 10.8 C 0 km/h
1609 05-05-2009 09:55:49 11 C 5.51 g/m*3 11 C 0 km/h
1610 05-05-2009 10:07:50 11.2 C 5.57 g/m*3 11.2 C 0 km/h
1611 05-05-2009 10:19:50 11.3 C 5.51 g/m*3 11.3 C 0 km/h
1612 05-05-2009 10:31:49 11.4 C 5.44 g/m*3 11.4 C 0 km/h
1613 05-05-2009 10:43:49 12 C 5.44 g/m*3 12 C 0 km/h
1614 05-05-2009 10:55:50 12 C 5.44 g/m*3 12 C 0 km/h
1615 05-05-2009 11:07:49 12.4 C 5.57 g/m*3 12.4 C 0 km/h
1616 05-05-2009 11:19:49 12.6 C 5.64 g/m*3 12.6 C 0 km/h
1617 05-05-2009 11:31:48 12.7 C 5.9 g/m*3 12.7 C 0 km/h
1618 05-05-2009 11:43:48 12.7 C 6.01 g/m*3 12.7 C 0 km/h
1619 05-05-2009 11:55:49 12.8 C 6.27 g/m*3 12.8 C 0 km/h
1620 05-05-2009 12:07:48 12.7 C 6.12 g/m*3 12.7 C 0 km/h
1621 05-05-2009 12:19:48 12.9 C 6.42 g/m*3 12.9 C 0 km/h
1622 05-05-2009 12:31:49 12.5 C 6.49 g/m*3 12.5 C 0 km/h
1623 05-05-2009 12:43:49 12.4 C 6.66 g/m*3 12.4 C 0 km/h
1624 05-05-2009 12:55:48 11.8 C 6.84 g/m*3 11.8 C 0 km/h
1625 05-05-2009 13:07:48 11.8 C 6.95 g/m*3 11.8 C 0 km/h
Sensor: Nr:Datum:Temp:Abs-Feuchte:Windchill:Wind:
Aussen-T/F 1626 05-05-2009 13:19:48 11.8 C 6.74 g/m*3 11.8 C 0 km/h
1627 05-05-2009 13:31:48 12 C 6.5 g/m*3 12 C 0 km/h
1628 05-05-2009 13:43:48 12.1 C 6.54 g/m*3 12.1 C 0 km/h
1629 05-05-2009 13:55:47 12.6 C 6.64 g/m*3 12.6 C 0 km/h
1630 05-05-2009 14:07:48 12.8 C 6.61 g/m*3 12.8 C 0 km/h
1631 05-05-2009 14:19:47 12.5 C 6.6 g/m*3 12.5 C 0 km/h
1632 05-05-2009 14:31:47 12.3 C 6.62 g/m*3 12.3 C 0 km/h
1633 05-05-2009 14:43:47 12.4 C 6.77 g/m*3 12.4 C 0 km/h
1634 05-05-2009 14:55:47 13.1 C 6.73 g/m*3 13.1 C 0 km/h
1635 05-05-2009 15:07:47 13.4 C 6.74 g/m*3 13.4 C 0 km/h
1636 05-05-2009 15:19:47 13.4 C 6.74 g/m*3 13.4 C 0 km/h
1637 05-05-2009 15:31:46 13.1 C 6.85 g/m*3 13.1 C 0 km/h
1638 05-05-2009 15:43:46 12.2 C 7.34 g/m*3 12.2 C 0 km/h
1639 05-05-2009 15:55:47 11.6 C 7.8 g/m*3 11.6 C 0 km/h
1640 05-05-2009 16:07:46 11.2 C 7.91 g/m*3 11.2 C 0 km/h
1641 05-05-2009 16:19:46 11.2 C 8.11 g/m*3 11.2 C 0 km/h
1642 05-05-2009 16:31:46 11.5 C 8.37 g/m*3 11.5 C 0 km/h
1643 05-05-2009 16:43:46 11.7 C 8.26 g/m*3 11.7 C 0 km/h
1644 05-05-2009 16:55:46 11.8 C 8.31 g/m*3 11.8 C 0 km/h
1645 05-05-2009 17:07:45 11.6 C 8.21 g/m*3 11.6 C 0 km/h
1646 05-05-2009 17:19:46 11.7 C 8.37 g/m*3 11.7 C 0 km/h
1647 05-05-2009 17:31:46 11.8 C 8.31 g/m*3 11.8 C 0 km/h
1648 05-05-2009 17:43:46 12 C 8.42 g/m*3 12 C 0 km/h
1649 05-05-2009 17:55:45 11.8 C 8.42 g/m*3 11.8 C 0 km/h
1650 05-05-2009 18:07:44 11.6 C 8.52 g/m*3 11.6 C 0 km/h
Sensor: Nr:Datum:Temp:Abs-Feuchte:Windchill:Wind:
Aussen-T/F 1651 05-05-2009 18:19:45 11.5 C 8.57 g/m*3 11.5 C 0 km/h
1652 05-05-2009 18:31:45 11.3 C 8.57 g/m*3 11.3 C 0 km/h
1653 05-05-2009 18:43:45 11.2 C 8.72 g/m*3 11.2 C 0 km/h
1654 05-05-2009 18:55:45 11.2 C 8.72 g/m*3 11.2 C 0 km/h
1655 05-05-2009 19:07:45 11.2 C 8.82 g/m*3 11.2 C 0 km/h
1656 05-05-2009 19:19:44 11.2 C 8.92 g/m*3 11.2 C 0 km/h
1657 05-05-2009 19:31:44 11.2 C 8.92 g/m*3 11.2 C 0 km/h
1658 05-05-2009 19:43:44 11.1 C 8.96 g/m*3 11.1 C 0 km/h
1659 05-05-2009 19:55:44 11.1 C 8.96 g/m*3 11.1 C 0 km/h
1660 05-05-2009 20:07:44 11.1 C 9.07 g/m*3 11.1 C 0 km/h
1661 05-05-2009 20:19:43 11 C 9.01 g/m*3 11 C 0 km/h
1662 05-05-2009 20:31:44 11.1 C 9.07 g/m*3 11.1 C 0 km/h
1663 05-05-2009 20:43:44 11.1 C 9.17 g/m*3 11.1 C 0 km/h
1664 05-05-2009 20:55:43 11 C 9.11 g/m*3 11 C 0 km/h
1665 05-05-2009 21:07:43 11.1 C 9.17 g/m*3 11.1 C 0 km/h
1666 05-05-2009 21:19:43 11.1 C 9.27 g/m*3 11.1 C 0 km/h
1667 05-05-2009 21:31:43 11.2 C 9.33 g/m*3 11.2 C 0 km/h
1668 05-05-2009 21:43:43 11.2 C 9.33 g/m*3 11.2 C 0 km/h
1669 05-05-2009 21:55:43 11.2 C 9.33 g/m*3 11.2 C 0 km/h
1670 05-05-2009 22:07:42 11.2 C 9.33 g/m*3 11.2 C 0 km/h
1671 05-05-2009 22:19:43 11.2 C 9.33 g/m*3 11.2 C 0 km/h
1672 05-05-2009 22:31:43 11.3 C 9.38 g/m*3 11.3 C 0 km/h
1673 05-05-2009 22:43:43 11.4 C 9.44 g/m*3 11.4 C 0 km/h
1674 05-05-2009 22:55:42 11.3 C 9.38 g/m*3 11.3 C 0 km/h
1675 05-05-2009 23:07:43 11.4 C 9.44 g/m*3 11.4 C 0 km/h
Sensor: Nr:Datum:Temp:Abs-Feuchte:Windchill:Wind:
Aussen-T/F 1676 05-05-2009 23:19:42 11.4 C 9.44 g/m*3 11.4 C 0 km/h
1677 05-05-2009 23:32:43 11.4 C 9.44 g/m*3 11.4 C 0 km/h
1678 05-05-2009 23:44:43 11.3 C 9.38 g/m*3 11.3 C 0 km/h
1679 05-05-2009 23:56:43 11.4 C 9.44 g/m*3 11.4 C 0 km/h
1680 06-05-2009 00:08:43 11.8 C 9.58 g/m*3 11.8 C 0 km/h
1681 06-05-2009 00:20:43 11.9 C 9.43 g/m*3 11.9 C 0 km/h
1682 06-05-2009 00:32:43 12 C 9.27 g/m*3 12 C 0 km/h
1683 06-05-2009 00:44:43 12 C 9.06 g/m*3 12 C 0 km/h
1684 06-05-2009 00:56:43 12.1 C 9.01 g/m*3 12.1 C 0 km/h
1685 06-05-2009 01:08:43 12.2 C 8.96 g/m*3 12.2 C 0 km/h
1686 06-05-2009 01:20:43 12.2 C 8.85 g/m*3 12.2 C 0 km/h
1687 06-05-2009 01:32:44 12.1 C 8.79 g/m*3 12.1 C 0 km/h
1688 06-05-2009 01:44:44 12.1 C 8.79 g/m*3 12.1 C 0 km/h
1689 06-05-2009 01:56:44 12.1 C 8.79 g/m*3 12.1 C 0 km/h
1690 06-05-2009 02:08:44 12.3 C 8.8 g/m*3 12.3 C 0 km/h
1691 06-05-2009 02:20:44 12.4 C 8.74 g/m*3 12.4 C 0 km/h
1692 06-05-2009 02:32:44 12.4 C 8.74 g/m*3 12.4 C 0 km/h
1693 06-05-2009 02:44:44 12.4 C 8.63 g/m*3 12.4 C 0 km/h
1694 06-05-2009 02:56:44 12.4 C 8.63 g/m*3 12.4 C 0 km/h
1695 06-05-2009 03:08:44 12.2 C 8.63 g/m*3 12.2 C 0 km/h
1696 06-05-2009 03:20:44 12.2 C 8.52 g/m*3 12.2 C 0 km/h
1697 06-05-2009 03:32:44 12.4 C 8.3 g/m*3 12.4 C 0 km/h
1698 06-05-2009 03:44:44 12.4 C 8.3 g/m*3 12.4 C 0 km/h
1699 06-05-2009 03:56:44 12.4 C 8.3 g/m*3 12.4 C 0 km/h
1700 06-05-2009 04:08:44 12.4 C 8.09 g/m*3 12.4 C 0 km/h
Sensor: Nr:Datum:Temp:Abs-Feuchte:Windchill:Wind:
Aussen-T/F 1701 06-05-2009 04:20:44 12.4 C 7.98 g/m*3 12.4 C 0 km/h
1702 06-05-2009 04:32:44 12.2 C 7.99 g/m*3 12.2 C 0 km/h
1703 06-05-2009 04:44:44 12 C 7.99 g/m*3 12 C 0 km/h
1704 06-05-2009 04:56:44 12 C 7.99 g/m*3 12 C 0 km/h
1705 06-05-2009 05:08:44 12 C 7.78 g/m*3 12 C 0 km/h
1706 06-05-2009 05:20:44 12 C 7.57 g/m*3 12 C 0 km/h
1707 06-05-2009 05:32:45 11.9 C 7.41 g/m*3 11.9 C 0 km/h
1708 06-05-2009 05:44:45 11.8 C 7.26 g/m*3 11.8 C 0 km/h
1709 06-05-2009 05:56:45 11.8 C 7.05 g/m*3 11.8 C 0 km/h
1710 06-05-2009 06:08:45 11.8 C 6.95 g/m*3 11.8 C 0 km/h
1711 06-05-2009 06:20:45 11.8 C 7.05 g/m*3 11.8 C 0 km/h
1712 06-05-2009 06:32:45 11.8 C 7.05 g/m*3 11.8 C 0 km/h
1713 06-05-2009 06:44:45 11.8 C 7.16 g/m*3 11.8 C 0 km/h
1714 06-05-2009 06:56:45 11.8 C 7.16 g/m*3 11.8 C 0 km/h
1715 06-05-2009 07:08:45 11.8 C 6.95 g/m*3 11.8 C 0 km/h
1716 06-05-2009 07:20:45 11.9 C 6.99 g/m*3 11.9 C 0 km/h
1717 06-05-2009 07:32:45 12 C 6.71 g/m*3 12 C 0 km/h
1718 06-05-2009 07:44:45 12.2 C 6.91 g/m*3 12.2 C 0 km/h
1719 06-05-2009 07:56:45 12.3 C 6.84 g/m*3 12.3 C 0 km/h
1720 06-05-2009 08:08:43 12.3 C 6.73 g/m*3 12.3 C 0 km/h
1721 06-05-2009 08:20:43 12.3 C 6.73 g/m*3 12.3 C 0 km/h
1722 06-05-2009 08:32:43 12.2 C 6.69 g/m*3 12.2 C 0 km/h
1723 06-05-2009 08:44:43 12.2 C 6.69 g/m*3 12.2 C 0 km/h
1724 06-05-2009 08:56:43 12.4 C 6.88 g/m*3 12.4 C 0 km/h
1725 06-05-2009 09:08:42 12.3 C 6.41 g/m*3 12.3 C 0 km/h
Sensor: Nr:Datum:Temp:Abs-Feuchte:Windchill:Wind:
Aussen-T/F 1726 06-05-2009 09:20:43 12.5 C 6.38 g/m*3 12.5 C 0 km/h
1727 06-05-2009 09:32:42 13.1 C 6.73 g/m*3 13.1 C 0 km/h
1728 06-05-2009 09:44:42 13.2 C 6.54 g/m*3 13.2 C 0 km/h
1729 06-05-2009 09:56:43 13.7 C 6.16 g/m*3 13.7 C 0 km/h
1730 06-05-2009 10:08:42 14.1 C 6.31 g/m*3 14.1 C 0 km/h
1731 06-05-2009 10:20:42 14 C 6.03 g/m*3 14 C 0 km/h
1732 06-05-2009 10:32:42 14.4 C 6.18 g/m*3 14.4 C 0 km/h
1733 06-05-2009 10:44:41 14.1 C 5.95 g/m*3 14.1 C 0 km/h
1734 06-05-2009 10:56:41 14.4 C 5.93 g/m*3 14.4 C 0 km/h
1735 06-05-2009 11:08:42 14.7 C 5.92 g/m*3 14.7 C 0 km/h
1736 06-05-2009 11:20:41 14.7 C 5.79 g/m*3 14.7 C 0 km/h
1737 06-05-2009 11:32:41 15.2 C 5.84 g/m*3 15.2 C 0 km/h
1738 06-05-2009 11:44:41 15.4 C 5.78 g/m*3 15.4 C 0 km/h
1739 06-05-2009 11:56:41 15.5 C 5.82 g/m*3 15.5 C 0 km/h
1740 06-05-2009 12:08:41 15.8 C 5.79 g/m*3 15.8 C 0 km/h
1741 06-05-2009 12:20:40 16.2 C 5.79 g/m*3 16.2 C 0 km/h
1742 06-05-2009 12:32:41 16.2 C 5.65 g/m*3 16.2 C 0 km/h
1743 06-05-2009 12:44:40 16.2 C 5.93 g/m*3 16.2 C 0 km/h
1744 06-05-2009 12:56:40 15.4 C 5.91 g/m*3 15.4 C 0 km/h
1745 06-05-2009 13:08:40 15.4 C 5.91 g/m*3 15.4 C 0 km/h
1746 06-05-2009 13:20:41 15.3 C 6.14 g/m*3 15.3 C 0 km/h
1747 06-05-2009 13:32:40 15.4 C 6.18 g/m*3 15.4 C 0 km/h
1748 06-05-2009 13:44:40 15.6 C 6.25 g/m*3 15.6 C 0 km/h
1749 06-05-2009 13:56:40 15.9 C 6.23 g/m*3 15.9 C 0 km/h
1750 06-05-2009 14:08:40 16 C 6.4 g/m*3 16 C 0 km/h
Sensor: Nr:Datum:Temp:Abs-Feuchte:Windchill:Wind:
Aussen-T/F 1751 06-05-2009 14:20:40 16 C 6.13 g/m*3 16 C 0 km/h
1752 06-05-2009 14:32:39 15.8 C 6.33 g/m*3 15.8 C 0 km/h
1753 06-05-2009 14:44:40 15.6 C 6.38 g/m*3 15.6 C 0 km/h
1754 06-05-2009 14:56:40 15.5 C 6.48 g/m*3 15.5 C 0 km/h
1755 06-05-2009 15:08:39 15.4 C 6.57 g/m*3 15.4 C 0 km/h
1756 06-05-2009 15:20:39 15.5 C 6.61 g/m*3 15.5 C 0 km/h
1757 06-05-2009 15:32:39 15.4 C 6.57 g/m*3 15.4 C 0 km/h
1758 06-05-2009 15:44:39 15.6 C 6.78 g/m*3 15.6 C 0 km/h
1759 06-05-2009 15:56:39 15.7 C 6.69 g/m*3 15.7 C 0 km/h
1760 06-05-2009 16:02:38 15.7 C 6.82 g/m*3 15.7 C 0 km/h
1761 06-05-2009 16:17:39 15.6 C 6.78 g/m*3 15.6 C 0 km/h
1762 06-05-2009 16:32:38 15.6 C 6.78 g/m*3 15.6 C 0 km/h
1763 06-05-2009 16:47:38 15.7 C 6.96 g/m*3 15.7 C 0 km/h
1764 06-05-2009 17:02:38 15.9 C 7.04 g/m*3 15.9 C 0 km/h
1765 06-05-2009 17:17:38 15.8 C 7 g/m*3 15.8 C 0 km/h
1766 06-05-2009 17:32:38 15.7 C 7.09 g/m*3 15.7 C 0 km/h
1767 06-05-2009 17:47:38 15.8 C 7.13 g/m*3 15.8 C 0 km/h
1768 06-05-2009 18:02:38 16 C 6.81 g/m*3 16 C 0 km/h
1769 06-05-2009 18:17:37 16 C 6.81 g/m*3 16 C 0 km/h
1770 06-05-2009 18:32:37 15.8 C 7 g/m*3 15.8 C 0 km/h
1771 06-05-2009 18:47:37 15.7 C 7.09 g/m*3 15.7 C 0 km/h
1772 06-05-2009 19:02:37 15.7 C 7.09 g/m*3 15.7 C 0 km/h
1773 06-05-2009 19:17:36 15.6 C 7.31 g/m*3 15.6 C 0 km/h
1774 06-05-2009 19:32:36 15.5 C 7.27 g/m*3 15.5 C 0 km/h
1775 06-05-2009 19:47:36 15.3 C 7.18 g/m*3 15.3 C 0 km/h
Sensor: Nr:Datum:Temp:Abs-Feuchte:Windchill:Wind:
Aussen-T/F 1776 06-05-2009 20:02:36 15.2 C 7.14 g/m*3 15.2 C 0 km/h
1777 06-05-2009 20:17:36 15.1 C 7.22 g/m*3 15.1 C 0 km/h
1778 06-05-2009 20:32:36 15 C 7.31 g/m*3 15 C 0 km/h
1779 06-05-2009 20:47:36 14.8 C 7.35 g/m*3 14.8 C 0 km/h
1780 06-05-2009 21:02:36 14.7 C 7.3 g/m*3 14.7 C 0 km/h
1781 06-05-2009 21:17:01 14.6 C 7.26 g/m*3 14.6 C 0 km/h
1782 06-05-2009 21:33:36 14.5 C 7.21 g/m*3 14.5 C 0 km/h
1783 06-05-2009 21:48:36 14.4 C 7.17 g/m*3 14.4 C 0 km/h
1784 06-05-2009 22:03:36 14.2 C 7.2 g/m*3 14.2 C 0 km/h
1785 06-05-2009 22:18:36 14.3 C 7.25 g/m*3 14.3 C 0 km/h
1786 06-05-2009 22:33:36 14.1 C 7.16 g/m*3 14.1 C 0 km/h
1787 06-05-2009 22:48:36 14.1 C 7.16 g/m*3 14.1 C 0 km/h
1788 06-05-2009 23:03:36 14 C 7.12 g/m*3 14 C 0 km/h
1789 06-05-2009 23:18:36 13.9 C 7.19 g/m*3 13.9 C 0 km/h
1790 06-05-2009 23:33:36 13.7 C 7.1 g/m*3 13.7 C 0 km/h
1791 06-05-2009 23:48:37 13.6 C 7.06 g/m*3 13.6 C 0 km/h
1792 07-05-2009 00:03:37 13.5 C 7.13 g/m*3 13.5 C 0 km/h
1793 07-05-2009 00:18:37 13.4 C 7.09 g/m*3 13.4 C 0 km/h
1794 07-05-2009 00:33:37 13.1 C 7.19 g/m*3 13.1 C 0 km/h
1795 07-05-2009 00:48:37 12.8 C 7.28 g/m*3 12.8 C 0 km/h
1796 07-05-2009 01:03:37 12.4 C 7.21 g/m*3 12.4 C 0 km/h
1797 07-05-2009 01:18:37 12.1 C 7.29 g/m*3 12.1 C 0 km/h
1798 07-05-2009 01:33:37 11.8 C 7.37 g/m*3 11.8 C 0 km/h
1799 07-05-2009 01:48:37 11.6 C 7.38 g/m*3 11.6 C 0 km/h
1800 07-05-2009 02:03:37 11.3 C 7.34 g/m*3 11.3 C 0 km/h
Sensor: Nr:Datum:Temp:Abs-Feuchte:Windchill:Wind:
Aussen-T/F 1801 07-05-2009 02:18:37 11 C 7.31 g/m*3 11 C 0 km/h
1802 07-05-2009 02:33:37 11 C 7.41 g/m*3 11 C 0 km/h
1803 07-05-2009 02:48:37 10.9 C 7.46 g/m*3 10.9 C 0 km/h
1804 07-05-2009 03:03:37 10.8 C 7.41 g/m*3 10.8 C 0 km/h
1805 07-05-2009 03:18:37 10.7 C 7.37 g/m*3 10.7 C 0 km/h
1806 07-05-2009 03:33:37 10.5 C 7.37 g/m*3 10.5 C 0 km/h
1807 07-05-2009 03:48:37 10.3 C 7.28 g/m*3 10.3 C 0 km/h
1808 07-05-2009 04:03:37 10.2 C 7.23 g/m*3 10.2 C 0 km/h
1809 07-05-2009 04:18:37 10.2 C 7.33 g/m*3 10.2 C 0 km/h
1810 07-05-2009 04:33:38 9.7 C 7.19 g/m*3 9.7 C 0 km/h
1811 07-05-2009 04:48:38 9.3 C 7.1 g/m*3 9.3 C 0 km/h
1812 07-05-2009 05:03:38 8.9 C 7.01 g/m*3 8.9 C 0 km/h
1813 07-05-2009 05:18:38 8.7 C 7.01 g/m*3 8.7 C 0 km/h
1814 07-05-2009 05:33:38 8.5 C 7 g/m*3 8.5 C 0 km/h
1815 07-05-2009 05:48:38 8.4 C 7.04 g/m*3 8.4 C 0 km/h
1816 07-05-2009 06:03:38 8.3 C 7.08 g/m*3 8.3 C 0 km/h
1817 07-05-2009 06:18:38 8.2 C 7.03 g/m*3 8.2 C 0 km/h
1818 07-05-2009 06:33:38 8.2 C 7.03 g/m*3 8.2 C 0 km/h
1819 07-05-2009 06:48:38 8.3 C 7.16 g/m*3 8.3 C 0 km/h
1820 07-05-2009 07:03:36 8.5 C 7.26 g/m*3 8.5 C 0 km/h
1821 07-05-2009 07:18:36 8.6 C 7.39 g/m*3 8.6 C 0 km/h
1822 07-05-2009 07:33:35 9.2 C 7.59 g/m*3 9.2 C 0 km/h
1823 07-05-2009 07:48:36 9.9 C 7.84 g/m*3 9.9 C 0 km/h
1824 07-05-2009 08:03:35 10.1 C 7.47 g/m*3 10.1 C 0 km/h
1825 07-05-2009 08:18:35 10.2 C 7.52 g/m*3 10.2 C 0 km/h
Sensor: Nr:Datum:Temp:Abs-Feuchte:Windchill:Wind:
Aussen-T/F 1826 07-05-2009 08:33:35 10.7 C 7.66 g/m*3 10.7 C 0 km/h
1827 07-05-2009 08:56:02 11.4 C 7.6 g/m*3 11.4 C 0 km/h
1828 07-05-2009 09:11:02 11.9 C 7.63 g/m*3 11.9 C 0 km/h
1829 07-05-2009 09:26:02 12.5 C 7.48 g/m*3 12.5 C 0 km/h
1830 07-05-2009 09:41:02 13 C 7.37 g/m*3 13 C 0 km/h
1831 07-05-2009 09:56:02 13.5 C 7.49 g/m*3 13.5 C 0 km/h
1832 07-05-2009 10:11:02 13.8 C 7.51 g/m*3 13.8 C 0 km/h
1833 07-05-2009 10:26:02 14.6 C 7.38 g/m*3 14.6 C 0 km/h
1834 07-05-2009 10:41:02 15 C 7.05 g/m*3 15 C 0 km/h
1835 07-05-2009 10:56:02 15.4 C 7.36 g/m*3 15.4 C 0 km/h
1836 07-05-2009 11:11:03 16.1 C 6.99 g/m*3 16.1 C 0 km/h
1837 07-05-2009 11:26:03 16.4 C 6.98 g/m*3 16.4 C 0 km/h
1838 07-05-2009 11:41:03 16.7 C 7.11 g/m*3 16.7 C 0 km/h
1839 07-05-2009 11:56:03 17 C 6.66 g/m*3 17 C 0 km/h
1840 07-05-2009 12:11:03 17.6 C 6.45 g/m*3 17.6 C 0 km/h
1841 07-05-2009 12:26:03 17.7 C 6.49 g/m*3 17.7 C 0 km/h
1842 07-05-2009 12:41:03 17.2 C 6.3 g/m*3 17.2 C 0 km/h
1843 07-05-2009 12:56:03 18.5 C 6.65 g/m*3 18.5 C 0 km/h
1844 07-05-2009 13:11:03 19.3 C 6.47 g/m*3 19.3 C 0 km/h
1845 07-05-2009 13:26:03 19.7 C 6.28 g/m*3 19.7 C 0 km/h
1846 07-05-2009 13:41:03 20.5 C 5.69 g/m*3 20.5 C 0 km/h
1847 07-05-2009 13:56:03 20.5 C 5.69 g/m*3 20.5 C 0 km/h
1848 07-05-2009 14:11:03 20.5 C 5.52 g/m*3 20.5 C 0 km/h
1849 07-05-2009 14:26:03 20.3 C 5.45 g/m*3 20.3 C 0 km/h
1850 07-05-2009 14:41:03 20.9 C 5.83 g/m*3 20.9 C 0 km/h
Sensor: Nr:Datum:Temp:Abs-Feuchte:Windchill:Wind:
Aussen-T/F 1851 07-05-2009 14:56:03 21.5 C 5.85 g/m*3 21.5 C 0 km/h
1852 07-05-2009 15:11:03 21.9 C 5.79 g/m*3 21.9 C 0 km/h
1853 07-05-2009 15:26:03 22.7 C 5.66 g/m*3 22.7 C 0 km/h
1854 07-05-2009 15:41:03 23.1 C 5.17 g/m*3 23.1 C 0 km/h
1855 07-05-2009 15:56:04 24.1 C 5.47 g/m*3 24.1 C 0 km/h
1856 07-05-2009 16:11:04 23.6 C 5.1 g/m*3 23.6 C 0 km/h
1857 07-05-2009 16:26:04 24.5 C 5.6 g/m*3 24.5 C 0 km/h
1858 07-05-2009 16:41:04 24.5 C 5.6 g/m*3 24.5 C 0 km/h
1859 07-05-2009 16:56:04 24.1 C 5.47 g/m*3 24.1 C 0 km/h
1860 07-05-2009 17:11:04 25.1 C 5.56 g/m*3 25.1 C 0 km/h
1861 07-05-2009 17:26:04 25.4 C 5.41 g/m*3 25.4 C 0 km/h
1862 07-05-2009 17:41:04 24.9 C 5.72 g/m*3 24.9 C 0 km/h
1863 07-05-2009 17:56:04 26.4 C 5.73 g/m*3 26.4 C 0 km/h
1864 07-05-2009 18:11:04 26 C 5.11 g/m*3 26 C 0 km/h
1865 07-05-2009 18:26:04 25.5 C 4.97 g/m*3 25.5 C 0 km/h
1866 07-05-2009 18:41:04 25.1 C 5.09 g/m*3 25.1 C 0 km/h
1867 07-05-2009 18:56:04 25 C 5.29 g/m*3 25 C 0 km/h
1868 07-05-2009 19:11:04 25.7 C 5.99 g/m*3 25.7 C 0 km/h
1869 07-05-2009 19:26:04 26.4 C 5.73 g/m*3 26.4 C 0 km/h
1870 07-05-2009 19:41:04 25.9 C 5.57 g/m*3 25.9 C 0 km/h
1871 07-05-2009 19:56:04 25.5 C 5.92 g/m*3 25.5 C 0 km/h
1872 07-05-2009 20:11:04 25.1 C 6.48 g/m*3 25.1 C 0 km/h
1873 07-05-2009 20:26:04 24.1 C 6.56 g/m*3 24.1 C 0 km/h
1874 07-05-2009 20:41:04 22.4 C 6.55 g/m*3 22.4 C 0 km/h
1875 07-05-2009 20:56:04 20.8 C 6.88 g/m*3 20.8 C 0 km/h
Sensor: Nr:Datum:Temp:Abs-Feuchte:Windchill:Wind:
Aussen-T/F 1876 07-05-2009 21:11:05 19.9 C 7.39 g/m*3 19.9 C 0 km/h
1877 07-05-2009 21:26:05 19.3 C 7.3 g/m*3 19.3 C 0 km/h
1878 07-05-2009 21:41:05 18.9 C 7.29 g/m*3 18.9 C 0 km/h
1879 07-05-2009 21:56:05 18.6 C 7.32 g/m*3 18.6 C 0 km/h
1880 07-05-2009 22:11:05 18.1 C 7.26 g/m*3 18.1 C 0 km/h
1881 07-05-2009 22:26:05 17.7 C 7.39 g/m*3 17.7 C 0 km/h
1882 07-05-2009 22:41:05 17.2 C 7.47 g/m*3 17.2 C 0 km/h
1883 07-05-2009 22:56:05 16.8 C 7.43 g/m*3 16.8 C 0 km/h
1884 07-05-2009 23:11:05 16.6 C 7.49 g/m*3 16.6 C 0 km/h
1885 07-05-2009 23:26:05 16.4 C 7.68 g/m*3 16.4 C 0 km/h
1886 07-05-2009 23:41:05 16 C 7.49 g/m*3 16 C 0 km/h
1887 07-05-2009 23:56:05 15.7 C 7.63 g/m*3 15.7 C 0 km/h
1888 08-05-2009 00:11:05 15.4 C 7.75 g/m*3 15.4 C 0 km/h
1889 08-05-2009 00:26:05 14.8 C 7.85 g/m*3 14.8 C 0 km/h
1890 08-05-2009 00:41:05 14.6 C 7.88 g/m*3 14.6 C 0 km/h
1891 08-05-2009 00:56:05 14.4 C 7.79 g/m*3 14.4 C 0 km/h
1892 08-05-2009 01:11:05 14.2 C 7.94 g/m*3 14.2 C 0 km/h
1893 08-05-2009 01:26:05 13.9 C 8.15 g/m*3 13.9 C 0 km/h
1894 08-05-2009 01:41:05 14 C 7.96 g/m*3 14 C 0 km/h
1895 08-05-2009 01:56:05 13.6 C 8 g/m*3 13.6 C 0 km/h
1896 08-05-2009 02:11:06 13.2 C 7.92 g/m*3 13.2 C 0 km/h
1897 08-05-2009 02:26:06 13.1 C 7.99 g/m*3 13.1 C 0 km/h
1898 08-05-2009 02:41:06 12.8 C 8.06 g/m*3 12.8 C 0 km/h
1899 08-05-2009 02:56:06 12.7 C 8.01 g/m*3 12.7 C 0 km/h
1900 08-05-2009 03:11:06 12.5 C 8.03 g/m*3 12.5 C 0 km/h
Sensor: Nr:Datum:Temp:Abs-Feuchte:Windchill:Wind:
Aussen-T/F 1901 08-05-2009 03:26:06 12.4 C 8.09 g/m*3 12.4 C 0 km/h
1902 08-05-2009 03:41:06 12.2 C 8.09 g/m*3 12.2 C 0 km/h
1903 08-05-2009 03:56:06 12.4 C 8.09 g/m*3 12.4 C 0 km/h
1904 08-05-2009 04:11:06 12.1 C 8.04 g/m*3 12.1 C 0 km/h
1905 08-05-2009 04:26:06 12.1 C 8.04 g/m*3 12.1 C 0 km/h
1906 08-05-2009 04:41:06 12.4 C 8.19 g/m*3 12.4 C 0 km/h
1907 08-05-2009 04:56:06 12.2 C 8.2 g/m*3 12.2 C 0 km/h
1908 08-05-2009 05:11:06 11.5 C 8.57 g/m*3 11.5 C 0 km/h
1909 08-05-2009 05:26:06 11.7 C 9.2 g/m*3 11.7 C 0 km/h
1910 08-05-2009 05:41:06 12 C 9.48 g/m*3 12 C 0 km/h
1911 08-05-2009 05:56:06 12.6 C 10.07 g/m*3 12.6 C 0 km/h
1912 08-05-2009 06:11:06 13.3 C 10.4 g/m*3 13.3 C 0 km/h
1913 08-05-2009 06:26:06 13.5 C 10.18 g/m*3 13.5 C 0 km/h
1914 08-05-2009 06:41:06 13.3 C 9.94 g/m*3 13.3 C 0 km/h
1915 08-05-2009 06:56:06 13.2 C 9.99 g/m*3 13.2 C 0 km/h
1916 08-05-2009 07:11:06 13 C 9.98 g/m*3 13 C 0 km/h
1917 08-05-2009 07:26:07 13.1 C 10.16 g/m*3 13.1 C 0 km/h
1918 08-05-2009 07:41:07 12.6 C 10.07 g/m*3 12.6 C 0 km/h
1919 08-05-2009 07:56:07 13.4 C 10.58 g/m*3 13.4 C 0 km/h
1920 08-05-2009 08:11:07 13.9 C 10.91 g/m*3 13.9 C 0 km/h
1921 08-05-2009 08:26:07 14.4 C 11.13 g/m*3 14.4 C 0 km/h
1922 08-05-2009 08:41:07 15 C 11.28 g/m*3 15 C 0 km/h
1923 08-05-2009 08:56:07 15.5 C 11.24 g/m*3 15.5 C 0 km/h
1924 08-05-2009 09:11:07 16.2 C 11.17 g/m*3 16.2 C 0 km/h
1925 08-05-2009 09:26:07 16.6 C 11.3 g/m*3 16.6 C 0 km/h
Sensor: Nr:Datum:Temp:Abs-Feuchte:Windchill:Wind:
Aussen-T/F 1926 08-05-2009 09:41:07 15.2 C 10.12 g/m*3 15.2 C 0 km/h
1927 08-05-2009 09:56:07 15.1 C 10.45 g/m*3 15.1 C 0 km/h
1928 08-05-2009 10:11:07 16 C 10.63 g/m*3 16 C 0 km/h
1929 08-05-2009 10:26:07 16.3 C 10.41 g/m*3 16.3 C 0 km/h
1930 08-05-2009 10:41:07 17 C 10.56 g/m*3 17 C 0 km/h
1931 08-05-2009 10:56:07 18.1 C 10.35 g/m*3 18.1 C 0 km/h
1932 08-05-2009 11:11:07 18.4 C 10.38 g/m*3 18.4 C 0 km/h
1933 08-05-2009 11:26:07 18.9 C 10.04 g/m*3 18.9 C 0 km/h
1934 08-05-2009 11:41:07 19.4 C 9.51 g/m*3 19.4 C 0 km/h
1935 08-05-2009 11:56:07 19.5 C 9.4 g/m*3 19.5 C 0 km/h
1936 08-05-2009 12:11:07 19.9 C 9.45 g/m*3 19.9 C 0 km/h
1937 08-05-2009 12:26:08 20.5 C 9.25 g/m*3 20.5 C 0 km/h
1938 08-05-2009 12:41:08 20 C 9.16 g/m*3 20 C 0 km/h
1939 08-05-2009 12:56:08 20.1 C 9.04 g/m*3 20.1 C 0 km/h
1940 08-05-2009 13:11:08 20 C 8.99 g/m*3 20 C 0 km/h
1941 08-05-2009 13:26:08 20.2 C 8.92 g/m*3 20.2 C 0 km/h
1942 08-05-2009 13:41:08 19.9 C 9.11 g/m*3 19.9 C 0 km/h
1943 08-05-2009 13:56:08 21 C 8.98 g/m*3 21 C 0 km/h
1944 08-05-2009 14:11:08 21 C 8.79 g/m*3 21 C 0 km/h
1945 08-05-2009 14:26:08 21.2 C 8.52 g/m*3 21.2 C 0 km/h
1946 08-05-2009 14:41:08 22.3 C 8.49 g/m*3 22.3 C 0 km/h
1947 08-05-2009 14:56:08 22 C 8.15 g/m*3 22 C 0 km/h
1948 08-05-2009 15:11:08 21.9 C 8.1 g/m*3 21.9 C 0 km/h
1949 08-05-2009 15:26:08 22 C 7.96 g/m*3 22 C 0 km/h
1950 08-05-2009 15:41:08 21.9 C 7.72 g/m*3 21.9 C 0 km/h
Sensor: Nr:Datum:Temp:Abs-Feuchte:Windchill:Wind:
Aussen-T/F 1951 08-05-2009 15:56:08 21.1 C 7 g/m*3 21.1 C 0 km/h
1952 08-05-2009 16:11:08 21.8 C 7.1 g/m*3 21.8 C 0 km/h
1953 08-05-2009 16:26:08 21.3 C 6.71 g/m*3 21.3 C 0 km/h
1954 08-05-2009 16:41:08 22.4 C 6.36 g/m*3 22.4 C 0 km/h
1955 08-05-2009 16:56:08 22.2 C 6.48 g/m*3 22.2 C 0 km/h
1956 08-05-2009 17:11:08 21.5 C 6.03 g/m*3 21.5 C 0 km/h
1957 08-05-2009 17:26:08 20.9 C 6.37 g/m*3 20.9 C 0 km/h
1958 08-05-2009 17:41:09 20.8 C 6.52 g/m*3 20.8 C 0 km/h
1959 08-05-2009 17:56:09 21.1 C 6.45 g/m*3 21.1 C 0 km/h
1960 08-05-2009 18:11:09 21.7 C 6.29 g/m*3 21.7 C 0 km/h
1961 08-05-2009 18:26:09 21.4 C 6.37 g/m*3 21.4 C 0 km/h
1962 08-05-2009 18:41:09 20.7 C 6.3 g/m*3 20.7 C 0 km/h
1963 08-05-2009 18:56:09 19.6 C 6.42 g/m*3 19.6 C 0 km/h
1964 08-05-2009 19:11:09 20.2 C 6.47 g/m*3 20.2 C 0 km/h
1965 08-05-2009 19:26:09 20 C 6.39 g/m*3 20 C 0 km/h
1966 08-05-2009 19:41:09 19.1 C 6.23 g/m*3 19.1 C 0 km/h
1967 08-05-2009 19:56:09 18.3 C 5.79 g/m*3 18.3 C 0 km/h
1968 08-05-2009 20:11:09 17.8 C 5.01 g/m*3 17.8 C 0 km/h
1969 08-05-2009 20:26:09 17.7 C 5.28 g/m*3 17.7 C 0 km/h
1970 08-05-2009 20:41:09 17.3 C 5.6 g/m*3 17.3 C 0 km/h
1971 08-05-2009 20:56:09 16.9 C 5.75 g/m*3 16.9 C 0 km/h
1972 08-05-2009 21:11:09 16.3 C 5.83 g/m*3 16.3 C 0 km/h
1973 08-05-2009 21:26:09 15.8 C 6.19 g/m*3 15.8 C 0 km/h
1974 08-05-2009 21:41:09 15.4 C 6.44 g/m*3 15.4 C 0 km/h
1975 08-05-2009 21:56:09 14.7 C 6.55 g/m*3 14.7 C 0 km/h
Sensor: Nr:Datum:Temp:Abs-Feuchte:Windchill:Wind:
Aussen-T/F 1976 08-05-2009 22:11:09 14.3 C 6.76 g/m*3 14.3 C 0 km/h
1977 08-05-2009 22:26:10 14.1 C 6.67 g/m*3 14.1 C 0 km/h
1978 08-05-2009 22:41:10 14.2 C 6.47 g/m*3 14.2 C 0 km/h
1979 08-05-2009 22:56:10 13.9 C 6.23 g/m*3 13.9 C 0 km/h
1980 08-05-2009 23:11:10 13.5 C 6.55 g/m*3 13.5 C 0 km/h
1981 08-05-2009 23:26:10 13 C 6.24 g/m*3 13 C 0 km/h
1982 08-05-2009 23:41:10 12.7 C 6.23 g/m*3 12.7 C 0 km/h
1983 08-05-2009 23:56:10 12.4 C 6.12 g/m*3 12.4 C 0 km/h
1984 09-05-2009 00:11:10 12.1 C 6.11 g/m*3 12.1 C 0 km/h
1985 09-05-2009 00:26:10 11.7 C 6.38 g/m*3 11.7 C 0 km/h
1986 09-05-2009 00:41:10 11.4 C 6.57 g/m*3 11.4 C 0 km/h
1987 09-05-2009 00:56:10 11 C 6.71 g/m*3 11 C 0 km/h
1988 09-05-2009 01:11:10 10.8 C 6.72 g/m*3 10.8 C 0 km/h
1989 09-05-2009 01:26:10 10.5 C 6.6 g/m*3 10.5 C 0 km/h
1990 09-05-2009 01:41:10 10.2 C 6.66 g/m*3 10.2 C 0 km/h
1991 09-05-2009 01:56:10 9.9 C 6.82 g/m*3 9.9 C 0 km/h
1992 09-05-2009 02:11:10 9.7 C 6.82 g/m*3 9.7 C 0 km/h
1993 09-05-2009 02:26:10 9.5 C 6.83 g/m*3 9.5 C 0 km/h
1994 09-05-2009 02:41:10 9.3 C 6.74 g/m*3 9.3 C 0 km/h
1995 09-05-2009 02:56:10 9.1 C 6.65 g/m*3 9.1 C 0 km/h
1996 09-05-2009 03:11:11 8.9 C 6.75 g/m*3 8.9 C 0 km/h
1997 09-05-2009 03:26:11 8.6 C 6.7 g/m*3 8.6 C 0 km/h
1998 09-05-2009 03:41:11 8.4 C 6.7 g/m*3 8.4 C 0 km/h
1999 09-05-2009 03:56:11 8.1 C 6.57 g/m*3 8.1 C 0 km/h
2000 09-05-2009 04:11:11 8 C 6.53 g/m*3 8 C 0 km/h
Sensor: Nr:Datum:Temp:Abs-Feuchte:Windchill:Wind:
Aussen-T/F 2001 09-05-2009 04:26:11 7.9 C 6.65 g/m*3 7.9 C 0 km/h
2002 09-05-2009 04:41:11 7.8 C 6.61 g/m*3 7.8 C 0 km/h
2003 09-05-2009 04:56:11 7.5 C 6.64 g/m*3 7.5 C 0 km/h
2004 09-05-2009 05:11:11 7.4 C 6.6 g/m*3 7.4 C 0 km/h
2005 09-05-2009 05:26:11 7.5 C 6.64 g/m*3 7.5 C 0 km/h
2006 09-05-2009 05:41:11 7.4 C 6.68 g/m*3 7.4 C 0 km/h
2007 09-05-2009 05:56:11 7.2 C 6.59 g/m*3 7.2 C 0 km/h
2008 09-05-2009 06:11:11 7.1 C 6.55 g/m*3 7.1 C 0 km/h
2009 09-05-2009 06:26:11 7.2 C 6.59 g/m*3 7.2 C 0 km/h
2010 09-05-2009 06:41:11 7.3 C 6.64 g/m*3 7.3 C 0 km/h
2011 09-05-2009 06:56:11 7.7 C 6.81 g/m*3 7.7 C 0 km/h
2012 09-05-2009 07:11:11 7.8 C 6.77 g/m*3 7.8 C 0 km/h
2013 09-05-2009 07:26:11 8 C 6.78 g/m*3 8 C 0 km/h
2014 09-05-2009 07:41:11 7.8 C 6.77 g/m*3 7.8 C 0 km/h
2015 09-05-2009 07:56:12 8.3 C 6.91 g/m*3 8.3 C 0 km/h
2016 09-05-2009 08:11:12 9 C 6.96 g/m*3 9 C 0 km/h
2017 09-05-2009 08:26:12 9.5 C 6.92 g/m*3 9.5 C 0 km/h
2018 09-05-2009 08:41:12 10.2 C 6.95 g/m*3 10.2 C 0 km/h
2019 09-05-2009 08:56:12 10.7 C 6.97 g/m*3 10.7 C 0 km/h
2020 09-05-2009 09:11:12 11.4 C 7.19 g/m*3 11.4 C 0 km/h
2021 09-05-2009 09:26:12 12.1 C 7.18 g/m*3 12.1 C 0 km/h
2022 09-05-2009 09:41:12 11.9 C 7.1 g/m*3 11.9 C 0 km/h
2023 09-05-2009 09:56:12 12.6 C 7.3 g/m*3 12.6 C 0 km/h
2024 09-05-2009 10:11:12 13.5 C 7.25 g/m*3 13.5 C 0 km/h
2025 09-05-2009 10:26:12 14.3 C 7.25 g/m*3 14.3 C 0 km/h
Sensor: Nr:Datum:Temp:Abs-Feuchte:Windchill:Wind:
Aussen-T/F 2026 09-05-2009 10:41:12 15 C 7.31 g/m*3 15 C 0 km/h
2027 09-05-2009 10:56:12 16.1 C 7.26 g/m*3 16.1 C 0 km/h
2028 09-05-2009 11:11:12 16.4 C 6.98 g/m*3 16.4 C 0 km/h
2029 09-05-2009 11:26:12 17.3 C 6.78 g/m*3 17.3 C 0 km/h
2030 09-05-2009 11:41:12 18 C 6.6 g/m*3 18 C 0 km/h
2031 09-05-2009 11:56:12 18.6 C 6.53 g/m*3 18.6 C 0 km/h
2032 09-05-2009 12:11:12 18.4 C 6.76 g/m*3 18.4 C 0 km/h
2033 09-05-2009 12:26:12 18.7 C 6.72 g/m*3 18.7 C 0 km/h
2034 09-05-2009 12:41:12 19.5 C 7.05 g/m*3 19.5 C 0 km/h
2035 09-05-2009 12:56:13 19.3 C 6.47 g/m*3 19.3 C 0 km/h
2036 09-05-2009 13:11:13 19.5 C 6.71 g/m*3 19.5 C 0 km/h
2037 09-05-2009 13:26:13 20.1 C 6.43 g/m*3 20.1 C 0 km/h
2038 09-05-2009 13:41:13 20.4 C 6.55 g/m*3 20.4 C 0 km/h
2039 09-05-2009 13:56:13 21.1 C 6.45 g/m*3 21.1 C 0 km/h
2040 09-05-2009 14:11:13 20.1 C 6.43 g/m*3 20.1 C 0 km/h
2041 09-05-2009 14:26:13 19.8 C 7 g/m*3 19.8 C 0 km/h
2042 09-05-2009 14:41:13 20.6 C 6.62 g/m*3 20.6 C 0 km/h
2043 09-05-2009 14:56:13 21.1 C 6.63 g/m*3 21.1 C 0 km/h
2044 09-05-2009 15:11:13 20.8 C 6.7 g/m*3 20.8 C 0 km/h
2045 09-05-2009 15:26:13 20.4 C 6.9 g/m*3 20.4 C 0 km/h
2046 09-05-2009 15:41:13 20.1 C 6.95 g/m*3 20.1 C 0 km/h
2047 09-05-2009 15:56:13 20.8 C 7.06 g/m*3 20.8 C 0 km/h
2048 09-05-2009 16:11:13 22.6 C 7.23 g/m*3 22.6 C 0 km/h
2049 09-05-2009 16:26:13 22.7 C 7.07 g/m*3 22.7 C 0 km/h
2050 09-05-2009 16:41:13 22.7 C 7.07 g/m*3 22.7 C 0 km/h
Sensor: Nr:Datum:Temp:Abs-Feuchte:Windchill:Wind:
Aussen-T/F 2051 09-05-2009 16:56:13 22.6 C 7.63 g/m*3 22.6 C 0 km/h
2052 09-05-2009 17:11:13 23.4 C 7.36 g/m*3 23.4 C 0 km/h
2053 09-05-2009 17:26:13 23.5 C 6.98 g/m*3 23.5 C 0 km/h
2054 09-05-2009 17:41:13 23.2 C 7.28 g/m*3 23.2 C 0 km/h
2055 09-05-2009 17:56:14 22.4 C 7.35 g/m*3 22.4 C 0 km/h
2056 09-05-2009 18:11:14 21.2 C 7.78 g/m*3 21.2 C 0 km/h
2057 09-05-2009 18:26:14 21.3 C 8.2 g/m*3 21.3 C 0 km/h
2058 09-05-2009 18:41:14 21.8 C 7.87 g/m*3 21.8 C 0 km/h
2059 09-05-2009 18:56:14 20.9 C 8.2 g/m*3 20.9 C 0 km/h
2060 09-05-2009 19:11:14 20.1 C 8.69 g/m*3 20.1 C 0 km/h
2061 09-05-2009 19:26:14 17.8 C 10.47 g/m*3 17.8 C 0 km/h
2062 09-05-2009 19:41:14 17 C 10.56 g/m*3 17 C 0 km/h
2063 09-05-2009 19:56:14 17 C 10.56 g/m*3 17 C 0 km/h
2064 09-05-2009 20:11:14 16.8 C 10.72 g/m*3 16.8 C 0 km/h
2065 09-05-2009 20:26:14 15.6 C 10.91 g/m*3 15.6 C 0 km/h
2066 09-05-2009 20:41:14 15.3 C 11.1 g/m*3 15.3 C 0 km/h
2067 09-05-2009 20:56:14 14.9 C 11.22 g/m*3 14.9 C 0 km/h
2068 09-05-2009 21:11:14 13.9 C 10.67 g/m*3 13.9 C 0 km/h
2069 09-05-2009 21:26:14 13.4 C 10.46 g/m*3 13.4 C 0 km/h
2070 09-05-2009 21:41:14 13.4 C 10.69 g/m*3 13.4 C 0 km/h
2071 09-05-2009 21:56:14 13.4 C 10.81 g/m*3 13.4 C 0 km/h
2072 09-05-2009 22:11:14 13.5 C 10.88 g/m*3 13.5 C 0 km/h
2073 09-05-2009 22:26:14 13.5 C 10.88 g/m*3 13.5 C 0 km/h
2074 09-05-2009 22:41:14 13 C 10.55 g/m*3 13 C 0 km/h
2075 09-05-2009 22:56:15 13.3 C 10.86 g/m*3 13.3 C 0 km/h
Sensor: Nr:Datum:Temp:Abs-Feuchte:Windchill:Wind:
Aussen-T/F 2076 09-05-2009 23:11:15 13.2 C 10.79 g/m*3 13.2 C 0 km/h
2077 09-05-2009 23:26:15 13.1 C 10.73 g/m*3 13.1 C 0 km/h
2078 09-05-2009 23:41:15 13.1 C 10.73 g/m*3 13.1 C 0 km/h
2079 09-05-2009 23:56:15 13.2 C 10.79 g/m*3 13.2 C 0 km/h
2080 10-05-2009 00:11:15 13.1 C 10.73 g/m*3 13.1 C 0 km/h
2081 10-05-2009 00:26:15 13 C 10.66 g/m*3 13 C 0 km/h
2082 10-05-2009 00:41:15 13 C 10.66 g/m*3 13 C 0 km/h
2083 10-05-2009 00:56:15 13 C 10.66 g/m*3 13 C 0 km/h
2084 10-05-2009 01:11:15 13 C 10.66 g/m*3 13 C 0 km/h
2085 10-05-2009 01:26:15 12.9 C 10.71 g/m*3 12.9 C 0 km/h
2086 10-05-2009 01:41:15 12.9 C 10.71 g/m*3 12.9 C 0 km/h
2087 10-05-2009 01:56:15 12.9 C 10.71 g/m*3 12.9 C 0 km/h
2088 10-05-2009 02:11:15 12.8 C 10.64 g/m*3 12.8 C 0 km/h
2089 10-05-2009 02:26:15 12.6 C 10.51 g/m*3 12.6 C 0 km/h
2090 10-05-2009 02:41:15 12.6 C 10.51 g/m*3 12.6 C 0 km/h
2091 10-05-2009 02:56:15 12.5 C 10.44 g/m*3 12.5 C 0 km/h
2092 10-05-2009 03:11:15 12.5 C 10.44 g/m*3 12.5 C 0 km/h
2093 10-05-2009 03:26:15 12.5 C 10.44 g/m*3 12.5 C 0 km/h
2094 10-05-2009 03:41:15 12.3 C 10.32 g/m*3 12.3 C 0 km/h
2095 10-05-2009 03:56:16 12.2 C 10.25 g/m*3 12.2 C 0 km/h
2096 10-05-2009 04:11:16 12.2 C 10.25 g/m*3 12.2 C 0 km/h
2097 10-05-2009 04:26:16 12.3 C 10.32 g/m*3 12.3 C 0 km/h
2098 10-05-2009 04:41:16 12.2 C 10.25 g/m*3 12.2 C 0 km/h
2099 10-05-2009 04:56:16 12.2 C 10.25 g/m*3 12.2 C 0 km/h
2100 10-05-2009 05:11:16 12.2 C 10.25 g/m*3 12.2 C 0 km/h
Sensor: Nr:Datum:Temp:Abs-Feuchte:Windchill:Wind:
Aussen-T/F 2101 10-05-2009 05:26:16 12 C 10.12 g/m*3 12 C 0 km/h
2102 10-05-2009 05:41:16 11.8 C 10 g/m*3 11.8 C 0 km/h
2103 10-05-2009 05:56:16 12 C 10.12 g/m*3 12 C 0 km/h
2104 10-05-2009 06:11:16 12 C 10.12 g/m*3 12 C 0 km/h
2105 10-05-2009 06:26:16 12.2 C 10.25 g/m*3 12.2 C 0 km/h
2106 10-05-2009 06:41:16 12.4 C 10.38 g/m*3 12.4 C 0 km/h
2107 10-05-2009 06:56:16 12.7 C 10.58 g/m*3 12.7 C 0 km/h
2108 10-05-2009 07:11:16 12.9 C 10.71 g/m*3 12.9 C 0 km/h
2109 10-05-2009 07:26:16 13.1 C 10.84 g/m*3 13.1 C 0 km/h
2110 10-05-2009 07:41:16 13.1 C 10.84 g/m*3 13.1 C 0 km/h
2111 10-05-2009 07:56:16 13.1 C 10.84 g/m*3 13.1 C 0 km/h
2112 10-05-2009 08:11:16 13.3 C 10.98 g/m*3 13.3 C 0 km/h
2113 10-05-2009 08:26:16 13.3 C 10.86 g/m*3 13.3 C 0 km/h
2114 10-05-2009 08:41:16 13.4 C 10.81 g/m*3 13.4 C 0 km/h
2115 10-05-2009 08:56:17 13.8 C 10.84 g/m*3 13.8 C 0 km/h
2116 10-05-2009 09:11:17 14.4 C 10.38 g/m*3 14.4 C 0 km/h
2117 10-05-2009 09:26:17 14.5 C 9.83 g/m*3 14.5 C 0 km/h
2118 10-05-2009 09:41:17 15.4 C 9.99 g/m*3 15.4 C 0 km/h
2119 10-05-2009 09:56:17 15.5 C 9.78 g/m*3 15.5 C 0 km/h
2120 10-05-2009 10:11:17 15.5 C 9.78 g/m*3 15.5 C 0 km/h
2121 10-05-2009 10:26:17 15.8 C 9.83 g/m*3 15.8 C 0 km/h
2122 10-05-2009 10:41:17 16.3 C 9.99 g/m*3 16.3 C 0 km/h
2123 10-05-2009 10:56:17 16.8 C 9.58 g/m*3 16.8 C 0 km/h
2124 10-05-2009 11:11:17 17.5 C 9.69 g/m*3 17.5 C 0 km/h
2125 10-05-2009 11:26:17 17.7 C 8.75 g/m*3 17.7 C 0 km/h
Sensor: Nr:Datum:Temp:Abs-Feuchte:Windchill:Wind:
Aussen-T/F 2126 10-05-2009 11:41:17 18.5 C 7.28 g/m*3 18.5 C 0 km/h
2127 10-05-2009 11:56:17 18.9 C 6.32 g/m*3 18.9 C 0 km/h
2128 10-05-2009 12:11:17 19.3 C 5.97 g/m*3 19.3 C 0 km/h
2129 10-05-2009 12:26:17 19.9 C 6.01 g/m*3 19.9 C 0 km/h
2130 10-05-2009 12:41:17 20.8 C 5.79 g/m*3 20.8 C 0 km/h
2131 10-05-2009 12:56:17 21.6 C 5.5 g/m*3 21.6 C 0 km/h
2132 10-05-2009 13:11:17 22.2 C 4.91 g/m*3 22.2 C 0 km/h
2133 10-05-2009 13:26:17 22.6 C 5.22 g/m*3 22.6 C 0 km/h
2134 10-05-2009 13:41:17 22.5 C 5.19 g/m*3 22.5 C 0 km/h
2135 10-05-2009 13:56:18 21.8 C 5.76 g/m*3 21.8 C 0 km/h
2136 10-05-2009 14:11:18 22.4 C 5.76 g/m*3 22.4 C 0 km/h
2137 10-05-2009 14:26:18 23.4 C 5.89 g/m*3 23.4 C 0 km/h
2138 10-05-2009 14:41:18 23.5 C 5.5 g/m*3 23.5 C 0 km/h
2139 10-05-2009 14:56:18 23.9 C 5.62 g/m*3 23.9 C 0 km/h
2140 10-05-2009 15:11:18 24.9 C 5.72 g/m*3 24.9 C 0 km/h
2141 10-05-2009 15:26:18 25.3 C 5.15 g/m*3 25.3 C 0 km/h
2142 10-05-2009 15:41:18 25.4 C 5.41 g/m*3 25.4 C 0 km/h
2143 10-05-2009 15:56:18 26.3 C 5.2 g/m*3 26.3 C 0 km/h
2144 10-05-2009 16:11:18 25.8 C 4.82 g/m*3 25.8 C 0 km/h
2145 10-05-2009 16:26:18 26.8 C 5.09 g/m*3 26.8 C 0 km/h
2146 10-05-2009 16:41:18 27.9 C 5.41 g/m*3 27.9 C 0 km/h
2147 10-05-2009 16:56:18 28.1 C 5.47 g/m*3 28.1 C 0 km/h
2148 10-05-2009 17:11:18 28.3 C 5.53 g/m*3 28.3 C 0 km/h
2149 10-05-2009 17:26:18 27.7 C 5.35 g/m*3 27.7 C 0 km/h
2150 10-05-2009 17:41:18 27.4 C 5.26 g/m*3 27.4 C 0 km/h
Sensor: Nr:Datum:Temp:Abs-Feuchte:Windchill:Wind:
Aussen-T/F 2151 10-05-2009 17:56:18 27.5 C 5.29 g/m*3 27.5 C 0 km/h
2152 10-05-2009 18:11:18 26.6 C 5.03 g/m*3 26.6 C 0 km/h
2153 10-05-2009 18:26:18 25.5 C 5.92 g/m*3 25.5 C 0 km/h
2154 10-05-2009 18:41:19 24.6 C 6.98 g/m*3 24.6 C 0 km/h
2155 10-05-2009 18:56:19 24.5 C 6.71 g/m*3 24.5 C 0 km/h
2156 10-05-2009 19:11:19 23.4 C 6.94 g/m*3 23.4 C 0 km/h
2157 10-05-2009 19:26:19 22.5 C 7.39 g/m*3 22.5 C 0 km/h
2158 10-05-2009 19:41:19 21.5 C 7.73 g/m*3 21.5 C 0 km/h
2159 10-05-2009 19:56:19 20.8 C 7.79 g/m*3 20.8 C 0 km/h
2160 10-05-2009 20:11:19 20.1 C 7.65 g/m*3 20.1 C 0 km/h
2161 10-05-2009 20:26:19 19.6 C 7.6 g/m*3 19.6 C 0 km/h
2162 10-05-2009 20:41:19 19.2 C 7.75 g/m*3 19.2 C 0 km/h
2163 10-05-2009 20:56:19 19.1 C 7.7 g/m*3 19.1 C 0 km/h
2164 10-05-2009 21:11:19 18.9 C 7.78 g/m*3 18.9 C 0 km/h
2165 10-05-2009 21:26:19 18.1 C 8.03 g/m*3 18.1 C 0 km/h
2166 10-05-2009 21:41:19 18.3 C 8.29 g/m*3 18.3 C 0 km/h
2167 10-05-2009 21:56:19 16.7 C 9.81 g/m*3 16.7 C 0 km/h
2168 10-05-2009 22:11:19 15.7 C 10.44 g/m*3 15.7 C 0 km/h
2169 10-05-2009 22:26:19 15.7 C 11.24 g/m*3 15.7 C 0 km/h
2170 10-05-2009 22:41:19 15.6 C 11.57 g/m*3 15.6 C 0 km/h
2171 10-05-2009 22:56:19 15.6 C 11.84 g/m*3 15.6 C 0 km/h
2172 10-05-2009 23:11:19 15.4 C 11.82 g/m*3 15.4 C 0 km/h
2173 10-05-2009 23:26:20 15.4 C 11.96 g/m*3 15.4 C 0 km/h
2174 10-05-2009 23:41:20 15.2 C 11.81 g/m*3 15.2 C 0 km/h
2175 10-05-2009 23:56:20 15.1 C 11.74 g/m*3 15.1 C 0 km/h
Sensor: Nr:Datum:Temp:Abs-Feuchte:Windchill:Wind:
Aussen-T/F 2176 11-05-2009 00:11:20 15.1 C 11.87 g/m*3 15.1 C 0 km/h
2177 11-05-2009 00:26:20 15.2 C 11.94 g/m*3 15.2 C 0 km/h
2178 11-05-2009 00:41:20 14.8 C 11.78 g/m*3 14.8 C 0 km/h
2179 11-05-2009 00:56:20 14.7 C 11.71 g/m*3 14.7 C 0 km/h
2180 11-05-2009 01:11:20 14.5 C 11.57 g/m*3 14.5 C 0 km/h
2181 11-05-2009 01:26:20 14.6 C 11.64 g/m*3 14.6 C 0 km/h
2182 11-05-2009 01:41:20 14.6 C 11.64 g/m*3 14.6 C 0 km/h
2183 11-05-2009 01:56:20 14.6 C 11.64 g/m*3 14.6 C 0 km/h
2184 11-05-2009 02:11:20 14.5 C 11.57 g/m*3 14.5 C 0 km/h
2185 11-05-2009 02:26:20 14.5 C 11.57 g/m*3 14.5 C 0 km/h
2186 11-05-2009 02:41:20 14.4 C 11.5 g/m*3 14.4 C 0 km/h
2187 11-05-2009 02:56:20 14.3 C 11.43 g/m*3 14.3 C 0 km/h
2188 11-05-2009 03:11:20 14.4 C 11.5 g/m*3 14.4 C 0 km/h
2189 11-05-2009 03:26:20 14.4 C 11.5 g/m*3 14.4 C 0 km/h
2190 11-05-2009 03:41:20 14.4 C 11.62 g/m*3 14.4 C 0 km/h
2191 11-05-2009 03:56:20 14 C 11.22 g/m*3 14 C 0 km/h
2192 11-05-2009 04:11:20 13.7 C 11.13 g/m*3 13.7 C 0 km/h
2193 11-05-2009 04:26:21 13.5 C 10.99 g/m*3 13.5 C 0 km/h
2194 11-05-2009 04:41:21 13.5 C 10.99 g/m*3 13.5 C 0 km/h
2195 11-05-2009 04:56:21 13.4 C 10.93 g/m*3 13.4 C 0 km/h
2196 11-05-2009 05:11:21 13.5 C 10.99 g/m*3 13.5 C 0 km/h
2197 11-05-2009 05:26:21 13.7 C 11.25 g/m*3 13.7 C 0 km/h
2198 11-05-2009 05:41:21 13.6 C 11.18 g/m*3 13.6 C 0 km/h
2199 11-05-2009 05:56:21 13.2 C 10.79 g/m*3 13.2 C 0 km/h
2200 11-05-2009 06:11:21 13.1 C 10.73 g/m*3 13.1 C 0 km/h
Sensor: Nr:Datum:Temp:Abs-Feuchte:Windchill:Wind:
Aussen-T/F 2201 11-05-2009 06:26:21 13.4 C 11.04 g/m*3 13.4 C 0 km/h
2202 11-05-2009 06:41:21 13.3 C 10.98 g/m*3 13.3 C 0 km/h
2203 11-05-2009 06:56:21 13.4 C 11.04 g/m*3 13.4 C 0 km/h
2204 11-05-2009 07:11:21 13.4 C 11.04 g/m*3 13.4 C 0 km/h
2205 11-05-2009 07:26:21 13.5 C 11.11 g/m*3 13.5 C 0 km/h
2206 11-05-2009 07:41:21 13.7 C 11.25 g/m*3 13.7 C 0 km/h
2207 11-05-2009 07:56:21 13.6 C 11.18 g/m*3 13.6 C 0 km/h
2208 11-05-2009 08:11:21 13.6 C 11.18 g/m*3 13.6 C 0 km/h
2209 11-05-2009 08:26:21 13.7 C 11.25 g/m*3 13.7 C 0 km/h
2210 11-05-2009 08:41:21 13.6 C 11.18 g/m*3 13.6 C 0 km/h
2211 11-05-2009 08:56:21 13.5 C 11.11 g/m*3 13.5 C 0 km/h
2212 11-05-2009 09:11:21 13.7 C 11.25 g/m*3 13.7 C 0 km/h
2213 11-05-2009 09:26:21 14 C 11.46 g/m*3 14 C 0 km/h
2214 11-05-2009 09:41:22 14.1 C 11.53 g/m*3 14.1 C 0 km/h
2215 11-05-2009 09:56:22 14.1 C 11.53 g/m*3 14.1 C 0 km/h
2216 11-05-2009 10:11:22 14.2 C 11.6 g/m*3 14.2 C 0 km/h
2217 11-05-2009 10:26:22 14.5 C 11.82 g/m*3 14.5 C 0 km/h
2218 11-05-2009 10:41:22 14.1 C 11.53 g/m*3 14.1 C 0 km/h
2219 11-05-2009 10:56:22 14 C 11.46 g/m*3 14 C 0 km/h
2220 11-05-2009 11:11:22 14.4 C 11.74 g/m*3 14.4 C 0 km/h
2221 11-05-2009 11:26:22 14.4 C 11.74 g/m*3 14.4 C 0 km/h
2222 11-05-2009 11:41:22 14.5 C 11.82 g/m*3 14.5 C 0 km/h
2223 11-05-2009 11:56:22 14.6 C 11.89 g/m*3 14.6 C 0 km/h
2224 11-05-2009 12:11:22 14.6 C 11.76 g/m*3 14.6 C 0 km/h
2225 11-05-2009 12:26:22 14.5 C 11.69 g/m*3 14.5 C 0 km/h
Sensor: Nr:Datum:Temp:Abs-Feuchte:Windchill:Wind:
Aussen-T/F 2226 11-05-2009 12:41:22 14.5 C 11.69 g/m*3 14.5 C 0 km/h
2227 11-05-2009 12:56:22 14.3 C 11.43 g/m*3 14.3 C 0 km/h
2228 11-05-2009 13:11:22 14.1 C 11.41 g/m*3 14.1 C 0 km/h
2229 11-05-2009 13:26:22 13.7 C 11.13 g/m*3 13.7 C 0 km/h
2230 11-05-2009 13:41:22 13.8 C 11.2 g/m*3 13.8 C 0 km/h
2231 11-05-2009 13:56:22 13.8 C 11.2 g/m*3 13.8 C 0 km/h
2232 11-05-2009 14:11:22 14 C 11.34 g/m*3 14 C 0 km/h
2233 11-05-2009 14:26:22 13.8 C 11.2 g/m*3 13.8 C 0 km/h
2234 11-05-2009 14:41:23 13.9 C 11.27 g/m*3 13.9 C 0 km/h
2235 11-05-2009 14:56:23 13.7 C 11.13 g/m*3 13.7 C 0 km/h
2236 11-05-2009 15:11:23 13.5 C 10.99 g/m*3 13.5 C 0 km/h
2237 11-05-2009 15:26:23 13.3 C 10.74 g/m*3 13.3 C 0 km/h
2238 11-05-2009 15:41:23 13.3 C 10.74 g/m*3 13.3 C 0 km/h
2239 11-05-2009 15:56:23 13.2 C 10.68 g/m*3 13.2 C 0 km/h
2240 11-05-2009 16:11:23 13.4 C 10.81 g/m*3 13.4 C 0 km/h
2241 11-05-2009 16:26:23 13.6 C 10.95 g/m*3 13.6 C 0 km/h
2242 11-05-2009 16:41:23 13.7 C 11.01 g/m*3 13.7 C 0 km/h
2243 11-05-2009 16:56:23 13.6 C 10.95 g/m*3 13.6 C 0 km/h
2244 11-05-2009 17:11:23 13.5 C 10.88 g/m*3 13.5 C 0 km/h
2245 11-05-2009 17:26:23 13.5 C 10.88 g/m*3 13.5 C 0 km/h
2246 11-05-2009 17:41:23 13.4 C 10.93 g/m*3 13.4 C 0 km/h
2247 11-05-2009 17:56:23 13.1 C 10.73 g/m*3 13.1 C 0 km/h
2248 11-05-2009 18:11:23 13.2 C 10.79 g/m*3 13.2 C 0 km/h
2249 11-05-2009 18:26:23 13.2 C 10.79 g/m*3 13.2 C 0 km/h
2250 11-05-2009 18:41:23 13.2 C 10.79 g/m*3 13.2 C 0 km/h
Sensor: Nr:Datum:Temp:Abs-Feuchte:Windchill:Wind:
Aussen-T/F 2251 11-05-2009 18:56:23 13 C 10.66 g/m*3 13 C 0 km/h
2252 11-05-2009 19:11:23 13 C 10.66 g/m*3 13 C 0 km/h
2253 11-05-2009 19:26:23 13 C 10.66 g/m*3 13 C 0 km/h
2254 11-05-2009 19:41:24 12.8 C 10.64 g/m*3 12.8 C 0 km/h
2255 11-05-2009 19:56:24 12.7 C 10.58 g/m*3 12.7 C 0 km/h
2256 11-05-2009 20:11:24 12.3 C 10.32 g/m*3 12.3 C 0 km/h
2257 11-05-2009 20:26:24 12.3 C 10.32 g/m*3 12.3 C 0 km/h
2258 11-05-2009 20:41:24 12.4 C 10.38 g/m*3 12.4 C 0 km/h
2259 11-05-2009 20:56:24 12.5 C 10.44 g/m*3 12.5 C 0 km/h
2260 11-05-2009 21:11:24 12.6 C 10.51 g/m*3 12.6 C 0 km/h
2261 11-05-2009 21:26:24 12.6 C 10.51 g/m*3 12.6 C 0 km/h
2262 11-05-2009 21:41:24 12.4 C 10.38 g/m*3 12.4 C 0 km/h
2263 11-05-2009 21:56:24 12.3 C 10.32 g/m*3 12.3 C 0 km/h
2264 11-05-2009 22:11:24 12.1 C 10.19 g/m*3 12.1 C 0 km/h
2265 11-05-2009 22:26:24 12.1 C 10.19 g/m*3 12.1 C 0 km/h
2266 11-05-2009 22:41:24 12 C 10.12 g/m*3 12 C 0 km/h
2267 11-05-2009 22:56:24 11.9 C 10.06 g/m*3 11.9 C 0 km/h
2268 11-05-2009 23:11:24 12 C 10.12 g/m*3 12 C 0 km/h
2269 11-05-2009 23:26:24 12 C 10.12 g/m*3 12 C 0 km/h
2270 11-05-2009 23:41:24 12 C 10.12 g/m*3 12 C 0 km/h
2271 11-05-2009 23:56:24 12 C 10.12 g/m*3 12 C 0 km/h
2272 12-05-2009 00:11:24 11.8 C 10 g/m*3 11.8 C 0 km/h
2273 12-05-2009 00:26:24 11.8 C 10 g/m*3 11.8 C 0 km/h
2274 12-05-2009 00:41:25 11.8 C 10 g/m*3 11.8 C 0 km/h
2275 12-05-2009 00:56:25 11.8 C 10 g/m*3 11.8 C 0 km/h
Sensor: Nr:Datum:Temp:Abs-Feuchte:Windchill:Wind:
Aussen-T/F 2276 12-05-2009 01:11:25 11.7 C 9.94 g/m*3 11.7 C 0 km/h
2277 12-05-2009 01:26:25 11.8 C 10 g/m*3 11.8 C 0 km/h
2278 12-05-2009 01:41:25 11.7 C 9.94 g/m*3 11.7 C 0 km/h
2279 12-05-2009 01:56:25 11.7 C 9.83 g/m*3 11.7 C 0 km/h
2280 12-05-2009 02:11:25 11.7 C 9.83 g/m*3 11.7 C 0 km/h
2281 12-05-2009 02:26:25 11.6 C 9.67 g/m*3 11.6 C 0 km/h
2282 12-05-2009 02:41:25 11.6 C 9.56 g/m*3 11.6 C 0 km/h
2283 12-05-2009 02:56:25 11.5 C 9.5 g/m*3 11.5 C 0 km/h
2284 12-05-2009 03:11:25 11.5 C 9.4 g/m*3 11.5 C 0 km/h
2285 12-05-2009 03:26:25 11.4 C 9.34 g/m*3 11.4 C 0 km/h
2286 12-05-2009 03:41:25 11.4 C 9.14 g/m*3 11.4 C 0 km/h
2287 12-05-2009 03:56:25 11.3 C 8.98 g/m*3 11.3 C 0 km/h
2288 12-05-2009 04:11:25 11.2 C 8.82 g/m*3 11.2 C 0 km/h
2289 12-05-2009 04:26:25 11.1 C 8.66 g/m*3 11.1 C 0 km/h
2290 12-05-2009 04:41:25 11.1 C 8.56 g/m*3 11.1 C 0 km/h
2291 12-05-2009 04:56:25 11 C 8.41 g/m*3 11 C 0 km/h
2292 12-05-2009 05:11:25 11 C 8.31 g/m*3 11 C 0 km/h
2293 12-05-2009 05:26:26 10.9 C 8.16 g/m*3 10.9 C 0 km/h
2294 12-05-2009 05:41:26 10.8 C 8.01 g/m*3 10.8 C 0 km/h
2295 12-05-2009 05:56:26 10.6 C 8 g/m*3 10.6 C 0 km/h
2296 12-05-2009 06:11:26 10.6 C 8 g/m*3 10.6 C 0 km/h
2297 12-05-2009 06:26:26 10.7 C 8.05 g/m*3 10.7 C 0 km/h
2298 12-05-2009 06:41:26 10.9 C 8.06 g/m*3 10.9 C 0 km/h
2299 12-05-2009 06:56:26 11.1 C 8.06 g/m*3 11.1 C 0 km/h
2300 12-05-2009 07:11:26 11.4 C 8.11 g/m*3 11.4 C 0 km/h
Sensor: Nr:Datum:Temp:Abs-Feuchte:Windchill:Wind:
Aussen-T/F 2301 12-05-2009 07:26:26 11.5 C 8.06 g/m*3 11.5 C 0 km/h
2302 12-05-2009 07:41:26 11.7 C 8.05 g/m*3 11.7 C 0 km/h
2303 12-05-2009 07:56:26 12.1 C 8.04 g/m*3 12.1 C 0 km/h
2304 12-05-2009 08:11:26 12.2 C 7.99 g/m*3 12.2 C 0 km/h
2305 12-05-2009 08:26:26 12.3 C 7.93 g/m*3 12.3 C 0 km/h
2306 12-05-2009 08:41:26 12.6 C 7.97 g/m*3 12.6 C 0 km/h
2307 12-05-2009 08:56:26 12.7 C 8.01 g/m*3 12.7 C 0 km/h
2308 12-05-2009 09:11:26 12.9 C 8 g/m*3 12.9 C 0 km/h
2309 12-05-2009 09:26:26 13.5 C 7.95 g/m*3 13.5 C 0 km/h
2310 12-05-2009 09:41:26 14.1 C 7.77 g/m*3 14.1 C 0 km/h
2311 12-05-2009 09:56:26 13.6 C 7.77 g/m*3 13.6 C 0 km/h
2312 12-05-2009 10:11:27 13.5 C 7.95 g/m*3 13.5 C 0 km/h
2313 12-05-2009 10:26:27 13.2 C 7.92 g/m*3 13.2 C 0 km/h
2314 12-05-2009 10:41:27 12.5 C 8.36 g/m*3 12.5 C 0 km/h
2315 12-05-2009 10:56:27 12 C 8.53 g/m*3 12 C 0 km/h
2316 12-05-2009 11:11:27 11.4 C 8.93 g/m*3 11.4 C 0 km/h
2317 12-05-2009 11:26:27 11.4 C 9.24 g/m*3 11.4 C 0 km/h
2318 12-05-2009 11:41:27 11.6 C 9.46 g/m*3 11.6 C 0 km/h
2319 12-05-2009 11:56:27 11.7 C 9.52 g/m*3 11.7 C 0 km/h
2320 12-05-2009 12:11:27 11.8 C 9.68 g/m*3 11.8 C 0 km/h
2321 12-05-2009 12:26:27 11.9 C 9.74 g/m*3 11.9 C 0 km/h
2322 12-05-2009 12:41:27 11.7 C 9.62 g/m*3 11.7 C 0 km/h
2323 12-05-2009 12:56:27 11.8 C 9.68 g/m*3 11.8 C 0 km/h
2324 12-05-2009 13:11:27 12.1 C 9.87 g/m*3 12.1 C 0 km/h
2325 12-05-2009 13:26:27 12 C 9.8 g/m*3 12 C 0 km/h
Sensor: Nr:Datum:Temp:Abs-Feuchte:Windchill:Wind:
Aussen-T/F 2326 12-05-2009 13:41:27 11.8 C 9.79 g/m*3 11.8 C 0 km/h
2327 12-05-2009 13:56:27 12.1 C 9.97 g/m*3 12.1 C 0 km/h
2328 12-05-2009 14:11:27 12.3 C 10.1 g/m*3 12.3 C 0 km/h
2329 12-05-2009 14:26:27 12 C 9.91 g/m*3 12 C 0 km/h
2330 12-05-2009 14:41:27 11.8 C 9.79 g/m*3 11.8 C 0 km/h
2331 12-05-2009 14:56:28 12.2 C 10.04 g/m*3 12.2 C 0 km/h
2332 12-05-2009 15:11:28 12.3 C 9.99 g/m*3 12.3 C 0 km/h
2333 12-05-2009 15:26:28 12.5 C 9.89 g/m*3 12.5 C 0 km/h
2334 12-05-2009 15:41:28 12.6 C 9.51 g/m*3 12.6 C 0 km/h
2335 12-05-2009 15:56:28 12.5 C 9.35 g/m*3 12.5 C 0 km/h
2336 12-05-2009 16:11:28 12.4 C 9.18 g/m*3 12.4 C 0 km/h
2337 12-05-2009 16:26:28 12.2 C 9.17 g/m*3 12.2 C 0 km/h
2338 12-05-2009 16:41:28 12 C 9.17 g/m*3 12 C 0 km/h
2339 12-05-2009 16:56:28 12 C 9.38 g/m*3 12 C 0 km/h
2340 12-05-2009 17:11:28 11.9 C 9.43 g/m*3 11.9 C 0 km/h
2341 12-05-2009 17:26:28 11.8 C 9.47 g/m*3 11.8 C 0 km/h
2342 12-05-2009 17:41:28 12.1 C 9.54 g/m*3 12.1 C 0 km/h
2343 12-05-2009 17:56:28 12.4 C 9.72 g/m*3 12.4 C 0 km/h
2344 12-05-2009 18:11:28 12.4 C 9.51 g/m*3 12.4 C 0 km/h
2345 12-05-2009 18:26:28 11.8 C 9.16 g/m*3 11.8 C 0 km/h
2346 12-05-2009 18:41:28 11.7 C 9.31 g/m*3 11.7 C 0 km/h
2347 12-05-2009 18:56:28 11.6 C 9.46 g/m*3 11.6 C 0 km/h
2348 12-05-2009 19:11:28 11.7 C 9.62 g/m*3 11.7 C 0 km/h
2349 12-05-2009 19:26:29 12 C 9.8 g/m*3 12 C 0 km/h
2350 12-05-2009 19:41:29 12.2 C 9.82 g/m*3 12.2 C 0 km/h
Sensor: Nr:Datum:Temp:Abs-Feuchte:Windchill:Wind:
Aussen-T/F 2351 12-05-2009 19:56:29 12.3 C 9.88 g/m*3 12.3 C 0 km/h
2352 12-05-2009 20:11:29 12.2 C 9.82 g/m*3 12.2 C 0 km/h
2353 12-05-2009 20:26:29 12.1 C 9.76 g/m*3 12.1 C 0 km/h
2354 12-05-2009 20:41:29 12.1 C 9.65 g/m*3 12.1 C 0 km/h
2355 12-05-2009 20:56:29 11.9 C 9.64 g/m*3 11.9 C 0 km/h
2356 12-05-2009 21:11:29 12 C 9.59 g/m*3 12 C 0 km/h
2357 12-05-2009 21:26:29 11.7 C 9.52 g/m*3 11.7 C 0 km/h
2358 12-05-2009 21:41:29 11.6 C 9.46 g/m*3 11.6 C 0 km/h
2359 12-05-2009 21:56:29 11.6 C 9.46 g/m*3 11.6 C 0 km/h
2360 12-05-2009 22:11:29 11.4 C 9.34 g/m*3 11.4 C 0 km/h
2361 12-05-2009 22:26:29 11.4 C 9.44 g/m*3 11.4 C 0 km/h
2362 12-05-2009 22:41:29 11.4 C 9.44 g/m*3 11.4 C 0 km/h
2363 12-05-2009 22:56:29 11.3 C 9.38 g/m*3 11.3 C 0 km/h
2364 12-05-2009 23:11:29 11.2 C 9.33 g/m*3 11.2 C 0 km/h
2365 12-05-2009 23:26:29 11.1 C 9.27 g/m*3 11.1 C 0 km/h
2366 12-05-2009 23:41:29 11.1 C 9.27 g/m*3 11.1 C 0 km/h
2367 12-05-2009 23:56:29 11 C 9.21 g/m*3 11 C 0 km/h
2368 13-05-2009 00:11:30 11 C 9.21 g/m*3 11 C 0 km/h
2369 13-05-2009 00:26:30 11 C 9.21 g/m*3 11 C 0 km/h
2370 13-05-2009 00:41:30 10.9 C 9.15 g/m*3 10.9 C 0 km/h
2371 13-05-2009 00:56:30 10.9 C 9.15 g/m*3 10.9 C 0 km/h
2372 13-05-2009 01:11:30 10.8 C 8.99 g/m*3 10.8 C 0 km/h
2373 13-05-2009 01:26:30 10.8 C 8.9 g/m*3 10.8 C 0 km/h
2374 13-05-2009 01:41:30 10.7 C 8.84 g/m*3 10.7 C 0 km/h
2375 13-05-2009 01:56:30 10.7 C 8.84 g/m*3 10.7 C 0 km/h
Sensor: Nr:Datum:Temp:Abs-Feuchte:Windchill:Wind:
Aussen-T/F 2376 13-05-2009 02:11:30 10.6 C 8.59 g/m*3 10.6 C 0 km/h
2377 13-05-2009 02:26:30 10.5 C 8.53 g/m*3 10.5 C 0 km/h
2378 13-05-2009 02:41:30 10.5 C 8.53 g/m*3 10.5 C 0 km/h
2379 13-05-2009 02:56:30 10.4 C 8.48 g/m*3 10.4 C 0 km/h
2380 13-05-2009 03:11:30 10.2 C 8.37 g/m*3 10.2 C 0 km/h
2381 13-05-2009 03:26:30 10.2 C 8.28 g/m*3 10.2 C 0 km/h
2382 13-05-2009 03:41:30 10.1 C 8.23 g/m*3 10.1 C 0 km/h
2383 13-05-2009 03:56:30 10.1 C 8.13 g/m*3 10.1 C 0 km/h
2384 13-05-2009 04:11:30 10.2 C 8.18 g/m*3 10.2 C 0 km/h
2385 13-05-2009 04:26:30 10.2 C 8.18 g/m*3 10.2 C 0 km/h
2386 13-05-2009 04:41:30 10.1 C 8.13 g/m*3 10.1 C 0 km/h
2387 13-05-2009 04:56:31 10.1 C 8.13 g/m*3 10.1 C 0 km/h
2388 13-05-2009 05:11:31 10.1 C 8.13 g/m*3 10.1 C 0 km/h
2389 13-05-2009 05:26:31 10.2 C 8.18 g/m*3 10.2 C 0 km/h
2390 13-05-2009 05:41:31 10.1 C 8.13 g/m*3 10.1 C 0 km/h
2391 13-05-2009 05:56:31 10.2 C 8.18 g/m*3 10.2 C 0 km/h
2392 13-05-2009 06:11:31 10.2 C 8.18 g/m*3 10.2 C 0 km/h
2393 13-05-2009 06:26:31 10.3 C 8.24 g/m*3 10.3 C 0 km/h
2394 13-05-2009 06:41:31 10.5 C 8.34 g/m*3 10.5 C 0 km/h
2395 13-05-2009 06:56:31 10.7 C 8.45 g/m*3 10.7 C 0 km/h
2396 13-05-2009 07:11:31 11 C 8.51 g/m*3 11 C 0 km/h
2397 13-05-2009 07:26:31 11.2 C 8.51 g/m*3 11.2 C 0 km/h
2398 13-05-2009 07:41:31 11.8 C 8.53 g/m*3 11.8 C 0 km/h
2399 13-05-2009 07:56:31 12.4 C 7.65 g/m*3 12.4 C 0 km/h
2400 13-05-2009 08:11:31 12.9 C 7.66 g/m*3 12.9 C 0 km/h
Sensor: Nr:Datum:Temp:Abs-Feuchte:Windchill:Wind:
Aussen-T/F 2401 13-05-2009 08:26:31 13 C 7.48 g/m*3 13 C 0 km/h
2402 13-05-2009 08:41:31 13.4 C 7.79 g/m*3 13.4 C 0 km/h
2403 13-05-2009 08:56:31 13.3 C 7.51 g/m*3 13.3 C 0 km/h
2404 13-05-2009 09:11:31 13.4 C 7.56 g/m*3 13.4 C 0 km/h
2405 13-05-2009 09:26:31 13.6 C 7.65 g/m*3 13.6 C 0 km/h
2406 13-05-2009 09:41:32 13.8 C 7.51 g/m*3 13.8 C 0 km/h
2407 13-05-2009 09:56:32 14.1 C 7.4 g/m*3 14.1 C 0 km/h
2408 13-05-2009 10:11:32 15.3 C 7.44 g/m*3 15.3 C 0 km/h
2409 13-05-2009 10:26:32 15.8 C 7.54 g/m*3 15.8 C 0 km/h
2410 13-05-2009 10:41:32 15.9 C 7.31 g/m*3 15.9 C 0 km/h
2411 13-05-2009 10:56:32 16.7 C 7.53 g/m*3 16.7 C 0 km/h
2412 13-05-2009 11:11:32 17.4 C 7.56 g/m*3 17.4 C 0 km/h
2413 13-05-2009 11:26:32 18.8 C 7.73 g/m*3 18.8 C 0 km/h
2414 13-05-2009 11:41:32 19.3 C 7.46 g/m*3 19.3 C 0 km/h
2415 13-05-2009 11:56:32 19.1 C 7.87 g/m*3 19.1 C 0 km/h
2416 13-05-2009 12:11:32 19.5 C 7.72 g/m*3 19.5 C 0 km/h
2417 13-05-2009 12:26:32 20.1 C 7.82 g/m*3 20.1 C 0 km/h
2418 13-05-2009 12:41:32 20.5 C 7.83 g/m*3 20.5 C 0 km/h
2419 13-05-2009 12:56:32 21.1 C 7.55 g/m*3 21.1 C 0 km/h
2420 13-05-2009 13:11:32 21.3 C 7.83 g/m*3 21.3 C 0 km/h
2421 13-05-2009 13:26:32 21.1 C 7.55 g/m*3 21.1 C 0 km/h
2422 13-05-2009 13:41:32 21.4 C 7.87 g/m*3 21.4 C 0 km/h
2423 13-05-2009 13:56:32 22 C 7.38 g/m*3 22 C 0 km/h
2424 13-05-2009 14:11:32 22.2 C 7.85 g/m*3 22.2 C 0 km/h
2425 13-05-2009 14:26:33 22.4 C 7.94 g/m*3 22.4 C 0 km/h
Sensor: Nr:Datum:Temp:Abs-Feuchte:Windchill:Wind:
Aussen-T/F 2426 13-05-2009 14:41:33 22.9 C 7.97 g/m*3 22.9 C 0 km/h
2427 13-05-2009 14:56:33 22.7 C 8.28 g/m*3 22.7 C 0 km/h
2428 13-05-2009 15:11:33 23.3 C 7.74 g/m*3 23.3 C 0 km/h
2429 13-05-2009 15:26:33 22.7 C 8.08 g/m*3 22.7 C 0 km/h
2430 13-05-2009 15:41:33 22.7 C 8.28 g/m*3 22.7 C 0 km/h
2431 13-05-2009 15:56:33 21.7 C 8.2 g/m*3 21.7 C 0 km/h
2432 13-05-2009 16:11:33 22 C 7.96 g/m*3 22 C 0 km/h
2433 13-05-2009 16:26:33 21.1 C 8.48 g/m*3 21.1 C 0 km/h
2434 13-05-2009 16:41:33 20.7 C 9.36 g/m*3 20.7 C 0 km/h
2435 13-05-2009 16:56:33 20.4 C 9.91 g/m*3 20.4 C 0 km/h
2436 13-05-2009 17:11:33 20.2 C 8.74 g/m*3 20.2 C 0 km/h
2437 13-05-2009 17:26:33 19.7 C 9.68 g/m*3 19.7 C 0 km/h
2438 13-05-2009 17:41:33 19.3 C 9.62 g/m*3 19.3 C 0 km/h
2439 13-05-2009 17:56:33 19.1 C 9.18 g/m*3 19.1 C 0 km/h
2440 13-05-2009 18:11:33 19.1 C 9.34 g/m*3 19.1 C 0 km/h
2441 13-05-2009 18:26:33 18.7 C 9.29 g/m*3 18.7 C 0 km/h
2442 13-05-2009 18:41:33 18.3 C 9.22 g/m*3 18.3 C 0 km/h
2443 13-05-2009 18:56:33 18.3 C 9.54 g/m*3 18.3 C 0 km/h
2444 13-05-2009 19:11:34 18.3 C 9.54 g/m*3 18.3 C 0 km/h
2445 13-05-2009 19:26:34 18.4 C 9.91 g/m*3 18.4 C 0 km/h
2446 13-05-2009 19:41:34 18.5 C 9.97 g/m*3 18.5 C 0 km/h
2447 13-05-2009 19:56:34 18.4 C 10.22 g/m*3 18.4 C 0 km/h
2448 13-05-2009 20:11:34 17.9 C 10.38 g/m*3 17.9 C 0 km/h
2449 13-05-2009 20:26:34 17.5 C 10.29 g/m*3 17.5 C 0 km/h
2450 13-05-2009 20:41:34 17.1 C 10.34 g/m*3 17.1 C 0 km/h
Sensor: Nr:Datum:Temp:Abs-Feuchte:Windchill:Wind:
Aussen-T/F 2451 13-05-2009 20:56:34 16.8 C 10.29 g/m*3 16.8 C 0 km/h
2452 13-05-2009 21:11:34 16.2 C 10.07 g/m*3 16.2 C 0 km/h
2453 13-05-2009 21:26:34 15.9 C 10.16 g/m*3 15.9 C 0 km/h
2454 13-05-2009 21:41:34 15.6 C 10.11 g/m*3 15.6 C 0 km/h
2455 13-05-2009 21:56:34 15.1 C 9.93 g/m*3 15.1 C 0 km/h
2456 13-05-2009 22:11:34 14.8 C 10.01 g/m*3 14.8 C 0 km/h
2457 13-05-2009 22:26:34 14.6 C 10.01 g/m*3 14.6 C 0 km/h
2458 13-05-2009 22:41:34 14.5 C 9.95 g/m*3 14.5 C 0 km/h
2459 13-05-2009 22:56:34 14.4 C 10.01 g/m*3 14.4 C 0 km/h
2460 13-05-2009 23:11:34 14.4 C 10.01 g/m*3 14.4 C 0 km/h
2461 13-05-2009 23:26:34 14.2 C 9.89 g/m*3 14.2 C 0 km/h
2462 13-05-2009 23:41:34 14 C 9.89 g/m*3 14 C 0 km/h
2463 13-05-2009 23:56:34 14.1 C 9.95 g/m*3 14.1 C 0 km/h
2464 14-05-2009 00:11:35 14 C 10.01 g/m*3 14 C 0 km/h
2465 14-05-2009 00:26:35 14 C 10.01 g/m*3 14 C 0 km/h
2466 14-05-2009 00:41:35 13.8 C 9.89 g/m*3 13.8 C 0 km/h
2467 14-05-2009 00:56:35 13.8 C 9.89 g/m*3 13.8 C 0 km/h
2468 14-05-2009 01:11:35 13.7 C 9.83 g/m*3 13.7 C 0 km/h
2469 14-05-2009 01:26:35 13.5 C 9.71 g/m*3 13.5 C 0 km/h
2470 14-05-2009 01:41:35 13.4 C 9.65 g/m*3 13.4 C 0 km/h
2471 14-05-2009 01:56:35 13.2 C 9.53 g/m*3 13.2 C 0 km/h
2472 14-05-2009 02:11:35 13.1 C 9.59 g/m*3 13.1 C 0 km/h
2473 14-05-2009 02:26:35 13 C 9.53 g/m*3 13 C 0 km/h
2474 14-05-2009 02:41:35 12.9 C 9.58 g/m*3 12.9 C 0 km/h
2475 14-05-2009 02:56:35 13 C 9.53 g/m*3 13 C 0 km/h
Sensor: Nr:Datum:Temp:Abs-Feuchte:Windchill:Wind:
Aussen-T/F 2476 14-05-2009 03:11:35 13.3 C 9.7 g/m*3 13.3 C 0 km/h
2477 14-05-2009 03:26:35 13.4 C 9.65 g/m*3 13.4 C 0 km/h
2478 14-05-2009 03:41:35 13.2 C 9.42 g/m*3 13.2 C 0 km/h
2479 14-05-2009 03:56:35 13.1 C 9.36 g/m*3 13.1 C 0 km/h
2480 14-05-2009 04:11:35 13.1 C 9.13 g/m*3 13.1 C 0 km/h
2481 14-05-2009 04:26:35 13.2 C 8.84 g/m*3 13.2 C 0 km/h
2482 14-05-2009 04:41:35 13.4 C 8.6 g/m*3 13.4 C 0 km/h
2483 14-05-2009 04:56:36 13.4 C 8.49 g/m*3 13.4 C 0 km/h
2484 14-05-2009 05:11:36 13.5 C 8.66 g/m*3 13.5 C 0 km/h
2485 14-05-2009 05:26:36 13.5 C 8.54 g/m*3 13.5 C 0 km/h
2486 14-05-2009 05:41:36 13.4 C 8.72 g/m*3 13.4 C 0 km/h
2487 14-05-2009 05:56:36 13.3 C 8.66 g/m*3 13.3 C 0 km/h
2488 14-05-2009 06:11:36 13.2 C 8.73 g/m*3 13.2 C 0 km/h
2489 14-05-2009 06:26:36 13.3 C 8.66 g/m*3 13.3 C 0 km/h
2490 14-05-2009 06:41:36 13.4 C 8.6 g/m*3 13.4 C 0 km/h
2491 14-05-2009 06:56:36 13.6 C 8.36 g/m*3 13.6 C 0 km/h
2492 14-05-2009 07:11:36 13.7 C 8.64 g/m*3 13.7 C 0 km/h
2493 14-05-2009 07:26:36 13.8 C 8.82 g/m*3 13.8 C 0 km/h
2494 14-05-2009 07:41:36 13.8 C 8.82 g/m*3 13.8 C 0 km/h
2495 14-05-2009 07:56:36 13.7 C 8.76 g/m*3 13.7 C 0 km/h
2496 14-05-2009 08:11:36 13.7 C 8.76 g/m*3 13.7 C 0 km/h
2497 14-05-2009 08:26:36 13.9 C 8.75 g/m*3 13.9 C 0 km/h
2498 14-05-2009 08:41:36 14.4 C 8.53 g/m*3 14.4 C 0 km/h
2499 14-05-2009 08:56:36 14.5 C 8.71 g/m*3 14.5 C 0 km/h
2500 14-05-2009 09:11:36 14.7 C 8.81 g/m*3 14.7 C 0 km/h
Sensor: Nr:Datum:Temp:Abs-Feuchte:Windchill:Wind:
Aussen-T/F 2501 14-05-2009 09:26:36 15 C 8.59 g/m*3 15 C 0 km/h
2502 14-05-2009 09:41:37 15.1 C 7.74 g/m*3 15.1 C 0 km/h
2503 14-05-2009 09:56:37 15.5 C 8.06 g/m*3 15.5 C 0 km/h
2504 14-05-2009 10:11:37 15.5 C 8.06 g/m*3 15.5 C 0 km/h
2505 14-05-2009 10:26:37 15.5 C 8.46 g/m*3 15.5 C 0 km/h
2506 14-05-2009 10:41:37 15.6 C 8.11 g/m*3 15.6 C 0 km/h
2507 14-05-2009 10:56:37 15.6 C 7.98 g/m*3 15.6 C 0 km/h
2508 14-05-2009 11:11:37 15.8 C 7.94 g/m*3 15.8 C 0 km/h
2509 14-05-2009 11:26:37 16.3 C 8.19 g/m*3 16.3 C 0 km/h
2510 14-05-2009 11:41:37 16.9 C 8.2 g/m*3 16.9 C 0 km/h
2511 14-05-2009 11:56:37 17.2 C 8.2 g/m*3 17.2 C 0 km/h
2512 14-05-2009 12:11:37 17 C 8.39 g/m*3 17 C 0 km/h
2513 14-05-2009 12:26:37 17 C 8.54 g/m*3 17 C 0 km/h
2514 14-05-2009 12:41:37 17.4 C 8.45 g/m*3 17.4 C 0 km/h
2515 14-05-2009 12:56:37 17.5 C 8.8 g/m*3 17.5 C 0 km/h
2516 14-05-2009 13:11:37 17.5 C 8.65 g/m*3 17.5 C 0 km/h
2517 14-05-2009 13:26:37 17.9 C 8.7 g/m*3 17.9 C 0 km/h
2518 14-05-2009 13:41:37 18.4 C 8.65 g/m*3 18.4 C 0 km/h
2519 14-05-2009 13:56:37 18.9 C 8.59 g/m*3 18.9 C 0 km/h
2520 14-05-2009 14:11:37 19.9 C 8.42 g/m*3 19.9 C 0 km/h
2521 14-05-2009 14:26:38 21.1 C 8.29 g/m*3 21.1 C 0 km/h
2522 14-05-2009 14:41:38 21.5 C 8.11 g/m*3 21.5 C 0 km/h
2523 14-05-2009 14:56:38 22.3 C 7.9 g/m*3 22.3 C 0 km/h
2524 14-05-2009 15:11:38 21.2 C 8.34 g/m*3 21.2 C 0 km/h
2525 14-05-2009 15:26:38 21.1 C 8.29 g/m*3 21.1 C 0 km/h
Sensor: Nr:Datum:Temp:Abs-Feuchte:Windchill:Wind:
Aussen-T/F 2526 14-05-2009 15:41:38 22 C 8.54 g/m*3 22 C 0 km/h
2527 14-05-2009 15:56:38 24.9 C 8.01 g/m*3 24.9 C 0 km/h
2528 14-05-2009 16:11:38 25.4 C 7.53 g/m*3 25.4 C 0 km/h
2529 14-05-2009 16:26:38 23 C 7.81 g/m*3 23 C 0 km/h
2530 14-05-2009 16:41:38 21.8 C 8.44 g/m*3 21.8 C 0 km/h
2531 14-05-2009 16:56:38 20.5 C 8.54 g/m*3 20.5 C 0 km/h
2532 14-05-2009 17:11:38 20.2 C 8.57 g/m*3 20.2 C 0 km/h
2533 14-05-2009 17:26:38 19.6 C 8.95 g/m*3 19.6 C 0 km/h
2534 14-05-2009 17:41:38 19.6 C 8.95 g/m*3 19.6 C 0 km/h
2535 14-05-2009 17:56:38 19.3 C 9.29 g/m*3 19.3 C 0 km/h
2536 14-05-2009 18:11:38 19.1 C 9.51 g/m*3 19.1 C 0 km/h
2537 14-05-2009 18:26:38 19 C 9.13 g/m*3 19 C 0 km/h
2538 14-05-2009 18:41:38 18.9 C 9.56 g/m*3 18.9 C 0 km/h
2539 14-05-2009 18:56:38 18.7 C 9.77 g/m*3 18.7 C 0 km/h
2540 14-05-2009 19:11:39 18.3 C 9.38 g/m*3 18.3 C 0 km/h
2541 14-05-2009 19:26:39 18 C 9.52 g/m*3 18 C 0 km/h
2542 14-05-2009 19:41:39 17.4 C 9.93 g/m*3 17.4 C 0 km/h
2543 14-05-2009 19:56:39 16.4 C 10.61 g/m*3 16.4 C 0 km/h
2544 14-05-2009 20:11:39 16 C 11.04 g/m*3 16 C 0 km/h
2545 14-05-2009 20:26:39 15.6 C 11.3 g/m*3 15.6 C 0 km/h
2546 14-05-2009 20:41:39 15.6 C 11.44 g/m*3 15.6 C 0 km/h
2547 14-05-2009 20:56:39 15.3 C 11.36 g/m*3 15.3 C 0 km/h
2548 14-05-2009 21:11:39 15.3 C 11.49 g/m*3 15.3 C 0 km/h
2549 14-05-2009 21:26:39 15.1 C 11.35 g/m*3 15.1 C 0 km/h
2550 14-05-2009 21:41:39 15 C 11.41 g/m*3 15 C 0 km/h
Sensor: Nr:Datum:Temp:Abs-Feuchte:Windchill:Wind:
Aussen-T/F 2551 14-05-2009 21:56:39 14.5 C 11.19 g/m*3 14.5 C 0 km/h
2552 14-05-2009 22:11:39 14.1 C 10.92 g/m*3 14.1 C 0 km/h
2553 14-05-2009 22:26:39 14 C 10.98 g/m*3 14 C 0 km/h
2554 14-05-2009 22:41:39 13.6 C 10.83 g/m*3 13.6 C 0 km/h
2555 14-05-2009 22:56:39 13.6 C 10.83 g/m*3 13.6 C 0 km/h
2556 14-05-2009 23:11:39 13.3 C 10.74 g/m*3 13.3 C 0 km/h
2557 14-05-2009 23:26:39 13.2 C 10.68 g/m*3 13.2 C 0 km/h
2558 14-05-2009 23:41:39 13.2 C 10.68 g/m*3 13.2 C 0 km/h
2559 14-05-2009 23:56:40 13 C 10.55 g/m*3 13 C 0 km/h
2560 15-05-2009 00:11:40 12.9 C 10.59 g/m*3 12.9 C 0 km/h
2561 15-05-2009 00:26:40 12.9 C 10.59 g/m*3 12.9 C 0 km/h
2562 15-05-2009 00:41:40 12.7 C 10.46 g/m*3 12.7 C 0 km/h
2563 15-05-2009 00:56:40 12.8 C 10.53 g/m*3 12.8 C 0 km/h
2564 15-05-2009 01:11:40 12.9 C 10.59 g/m*3 12.9 C 0 km/h
2565 15-05-2009 01:26:40 13 C 10.43 g/m*3 13 C 0 km/h
2566 15-05-2009 01:41:40 13.1 C 10.5 g/m*3 13.1 C 0 km/h
2567 15-05-2009 01:56:40 13 C 10.43 g/m*3 13 C 0 km/h
2568 15-05-2009 02:11:40 13.1 C 10.38 g/m*3 13.1 C 0 km/h
2569 15-05-2009 02:26:40 13.1 C 10.38 g/m*3 13.1 C 0 km/h
2570 15-05-2009 02:41:40 13.1 C 10.38 g/m*3 13.1 C 0 km/h
2571 15-05-2009 02:56:40 13.1 C 10.38 g/m*3 13.1 C 0 km/h
2572 15-05-2009 03:11:40 13.1 C 10.38 g/m*3 13.1 C 0 km/h
2573 15-05-2009 03:26:40 13.2 C 10.45 g/m*3 13.2 C 0 km/h
2574 15-05-2009 03:41:40 13.3 C 10.51 g/m*3 13.3 C 0 km/h
2575 15-05-2009 03:56:40 13.2 C 10.45 g/m*3 13.2 C 0 km/h
Sensor: Nr:Datum:Temp:Abs-Feuchte:Windchill:Wind:
Aussen-T/F 2576 15-05-2009 04:11:40 13.4 C 10.69 g/m*3 13.4 C 0 km/h
2577 15-05-2009 04:26:40 13.4 C 10.58 g/m*3 13.4 C 0 km/h
2578 15-05-2009 04:41:41 13.4 C 10.58 g/m*3 13.4 C 0 km/h
2579 15-05-2009 04:56:41 13.4 C 10.69 g/m*3 13.4 C 0 km/h
2580 15-05-2009 05:11:41 13.5 C 10.76 g/m*3 13.5 C 0 km/h
2581 15-05-2009 05:26:41 13.6 C 10.83 g/m*3 13.6 C 0 km/h
2582 15-05-2009 05:41:41 13.7 C 10.89 g/m*3 13.7 C 0 km/h
2583 15-05-2009 05:56:41 13.8 C 10.96 g/m*3 13.8 C 0 km/h
2584 15-05-2009 06:11:41 13.7 C 10.78 g/m*3 13.7 C 0 km/h
2585 15-05-2009 06:26:41 13.8 C 10.84 g/m*3 13.8 C 0 km/h
2586 15-05-2009 06:41:41 14.1 C 11.04 g/m*3 14.1 C 0 km/h
2587 15-05-2009 06:56:41 14.4 C 11.13 g/m*3 14.4 C 0 km/h
2588 15-05-2009 07:11:41 14.6 C 11.26 g/m*3 14.6 C 0 km/h
2589 15-05-2009 07:26:41 14.6 C 11.14 g/m*3 14.6 C 0 km/h
2590 15-05-2009 07:41:41 14.7 C 11.21 g/m*3 14.7 C 0 km/h
2591 15-05-2009 07:56:41 15 C 11.41 g/m*3 15 C 0 km/h
2592 15-05-2009 08:11:41 15.8 C 12.11 g/m*3 15.8 C 0 km/h
2593 15-05-2009 08:26:41 16.3 C 11.93 g/m*3 16.3 C 0 km/h
2594 15-05-2009 08:41:41 16.4 C 11.17 g/m*3 16.4 C 0 km/h
2595 15-05-2009 08:56:41 16.5 C 10.67 g/m*3 16.5 C 0 km/h
2596 15-05-2009 09:11:41 16.7 C 10.8 g/m*3 16.7 C 0 km/h
2597 15-05-2009 09:26:41 16.7 C 10.23 g/m*3 16.7 C 0 km/h
2598 15-05-2009 09:41:42 16.8 C 10.29 g/m*3 16.8 C 0 km/h
2599 15-05-2009 09:56:02 17.2 C 9.96 g/m*3 17.2 C 0 km/h
2600 15-05-2009 10:11:01 17.1 C 9.9 g/m*3 17.1 C 0 km/h
Sensor: Nr:Datum:Temp:Abs-Feuchte:Windchill:Wind:
Aussen-T/F 2601 15-05-2009 10:26:02 17.9 C 9.77 g/m*3 17.9 C 0 km/h
2602 15-05-2009 10:41:02 18.4 C 9.59 g/m*3 18.4 C 0 km/h
2603 15-05-2009 10:56:01 18.6 C 9.71 g/m*3 18.6 C 0 km/h
2604 15-05-2009 11:11:02 19.3 C 9.29 g/m*3 19.3 C 0 km/h
2605 15-05-2009 11:26:02 20.1 C 9.04 g/m*3 20.1 C 0 km/h
2606 15-05-2009 11:41:01 20.6 C 9.31 g/m*3 20.6 C 0 km/h
2607 15-05-2009 11:56:01 20.6 C 8.95 g/m*3 20.6 C 0 km/h
2608 15-05-2009 12:11:01 19.9 C 8.59 g/m*3 19.9 C 0 km/h
2609 15-05-2009 12:26:00 20 C 8.64 g/m*3 20 C 0 km/h
2610 15-05-2009 12:41:00 20.4 C 8.49 g/m*3 20.4 C 0 km/h
2611 15-05-2009 12:56:00 19.2 C 8.9 g/m*3 19.2 C 0 km/h
2612 15-05-2009 13:11:00 17.5 C 9.84 g/m*3 17.5 C 0 km/h
2613 15-05-2009 13:26:00 17 C 10.42 g/m*3 17 C 0 km/h
2614 15-05-2009 13:41:00 17.5 C 10.59 g/m*3 17.5 C 0 km/h
2615 15-05-2009 13:56:59 18.2 C 10.26 g/m*3 18.2 C 0 km/h
2616 15-05-2009 14:10:59 17.8 C 9.71 g/m*3 17.8 C 0 km/h
2617 15-05-2009 14:26:00 17.9 C 10.08 g/m*3 17.9 C 0 km/h
2618 15-05-2009 14:41:59 17.3 C 9.87 g/m*3 17.3 C 0 km/h
2619 15-05-2009 14:56:59 16.9 C 9.49 g/m*3 16.9 C 0 km/h
2620 15-05-2009 15:11:59 16.5 C 9.97 g/m*3 16.5 C 0 km/h
2621 15-05-2009 15:26:59 15.9 C 10.43 g/m*3 15.9 C 0 km/h
2622 15-05-2009 15:41:58 16.7 C 11.23 g/m*3 16.7 C 0 km/h
2623 15-05-2009 15:56:59 17.6 C 11.4 g/m*3 17.6 C 0 km/h
2624 15-05-2009 16:11:59 18.3 C 10.94 g/m*3 18.3 C 0 km/h
2625 15-05-2009 16:26:58 18.4 C 10.7 g/m*3 18.4 C 0 km/h
Sensor: Nr:Datum:Temp:Abs-Feuchte:Windchill:Wind:
Aussen-T/F 2626 15-05-2009 16:41:58 18.2 C 10.72 g/m*3 18.2 C 0 km/h
2627 15-05-2009 16:56:58 18.3 C 10.79 g/m*3 18.3 C 0 km/h
2628 15-05-2009 17:11:58 18 C 10.75 g/m*3 18 C 0 km/h
2629 15-05-2009 17:26:57 16.3 C 9.43 g/m*3 16.3 C 0 km/h
2630 15-05-2009 17:41:57 16.4 C 10.05 g/m*3 16.4 C 0 km/h
2631 15-05-2009 17:49:57 16.2 C 10.2 g/m*3 16.2 C 0 km/h
2632 15-05-2009 18:01:57 15.9 C 10.16 g/m*3 15.9 C 0 km/h
2633 15-05-2009 18:13:57 15.7 C 10.17 g/m*3 15.7 C 0 km/h
2634 15-05-2009 18:25:57 15.5 C 9.91 g/m*3 15.5 C 0 km/h
2635 15-05-2009 18:37:56 15.3 C 9.92 g/m*3 15.3 C 0 km/h
2636 15-05-2009 18:49:57 14.5 C 9.33 g/m*3 14.5 C 0 km/h
2637 15-05-2009 19:01:56 14.1 C 9.22 g/m*3 14.1 C 0 km/h
2638 15-05-2009 19:13:56 13.8 C 9.41 g/m*3 13.8 C 0 km/h
2639 15-05-2009 19:25:56 13.7 C 9.59 g/m*3 13.7 C 0 km/h
2640 15-05-2009 19:37:57 13.5 C 9.71 g/m*3 13.5 C 0 km/h
2641 15-05-2009 19:49:56 13.5 C 9.83 g/m*3 13.5 C 0 km/h
2642 15-05-2009 20:01:56 13.5 C 9.83 g/m*3 13.5 C 0 km/h
2643 15-05-2009 20:13:56 13.3 C 9.82 g/m*3 13.3 C 0 km/h
2644 15-05-2009 20:25:56 13.2 C 9.76 g/m*3 13.2 C 0 km/h
2645 15-05-2009 20:37:56 13.2 C 9.76 g/m*3 13.2 C 0 km/h
2646 15-05-2009 20:49:55 13.1 C 9.81 g/m*3 13.1 C 0 km/h
2647 15-05-2009 21:01:56 12.8 C 9.74 g/m*3 12.8 C 0 km/h
2648 15-05-2009 21:13:56 12.7 C 9.8 g/m*3 12.7 C 0 km/h
2649 15-05-2009 21:25:55 12.5 C 9.68 g/m*3 12.5 C 0 km/h
2650 15-05-2009 21:37:55 12.5 C 9.78 g/m*3 12.5 C 0 km/h
Sensor: Nr:Datum:Temp:Abs-Feuchte:Windchill:Wind:
Aussen-T/F 2651 15-05-2009 21:49:55 12.5 C 9.78 g/m*3 12.5 C 0 km/h
2652 15-05-2009 22:01:55 12.5 C 9.89 g/m*3 12.5 C 0 km/h
2653 15-05-2009 22:13:55 12.5 C 9.89 g/m*3 12.5 C 0 km/h
2654 15-05-2009 22:25:55 12.5 C 10 g/m*3 12.5 C 0 km/h
2655 15-05-2009 22:37:54 12.5 C 10 g/m*3 12.5 C 0 km/h
2656 15-05-2009 22:49:55 12.6 C 10.07 g/m*3 12.6 C 0 km/h
2657 15-05-2009 23:01:54 12.6 C 10.07 g/m*3 12.6 C 0 km/h
2658 15-05-2009 23:13:54 12.5 C 10 g/m*3 12.5 C 0 km/h
2659 15-05-2009 23:25:54 12.4 C 9.94 g/m*3 12.4 C 0 km/h
2660 15-05-2009 23:37:54 12.2 C 9.71 g/m*3 12.2 C 0 km/h
2661 15-05-2009 23:49:54 12.4 C 9.4 g/m*3 12.4 C 0 km/h
2662 16-05-2009 00:01:53 12.4 C 8.96 g/m*3 12.4 C 0 km/h
2663 16-05-2009 00:13:53 12.3 C 8.8 g/m*3 12.3 C 0 km/h
2664 16-05-2009 00:25:54 12.3 C 8.9 g/m*3 12.3 C 0 km/h
2665 16-05-2009 00:37:53 12.3 C 8.9 g/m*3 12.3 C 0 km/h
2666 16-05-2009 00:49:54 12.2 C 8.74 g/m*3 12.2 C 0 km/h
2667 16-05-2009 01:01:53 12.1 C 8.58 g/m*3 12.1 C 0 km/h
2668 16-05-2009 01:13:53 12 C 8.63 g/m*3 12 C 0 km/h
2669 16-05-2009 01:25:53 11.4 C 8.52 g/m*3 11.4 C 0 km/h
2670 16-05-2009 01:37:52 11.1 C 8.46 g/m*3 11.1 C 0 km/h
2671 16-05-2009 01:49:53 10.8 C 8.3 g/m*3 10.8 C 0 km/h
2672 16-05-2009 02:01:53 10.5 C 8.05 g/m*3 10.5 C 0 km/h
2673 16-05-2009 02:13:53 10.3 C 8.04 g/m*3 10.3 C 0 km/h
2674 16-05-2009 02:25:52 10 C 7.89 g/m*3 10 C 0 km/h
2675 16-05-2009 02:37:53 9.7 C 8.02 g/m*3 9.7 C 0 km/h
Sensor: Nr:Datum:Temp:Abs-Feuchte:Windchill:Wind:
Aussen-T/F 2676 16-05-2009 02:50:53 9.6 C 8.06 g/m*3 9.6 C 0 km/h
2677 16-05-2009 03:02:53 9.6 C 8.15 g/m*3 9.6 C 0 km/h
2678 16-05-2009 03:14:54 9.4 C 8.05 g/m*3 9.4 C 0 km/h
2679 16-05-2009 03:26:54 9.3 C 8 g/m*3 9.3 C 0 km/h
2680 16-05-2009 03:38:53 9.3 C 8.09 g/m*3 9.3 C 0 km/h
2681 16-05-2009 03:50:53 9.2 C 8.04 g/m*3 9.2 C 0 km/h
2682 16-05-2009 04:02:53 9.1 C 7.99 g/m*3 9.1 C 0 km/h
2683 16-05-2009 04:14:53 9.1 C 7.99 g/m*3 9.1 C 0 km/h
2684 16-05-2009 04:26:53 9.4 C 8.05 g/m*3 9.4 C 0 km/h
2685 16-05-2009 04:38:53 9.4 C 7.96 g/m*3 9.4 C 0 km/h
2686 16-05-2009 04:50:53 8.9 C 7.8 g/m*3 8.9 C 0 km/h
2687 16-05-2009 05:02:52 8.7 C 7.7 g/m*3 8.7 C 0 km/h
2688 16-05-2009 05:14:52 8.4 C 7.55 g/m*3 8.4 C 0 km/h
2689 16-05-2009 05:26:52 8.3 C 7.5 g/m*3 8.3 C 0 km/h
2690 16-05-2009 05:38:52 8.2 C 7.45 g/m*3 8.2 C 0 km/h
2691 16-05-2009 05:50:52 8.1 C 7.41 g/m*3 8.1 C 0 km/h
2692 16-05-2009 06:02:52 8 C 7.36 g/m*3 8 C 0 km/h
2693 16-05-2009 06:14:51 8 C 7.36 g/m*3 8 C 0 km/h
2694 16-05-2009 06:26:51 8 C 7.36 g/m*3 8 C 0 km/h
2695 16-05-2009 06:38:52 8.2 C 7.45 g/m*3 8.2 C 0 km/h
2696 16-05-2009 06:50:51 8.4 C 7.47 g/m*3 8.4 C 0 km/h
2697 16-05-2009 07:02:52 8.6 C 7.48 g/m*3 8.6 C 0 km/h
2698 16-05-2009 07:14:51 8.9 C 7.45 g/m*3 8.9 C 0 km/h
2699 16-05-2009 07:26:51 8.9 C 7.53 g/m*3 8.9 C 0 km/h
2700 16-05-2009 07:38:51 9 C 7.58 g/m*3 9 C 0 km/h
Sensor: Nr:Datum:Temp:Abs-Feuchte:Windchill:Wind:
Aussen-T/F 2701 16-05-2009 07:50:51 9.2 C 7.59 g/m*3 9.2 C 0 km/h
2702 16-05-2009 08:02:51 9.5 C 7.65 g/m*3 9.5 C 0 km/h
2703 16-05-2009 08:14:50 9.8 C 7.7 g/m*3 9.8 C 0 km/h
2704 16-05-2009 08:26:50 10.7 C 7.37 g/m*3 10.7 C 0 km/h
2705 16-05-2009 08:38:50 10.9 C 6.96 g/m*3 10.9 C 0 km/h
2706 16-05-2009 08:50:50 10.9 C 7.06 g/m*3 10.9 C 0 km/h
2707 16-05-2009 09:02:50 10.9 C 7.06 g/m*3 10.9 C 0 km/h
2708 16-05-2009 09:14:50 11.2 C 7.2 g/m*3 11.2 C 0 km/h
2709 16-05-2009 09:26:50 11.7 C 7.22 g/m*3 11.7 C 0 km/h
2710 16-05-2009 09:38:50 12 C 7.14 g/m*3 12 C 0 km/h
2711 16-05-2009 09:50:50 12.6 C 7.19 g/m*3 12.6 C 0 km/h
2712 16-05-2009 10:02:49 12.4 C 6.99 g/m*3 12.4 C 0 km/h
2713 16-05-2009 10:14:49 12.8 C 6.61 g/m*3 12.8 C 0 km/h
2714 16-05-2009 10:26:49 12.8 C 6.61 g/m*3 12.8 C 0 km/h
2715 16-05-2009 10:38:49 13.6 C 6.59 g/m*3 13.6 C 0 km/h
2716 16-05-2009 10:50:49 13.8 C 6.2 g/m*3 13.8 C 0 km/h
2717 16-05-2009 11:02:48 13.7 C 6.39 g/m*3 13.7 C 0 km/h
2718 16-05-2009 11:14:49 13.6 C 6.24 g/m*3 13.6 C 0 km/h
2719 16-05-2009 11:26:49 13.6 C 6.24 g/m*3 13.6 C 0 km/h
2720 16-05-2009 11:38:49 14.1 C 6.07 g/m*3 14.1 C 0 km/h
2721 16-05-2009 11:50:48 14.6 C 6.13 g/m*3 14.6 C 0 km/h
2722 16-05-2009 12:02:49 15.8 C 6.19 g/m*3 15.8 C 0 km/h
2723 16-05-2009 12:14:48 15.8 C 5.65 g/m*3 15.8 C 0 km/h
2724 16-05-2009 12:26:48 16.2 C 5.52 g/m*3 16.2 C 0 km/h
2725 16-05-2009 12:38:48 17 C 5.5 g/m*3 17 C 0 km/h
Sensor: Nr:Datum:Temp:Abs-Feuchte:Windchill:Wind:
Aussen-T/F 2726 16-05-2009 12:50:48 16.7 C 5.12 g/m*3 16.7 C 0 km/h
2727 16-05-2009 13:02:48 16.8 C 5.29 g/m*3 16.8 C 0 km/h
2728 16-05-2009 13:14:47 16.4 C 5.16 g/m*3 16.4 C 0 km/h
2729 16-05-2009 13:26:47 15.8 C 5.52 g/m*3 15.8 C 0 km/h
2730 16-05-2009 13:38:47 16.6 C 5.65 g/m*3 16.6 C 0 km/h
2731 16-05-2009 13:50:47 17.1 C 5.39 g/m*3 17.1 C 0 km/h
2732 16-05-2009 14:02:47 17.7 C 5.43 g/m*3 17.7 C 0 km/h
2733 16-05-2009 14:14:47 17.1 C 5.39 g/m*3 17.1 C 0 km/h
2734 16-05-2009 14:26:47 17 C 5.5 g/m*3 17 C 0 km/h
2735 16-05-2009 14:38:47 17.4 C 5.48 g/m*3 17.4 C 0 km/h
2736 16-05-2009 14:50:47 17.4 C 5.48 g/m*3 17.4 C 0 km/h
2737 16-05-2009 15:02:46 17.8 C 5.77 g/m*3 17.8 C 0 km/h
2738 16-05-2009 15:14:46 18.2 C 5.75 g/m*3 18.2 C 0 km/h
2739 16-05-2009 15:26:46 17.6 C 5.55 g/m*3 17.6 C 0 km/h
2740 16-05-2009 15:38:47 17.8 C 5.77 g/m*3 17.8 C 0 km/h
2741 16-05-2009 15:50:46 17.6 C 6 g/m*3 17.6 C 0 km/h
2742 16-05-2009 16:02:46 17.4 C 5.93 g/m*3 17.4 C 0 km/h
2743 16-05-2009 16:14:46 17.7 C 6.04 g/m*3 17.7 C 0 km/h
2744 16-05-2009 16:26:46 17.7 C 6.04 g/m*3 17.7 C 0 km/h
2745 16-05-2009 16:38:46 19.1 C 5.9 g/m*3 19.1 C 0 km/h
2746 16-05-2009 16:50:45 19 C 5.7 g/m*3 19 C 0 km/h
2747 16-05-2009 17:02:46 19.1 C 6.07 g/m*3 19.1 C 0 km/h
2748 16-05-2009 17:14:45 18.7 C 5.92 g/m*3 18.7 C 0 km/h
2749 16-05-2009 17:26:45 18.2 C 5.91 g/m*3 18.2 C 0 km/h
2750 16-05-2009 17:38:45 18.5 C 6.01 g/m*3 18.5 C 0 km/h
Sensor: Nr:Datum:Temp:Abs-Feuchte:Windchill:Wind:
Aussen-T/F 2751 16-05-2009 17:50:45 18.2 C 6.06 g/m*3 18.2 C 0 km/h
2752 16-05-2009 18:02:45 20.4 C 5.84 g/m*3 20.4 C 0 km/h
2753 16-05-2009 18:14:45 20.7 C 5.76 g/m*3 20.7 C 0 km/h
2754 16-05-2009 18:26:45 20.9 C 5.83 g/m*3 20.9 C 0 km/h
2755 16-05-2009 18:38:48 21 C 5.68 g/m*3 21 C 0 km/h
2756 16-05-2009 18:50:44 20.7 C 6.12 g/m*3 20.7 C 0 km/h
2757 16-05-2009 19:02:44 21.6 C 6.07 g/m*3 21.6 C 0 km/h
2758 16-05-2009 19:14:44 20.8 C 6.16 g/m*3 20.8 C 0 km/h
2759 16-05-2009 19:26:44 20.7 C 5.94 g/m*3 20.7 C 0 km/h
2760 16-05-2009 19:38:44 20.2 C 6.29 g/m*3 20.2 C 0 km/h
2761 16-05-2009 19:50:43 19.3 C 7.13 g/m*3 19.3 C 0 km/h
2762 16-05-2009 20:02:44 18.7 C 7.2 g/m*3 18.7 C 0 km/h
2763 16-05-2009 20:14:44 17.7 C 7.69 g/m*3 17.7 C 0 km/h
2764 16-05-2009 20:26:44 17.3 C 7.96 g/m*3 17.3 C 0 km/h
2765 16-05-2009 20:38:43 16.7 C 7.82 g/m*3 16.7 C 0 km/h
2766 16-05-2009 20:50:44 16.1 C 7.54 g/m*3 16.1 C 0 km/h
2767 16-05-2009 21:02:43 15.6 C 7.71 g/m*3 15.6 C 0 km/h
2768 16-05-2009 21:14:43 15.2 C 7.4 g/m*3 15.2 C 0 km/h
2769 16-05-2009 21:26:43 14.4 C 7.54 g/m*3 14.4 C 0 km/h
2770 16-05-2009 21:38:42 14.1 C 7.52 g/m*3 14.1 C 0 km/h
2771 16-05-2009 21:50:43 13.5 C 7.49 g/m*3 13.5 C 0 km/h
2772 16-05-2009 22:02:43 13.3 C 7.51 g/m*3 13.3 C 0 km/h
2773 16-05-2009 22:14:42 13.3 C 7.51 g/m*3 13.3 C 0 km/h
2774 16-05-2009 22:26:42 13.2 C 7.81 g/m*3 13.2 C 0 km/h
2775 16-05-2009 22:38:43 13.1 C 7.76 g/m*3 13.1 C 0 km/h
Sensor: Nr:Datum:Temp:Abs-Feuchte:Windchill:Wind:
Aussen-T/F 2776 16-05-2009 22:50:42 13.1 C 7.65 g/m*3 13.1 C 0 km/h
2777 16-05-2009 23:02:42 13.1 C 7.65 g/m*3 13.1 C 0 km/h
2778 16-05-2009 23:14:41 13.2 C 7.81 g/m*3 13.2 C 0 km/h
2779 16-05-2009 23:26:41 13.5 C 7.49 g/m*3 13.5 C 0 km/h
2780 16-05-2009 23:38:42 13.8 C 7.39 g/m*3 13.8 C 0 km/h
2781 16-05-2009 23:50:41 14 C 7.12 g/m*3 14 C 0 km/h
2782 17-05-2009 00:02:41 14 C 7 g/m*3 14 C 0 km/h
2783 17-05-2009 00:14:41 13.9 C 7.19 g/m*3 13.9 C 0 km/h
2784 17-05-2009 00:26:41 13.9 C 7.31 g/m*3 13.9 C 0 km/h
2785 17-05-2009 00:38:41 13.9 C 7.31 g/m*3 13.9 C 0 km/h
2786 17-05-2009 00:50:41 13.6 C 7.41 g/m*3 13.6 C 0 km/h
2787 17-05-2009 01:02:41 13.4 C 7.32 g/m*3 13.4 C 0 km/h
2788 17-05-2009 01:14:40 13.5 C 7.37 g/m*3 13.5 C 0 km/h
2789 17-05-2009 01:26:40 13.7 C 7.22 g/m*3 13.7 C 0 km/h
2790 17-05-2009 01:38:41 13.6 C 7.3 g/m*3 13.6 C 0 km/h
2791 17-05-2009 01:50:40 13.4 C 7.21 g/m*3 13.4 C 0 km/h
2792 17-05-2009 02:02:40 13.6 C 7.3 g/m*3 13.6 C 0 km/h
2793 17-05-2009 02:14:40 13.5 C 7.37 g/m*3 13.5 C 0 km/h
2794 17-05-2009 02:26:40 13.2 C 7.35 g/m*3 13.2 C 0 km/h
2795 17-05-2009 02:38:40 13.1 C 7.42 g/m*3 13.1 C 0 km/h
2796 17-05-2009 02:51:01 12.8 C 7.5 g/m*3 12.8 C 0 km/h
2797 17-05-2009 03:03:01 12.6 C 7.41 g/m*3 12.6 C 0 km/h
2798 17-05-2009 03:15:01 12.1 C 7.4 g/m*3 12.1 C 0 km/h
2799 17-05-2009 03:27:02 11.8 C 7.37 g/m*3 11.8 C 0 km/h
2800 17-05-2009 03:39:01 11.6 C 7.48 g/m*3 11.6 C 0 km/h
Sensor: Nr:Datum:Temp:Abs-Feuchte:Windchill:Wind:
Aussen-T/F 2801 17-05-2009 03:51:01 11.5 C 7.54 g/m*3 11.5 C 0 km/h
2802 17-05-2009 04:03:01 11.6 C 7.48 g/m*3 11.6 C 0 km/h
2803 17-05-2009 04:15:02 11.5 C 7.54 g/m*3 11.5 C 0 km/h
2804 17-05-2009 04:27:02 12.1 C 7.18 g/m*3 12.1 C 0 km/h
2805 17-05-2009 04:39:01 12.2 C 7.12 g/m*3 12.2 C 0 km/h
2806 17-05-2009 04:51:01 11.9 C 7.31 g/m*3 11.9 C 0 km/h
2807 17-05-2009 05:03:01 11.7 C 7.43 g/m*3 11.7 C 0 km/h
2808 17-05-2009 05:15:01 11.3 C 7.34 g/m*3 11.3 C 0 km/h
2809 17-05-2009 05:27:01 11 C 7.41 g/m*3 11 C 0 km/h
2810 17-05-2009 05:39:01 10.8 C 7.41 g/m*3 10.8 C 0 km/h
2811 17-05-2009 05:51:02 10.7 C 7.46 g/m*3 10.7 C 0 km/h
2812 17-05-2009 06:03:01 10.7 C 7.46 g/m*3 10.7 C 0 km/h
2813 17-05-2009 06:15:02 10.6 C 7.52 g/m*3 10.6 C 0 km/h
2814 17-05-2009 06:27:02 10.5 C 7.57 g/m*3 10.5 C 0 km/h
2815 17-05-2009 06:39:01 10.8 C 7.71 g/m*3 10.8 C 0 km/h
2816 17-05-2009 06:51:02 11.1 C 7.76 g/m*3 11.1 C 0 km/h
2817 17-05-2009 07:03:01 11.4 C 7.8 g/m*3 11.4 C 0 km/h
2818 17-05-2009 07:15:01 11.9 C 8.05 g/m*3 11.9 C 0 km/h
2819 17-05-2009 07:27:01 12.1 C 7.94 g/m*3 12.1 C 0 km/h
2820 17-05-2009 07:39:02 12.1 C 7.72 g/m*3 12.1 C 0 km/h
2821 17-05-2009 07:51:02 12.1 C 7.61 g/m*3 12.1 C 0 km/h
2822 17-05-2009 08:03:01 11.7 C 7.95 g/m*3 11.7 C 0 km/h
2823 17-05-2009 08:15:02 11.4 C 8.11 g/m*3 11.4 C 0 km/h
2824 17-05-2009 08:27:02 11.9 C 8.68 g/m*3 11.9 C 0 km/h
2825 17-05-2009 08:39:01 12.1 C 8.69 g/m*3 12.1 C 0 km/h
Sensor: Nr:Datum:Temp:Abs-Feuchte:Windchill:Wind:
Aussen-T/F 2826 17-05-2009 08:51:02 12.4 C 8.96 g/m*3 12.4 C 0 km/h
2827 17-05-2009 09:03:01 12.8 C 9.07 g/m*3 12.8 C 0 km/h
2828 17-05-2009 09:15:01 13.3 C 9.13 g/m*3 13.3 C 0 km/h
2829 17-05-2009 09:27:01 13.8 C 9.17 g/m*3 13.8 C 0 km/h
2830 17-05-2009 09:39:01 14.4 C 8.53 g/m*3 14.4 C 0 km/h
2831 17-05-2009 09:51:01 15.2 C 8.7 g/m*3 15.2 C 0 km/h
2832 17-05-2009 10:03:02 15.7 C 8.43 g/m*3 15.7 C 0 km/h
2833 17-05-2009 10:15:01 15.3 C 8.1 g/m*3 15.3 C 0 km/h
2834 17-05-2009 10:27:01 15.4 C 7.88 g/m*3 15.4 C 0 km/h
2835 17-05-2009 10:39:02 16.3 C 7.91 g/m*3 16.3 C 0 km/h
2836 17-05-2009 10:51:01 17.5 C 8.05 g/m*3 17.5 C 0 km/h
2837 17-05-2009 11:03:02 17.9 C 8.24 g/m*3 17.9 C 0 km/h
2838 17-05-2009 11:15:01 18.5 C 8.23 g/m*3 18.5 C 0 km/h
2839 17-05-2009 11:27:01 18.6 C 7.8 g/m*3 18.6 C 0 km/h
2840 17-05-2009 11:39:01 20 C 8.64 g/m*3 20 C 0 km/h
2841 17-05-2009 11:51:01 21.2 C 8.52 g/m*3 21.2 C 0 km/h
2842 17-05-2009 12:03:01 22.3 C 8.29 g/m*3 22.3 C 0 km/h
2843 17-05-2009 12:15:02 21.9 C 7.72 g/m*3 21.9 C 0 km/h
2844 17-05-2009 12:27:02 21.3 C 8.39 g/m*3 21.3 C 0 km/h
2845 17-05-2009 12:39:01 20.4 C 8.49 g/m*3 20.4 C 0 km/h
2846 17-05-2009 12:51:02 21.3 C 8.39 g/m*3 21.3 C 0 km/h
2847 17-05-2009 13:03:01 22 C 8.35 g/m*3 22 C 0 km/h
2848 17-05-2009 13:15:02 22.7 C 8.28 g/m*3 22.7 C 0 km/h
2849 17-05-2009 13:27:02 22.2 C 7.85 g/m*3 22.2 C 0 km/h
2850 17-05-2009 13:39:01 23.3 C 7.95 g/m*3 23.3 C 0 km/h
Sensor: Nr:Datum:Temp:Abs-Feuchte:Windchill:Wind:
Aussen-T/F 2851 17-05-2009 13:51:01 22.8 C 7.72 g/m*3 22.8 C 0 km/h
2852 17-05-2009 14:03:01 22.4 C 7.94 g/m*3 22.4 C 0 km/h
2853 17-05-2009 14:15:01 22 C 7.76 g/m*3 22 C 0 km/h
2854 17-05-2009 14:27:01 21.3 C 7.46 g/m*3 21.3 C 0 km/h
2855 17-05-2009 14:39:02 21.2 C 7.6 g/m*3 21.2 C 0 km/h
2856 17-05-2009 14:51:01 21.4 C 7.69 g/m*3 21.4 C 0 km/h
2857 17-05-2009 15:03:02 21.9 C 7.72 g/m*3 21.9 C 0 km/h
2858 17-05-2009 15:15:01 22.8 C 7.92 g/m*3 22.8 C 0 km/h
2859 17-05-2009 15:27:01 23 C 7.6 g/m*3 23 C 0 km/h
2860 17-05-2009 15:39:01 23.4 C 7.78 g/m*3 23.4 C 0 km/h
2861 17-05-2009 15:51:01 23.3 C 7.32 g/m*3 23.3 C 0 km/h
2862 17-05-2009 16:03:01 23.5 C 6.98 g/m*3 23.5 C 0 km/h
2863 17-05-2009 16:15:01 23.4 C 6.73 g/m*3 23.4 C 0 km/h
2864 17-05-2009 16:27:01 23.9 C 6.92 g/m*3 23.9 C 0 km/h
2865 17-05-2009 16:39:01 23.5 C 6.56 g/m*3 23.5 C 0 km/h
2866 17-05-2009 16:51:01 24.2 C 5.94 g/m*3 24.2 C 0 km/h
2867 17-05-2009 17:03:01 24.1 C 6.13 g/m*3 24.1 C 0 km/h
2868 17-05-2009 17:15:02 24.1 C 6.13 g/m*3 24.1 C 0 km/h
2869 17-05-2009 17:27:02 24.5 C 6.27 g/m*3 24.5 C 0 km/h
2870 17-05-2009 17:39:01 24 C 6.53 g/m*3 24 C 0 km/h
2871 17-05-2009 17:51:02 23.3 C 6.48 g/m*3 23.3 C 0 km/h
2872 17-05-2009 18:03:01 22.9 C 6.54 g/m*3 22.9 C 0 km/h
2873 17-05-2009 18:15:01 22.1 C 6.64 g/m*3 22.1 C 0 km/h
2874 17-05-2009 18:27:02 21 C 6.41 g/m*3 21 C 0 km/h
2875 17-05-2009 18:39:01 20.9 C 6.74 g/m*3 20.9 C 0 km/h
Sensor: Nr:Datum:Temp:Abs-Feuchte:Windchill:Wind:
Aussen-T/F 2876 17-05-2009 18:51:01 20.4 C 7.25 g/m*3 20.4 C 0 km/h
2877 17-05-2009 19:03:01 20.5 C 7.12 g/m*3 20.5 C 0 km/h
2878 17-05-2009 19:15:01 20.9 C 7.29 g/m*3 20.9 C 0 km/h
2879 17-05-2009 19:27:01 20.7 C 7.56 g/m*3 20.7 C 0 km/h
2880 17-05-2009 19:39:02 20.4 C 7.43 g/m*3 20.4 C 0 km/h
2881 17-05-2009 19:51:01 20.1 C 7.3 g/m*3 20.1 C 0 km/h
2882 17-05-2009 20:03:02 19.7 C 7.64 g/m*3 19.7 C 0 km/h
2883 17-05-2009 20:15:01 19.5 C 7.72 g/m*3 19.5 C 0 km/h
2884 17-05-2009 20:27:01 19.3 C 7.96 g/m*3 19.3 C 0 km/h
2885 17-05-2009 20:39:01 18.9 C 8.59 g/m*3 18.9 C 0 km/h
2886 17-05-2009 20:51:01 19 C 8.15 g/m*3 19 C 0 km/h
2887 17-05-2009 21:03:01 18.9 C 8.1 g/m*3 18.9 C 0 km/h
2888 17-05-2009 21:15:01 18.5 C 7.59 g/m*3 18.5 C 0 km/h
2889 17-05-2009 21:27:01 18.3 C 7.66 g/m*3 18.3 C 0 km/h
2890 17-05-2009 21:39:02 18 C 7.68 g/m*3 18 C 0 km/h
2891 17-05-2009 21:51:01 17.7 C 7.69 g/m*3 17.7 C 0 km/h
2892 17-05-2009 22:03:02 17.5 C 7.45 g/m*3 17.5 C 0 km/h
2893 17-05-2009 22:15:01 17.3 C 7.37 g/m*3 17.3 C 0 km/h
2894 17-05-2009 22:27:01 17.2 C 7.47 g/m*3 17.2 C 0 km/h
2895 17-05-2009 22:39:01 16.9 C 7.19 g/m*3 16.9 C 0 km/h
2896 17-05-2009 22:51:01 16.8 C 7.15 g/m*3 16.8 C 0 km/h
2897 17-05-2009 23:03:01 16.6 C 7.35 g/m*3 16.6 C 0 km/h
2898 17-05-2009 23:15:01 16.3 C 7.08 g/m*3 16.3 C 0 km/h
2899 17-05-2009 23:27:01 16.2 C 6.9 g/m*3 16.2 C 0 km/h
2900 17-05-2009 23:39:01 16.2 C 6.48 g/m*3 16.2 C 0 km/h
Sensor: Nr:Datum:Temp:Abs-Feuchte:Windchill:Wind:
Aussen-T/F 2901 17-05-2009 23:51:02 16.2 C 6.48 g/m*3 16.2 C 0 km/h
2902 18-05-2009 00:03:01 16.1 C 6.58 g/m*3 16.1 C 0 km/h
2903 18-05-2009 00:15:01 15.8 C 6.87 g/m*3 15.8 C 0 km/h
2904 18-05-2009 00:27:01 15.6 C 7.05 g/m*3 15.6 C 0 km/h
2905 18-05-2009 00:39:01 15.4 C 7.09 g/m*3 15.4 C 0 km/h
2906 18-05-2009 00:51:01 15.4 C 7.23 g/m*3 15.4 C 0 km/h
2907 18-05-2009 01:03:01 15.1 C 7.22 g/m*3 15.1 C 0 km/h
2908 18-05-2009 01:15:02 14.9 C 7.39 g/m*3 14.9 C 0 km/h
2909 18-05-2009 01:27:02 14.7 C 7.43 g/m*3 14.7 C 0 km/h
2910 18-05-2009 01:39:01 14.7 C 7.3 g/m*3 14.7 C 0 km/h
2911 18-05-2009 01:51:02 14.5 C 7.21 g/m*3 14.5 C 0 km/h
2912 18-05-2009 02:03:01 14.5 C 7.34 g/m*3 14.5 C 0 km/h
2913 18-05-2009 02:15:02 14.3 C 7.25 g/m*3 14.3 C 0 km/h
2914 18-05-2009 02:27:02 14.2 C 7.33 g/m*3 14.2 C 0 km/h
2915 18-05-2009 02:39:01 14 C 7.36 g/m*3 14 C 0 km/h
2916 18-05-2009 02:51:30 13.7 C 7.34 g/m*3 13.7 C 0 km/h
2917 18-05-2009 03:03:30 13.6 C 7.3 g/m*3 13.6 C 0 km/h
2918 18-05-2009 03:15:29 13.3 C 7.28 g/m*3 13.3 C 0 km/h
2919 18-05-2009 03:27:29 13 C 7.26 g/m*3 13 C 0 km/h
2920 18-05-2009 03:39:29 12.6 C 7.3 g/m*3 12.6 C 0 km/h
2921 18-05-2009 03:51:29 12.8 C 7.5 g/m*3 12.8 C 0 km/h
2922 18-05-2009 04:03:28 13 C 7.6 g/m*3 13 C 0 km/h
2923 18-05-2009 04:15:29 13.1 C 7.65 g/m*3 13.1 C 0 km/h
2924 18-05-2009 04:27:29 12.8 C 7.62 g/m*3 12.8 C 0 km/h
2925 18-05-2009 04:39:28 12.4 C 7.43 g/m*3 12.4 C 0 km/h
Sensor: Nr:Datum:Temp:Abs-Feuchte:Windchill:Wind:
Aussen-T/F 2926 18-05-2009 04:51:28 12 C 7.46 g/m*3 12 C 0 km/h
2927 18-05-2009 05:03:28 11.6 C 7.38 g/m*3 11.6 C 0 km/h
2928 18-05-2009 05:15:28 11.7 C 7.64 g/m*3 11.7 C 0 km/h
2929 18-05-2009 05:27:28 11.2 C 7.4 g/m*3 11.2 C 0 km/h
2930 18-05-2009 05:39:28 11 C 7.41 g/m*3 11 C 0 km/h
2931 18-05-2009 05:51:28 10.9 C 7.56 g/m*3 10.9 C 0 km/h
2932 18-05-2009 06:03:28 10.8 C 7.61 g/m*3 10.8 C 0 km/h
2933 18-05-2009 06:15:27 10.7 C 7.66 g/m*3 10.7 C 0 km/h
2934 18-05-2009 06:27:27 10.7 C 7.76 g/m*3 10.7 C 0 km/h
2935 18-05-2009 06:39:27 10.7 C 7.86 g/m*3 10.7 C 0 km/h
2936 18-05-2009 06:51:27 10.8 C 7.91 g/m*3 10.8 C 0 km/h
2937 18-05-2009 07:03:27 11 C 7.91 g/m*3 11 C 0 km/h
2938 18-05-2009 07:15:27 11.3 C 8.06 g/m*3 11.3 C 0 km/h
2939 18-05-2009 07:27:27 11.4 C 8.11 g/m*3 11.4 C 0 km/h
2940 18-05-2009 07:39:27 11.6 C 8.21 g/m*3 11.6 C 0 km/h
2941 18-05-2009 07:51:27 11.9 C 8.26 g/m*3 11.9 C 0 km/h
2942 18-05-2009 08:03:26 12.1 C 8.26 g/m*3 12.1 C 0 km/h
2943 18-05-2009 08:15:26 12.4 C 8.3 g/m*3 12.4 C 0 km/h
2944 18-05-2009 08:27:26 12.8 C 8.51 g/m*3 12.8 C 0 km/h
2945 18-05-2009 08:39:26 13.2 C 8.38 g/m*3 13.2 C 0 km/h
2946 18-05-2009 08:51:26 13.7 C 8.41 g/m*3 13.7 C 0 km/h
2947 18-05-2009 09:03:25 14.8 C 8.11 g/m*3 14.8 C 0 km/h
2948 18-05-2009 09:15:26 15.4 C 7.49 g/m*3 15.4 C 0 km/h
2949 18-05-2009 09:27:26 15.2 C 7.53 g/m*3 15.2 C 0 km/h
2950 18-05-2009 09:39:26 15.2 C 7.53 g/m*3 15.2 C 0 km/h
Sensor: Nr:Datum:Temp:Abs-Feuchte:Windchill:Wind:
Aussen-T/F 2951 18-05-2009 09:51:25 15.9 C 7.58 g/m*3 15.9 C 0 km/h
2952 18-05-2009 10:03:26 16.5 C 7.44 g/m*3 16.5 C 0 km/h
2953 18-05-2009 10:15:25 16.7 C 7.25 g/m*3 16.7 C 0 km/h
2954 18-05-2009 10:27:25 17.1 C 6.99 g/m*3 17.1 C 0 km/h
2955 18-05-2009 10:39:25 16.5 C 7.02 g/m*3 16.5 C 0 km/h
2956 18-05-2009 10:51:25 16.6 C 7.06 g/m*3 16.6 C 0 km/h
2957 18-05-2009 11:03:25 17 C 6.95 g/m*3 17 C 0 km/h
2958 18-05-2009 11:15:24 17.3 C 6.78 g/m*3 17.3 C 0 km/h
2959 18-05-2009 11:27:24 18 C 6.45 g/m*3 18 C 0 km/h
2960 18-05-2009 11:39:24 17.6 C 6.3 g/m*3 17.6 C 0 km/h
2961 18-05-2009 11:51:24 18.4 C 6.29 g/m*3 18.4 C 0 km/h
2962 18-05-2009 12:03:24 18.5 C 6.17 g/m*3 18.5 C 0 km/h
2963 18-05-2009 12:15:24 18.7 C 6.24 g/m*3 18.7 C 0 km/h
2964 18-05-2009 12:27:24 19.4 C 6.01 g/m*3 19.4 C 0 km/h
2965 18-05-2009 12:39:24 19.3 C 5.47 g/m*3 19.3 C 0 km/h
2966 18-05-2009 12:51:24 19.3 C 4.98 g/m*3 19.3 C 0 km/h
2967 18-05-2009 13:03:23 19.2 C 5.11 g/m*3 19.2 C 0 km/h
2968 18-05-2009 13:15:23 20.6 C 5.19 g/m*3 20.6 C 0 km/h
2969 18-05-2009 13:27:23 20.8 C 3.98 g/m*3 20.8 C 0 km/h
2970 18-05-2009 13:39:24 21.1 C 3.69 g/m*3 21.1 C 0 km/h
2971 18-05-2009 13:51:23 21.1 C 3.69 g/m*3 21.1 C 0 km/h
2972 18-05-2009 14:03:23 20.7 C 3.6 g/m*3 20.7 C 0 km/h
2973 18-05-2009 14:15:23 20.6 C 3.58 g/m*3 20.6 C 0 km/h
2974 18-05-2009 14:27:23 20.8 C 3.62 g/m*3 20.8 C 0 km/h
2975 18-05-2009 14:39:23 20.9 C 3.64 g/m*3 20.9 C 0 km/h
Sensor: Nr:Datum:Temp:Abs-Feuchte:Windchill:Wind:
Aussen-T/F 2976 18-05-2009 14:51:22 21.6 C 3.79 g/m*3 21.6 C 0 km/h
2977 18-05-2009 15:03:23 22.5 C 3.99 g/m*3 22.5 C 0 km/h
2978 18-05-2009 15:15:22 22.2 C 3.93 g/m*3 22.2 C 0 km/h
2979 18-05-2009 15:27:22 21.2 C 3.89 g/m*3 21.2 C 0 km/h
2980 18-05-2009 15:39:22 22.3 C 3.95 g/m*3 22.3 C 0 km/h
2981 18-05-2009 15:51:21 22.6 C 4.02 g/m*3 22.6 C 0 km/h
2982 18-05-2009 16:03:22 22 C 4.08 g/m*3 22 C 0 km/h
2983 18-05-2009 16:15:22 21.8 C 4.22 g/m*3 21.8 C 0 km/h
2984 18-05-2009 16:27:22 21.4 C 4.12 g/m*3 21.4 C 0 km/h
2985 18-05-2009 16:39:21 22.6 C 4.02 g/m*3 22.6 C 0 km/h
2986 18-05-2009 16:51:22 22 C 3.88 g/m*3 22 C 0 km/h
2987 18-05-2009 17:03:21 21.8 C 4.22 g/m*3 21.8 C 0 km/h
2988 18-05-2009 17:15:21 22.8 C 4.27 g/m*3 22.8 C 0 km/h
2989 18-05-2009 17:27:21 22.8 C 4.06 g/m*3 22.8 C 0 km/h
2990 18-05-2009 17:39:21 22.2 C 4.12 g/m*3 22.2 C 0 km/h
2991 18-05-2009 17:51:21 23.1 C 4.13 g/m*3 23.1 C 0 km/h
2992 18-05-2009 18:03:21 22.4 C 3.97 g/m*3 22.4 C 0 km/h
2993 18-05-2009 18:15:20 22.8 C 4.27 g/m*3 22.8 C 0 km/h
2994 18-05-2009 18:27:20 22.6 C 4.02 g/m*3 22.6 C 0 km/h
2995 18-05-2009 18:39:21 23.6 C 4.25 g/m*3 23.6 C 0 km/h
2996 18-05-2009 18:51:20 23.7 C 4.28 g/m*3 23.7 C 0 km/h
2997 18-05-2009 19:03:20 23.4 C 4.21 g/m*3 23.4 C 0 km/h
2998 18-05-2009 19:15:19 23.4 C 4.21 g/m*3 23.4 C 0 km/h
2999 18-05-2009 19:27:19 23.3 C 4.18 g/m*3 23.3 C 0 km/h
3000 18-05-2009 19:39:20 22.3 C 4.15 g/m*3 22.3 C 0 km/h
Sensor: Nr:Datum:Temp:Abs-Feuchte:Windchill:Wind:
Aussen-T/F 3001 18-05-2009 19:51:19 22.1 C 4.68 g/m*3 22.1 C 0 km/h
3002 18-05-2009 20:03:20 22.3 C 4.74 g/m*3 22.3 C 0 km/h
3003 18-05-2009 20:15:19 21.8 C 4.99 g/m*3 21.8 C 0 km/h
3004 18-05-2009 20:27:19 21.6 C 5.12 g/m*3 21.6 C 0 km/h
3005 18-05-2009 20:39:19 20.4 C 4.78 g/m*3 20.4 C 0 km/h
3006 18-05-2009 20:51:19 19.4 C 5.01 g/m*3 19.4 C 0 km/h
3007 18-05-2009 21:03:19 18.5 C 5.06 g/m*3 18.5 C 0 km/h
3008 18-05-2009 21:15:19 17.9 C 5.8 g/m*3 17.9 C 0 km/h
3009 18-05-2009 21:27:19 17.3 C 5.3 g/m*3 17.3 C 0 km/h
3010 18-05-2009 21:39:19 17 C 5.5 g/m*3 17 C 0 km/h
3011 18-05-2009 21:51:18 16.7 C 5.4 g/m*3 16.7 C 0 km/h
3012 18-05-2009 22:04:20 16.1 C 5.48 g/m*3 16.1 C 0 km/h
3013 18-05-2009 22:16:20 15.9 C 5.82 g/m*3 15.9 C 0 km/h
3014 18-05-2009 22:28:20 15.2 C 5.58 g/m*3 15.2 C 0 km/h
3015 18-05-2009 22:40:20 14.8 C 5.83 g/m*3 14.8 C 0 km/h
3016 18-05-2009 22:52:20 14.6 C 5.76 g/m*3 14.6 C 0 km/h
3017 18-05-2009 23:04:20 14 C 5.91 g/m*3 14 C 0 km/h
3018 18-05-2009 23:16:20 13.9 C 6.11 g/m*3 13.9 C 0 km/h
3019 18-05-2009 23:28:20 13.6 C 6.12 g/m*3 13.6 C 0 km/h
3020 18-05-2009 23:40:20 13.5 C 6.2 g/m*3 13.5 C 0 km/h
3021 18-05-2009 23:52:20 12.9 C 6.76 g/m*3 12.9 C 0 km/h
3022 19-05-2009 00:04:20 12.8 C 6.72 g/m*3 12.8 C 0 km/h
3023 19-05-2009 00:16:20 12.6 C 6.75 g/m*3 12.6 C 0 km/h
3024 19-05-2009 00:28:20 12.5 C 6.71 g/m*3 12.5 C 0 km/h
3025 19-05-2009 00:40:20 12.4 C 6.66 g/m*3 12.4 C 0 km/h
Sensor: Nr:Datum:Temp:Abs-Feuchte:Windchill:Wind:
Aussen-T/F 3026 19-05-2009 00:52:20 12.1 C 6.43 g/m*3 12.1 C 0 km/h
3027 19-05-2009 01:04:20 12 C 6.5 g/m*3 12 C 0 km/h
3028 19-05-2009 01:16:20 11.6 C 6.65 g/m*3 11.6 C 0 km/h
3029 19-05-2009 01:28:20 11.4 C 6.57 g/m*3 11.4 C 0 km/h
3030 19-05-2009 01:40:20 11.2 C 6.49 g/m*3 11.2 C 0 km/h
3031 19-05-2009 01:52:21 11 C 6.51 g/m*3 11 C 0 km/h
3032 19-05-2009 02:04:21 10.9 C 6.47 g/m*3 10.9 C 0 km/h
3033 19-05-2009 02:16:21 10.7 C 6.48 g/m*3 10.7 C 0 km/h
3034 19-05-2009 02:28:21 10.4 C 6.46 g/m*3 10.4 C 0 km/h
3035 19-05-2009 02:40:21 10.2 C 6.47 g/m*3 10.2 C 0 km/h
3036 19-05-2009 02:52:21 10 C 6.58 g/m*3 10 C 0 km/h
3037 19-05-2009 03:04:21 9.9 C 6.63 g/m*3 9.9 C 0 km/h
3038 19-05-2009 03:16:21 9.8 C 6.59 g/m*3 9.8 C 0 km/h
3039 19-05-2009 03:28:21 9.7 C 6.64 g/m*3 9.7 C 0 km/h
3040 19-05-2009 03:40:21 9.4 C 6.51 g/m*3 9.4 C 0 km/h
3041 19-05-2009 03:52:21 9.3 C 6.56 g/m*3 9.3 C 0 km/h
3042 19-05-2009 04:04:21 9.3 C 6.56 g/m*3 9.3 C 0 km/h
3043 19-05-2009 04:16:21 9.1 C 6.65 g/m*3 9.1 C 0 km/h
3044 19-05-2009 04:28:21 8.9 C 6.66 g/m*3 8.9 C 0 km/h
3045 19-05-2009 04:40:21 8.8 C 6.7 g/m*3 8.8 C 0 km/h
3046 19-05-2009 04:52:21 8.6 C 6.7 g/m*3 8.6 C 0 km/h
3047 19-05-2009 05:04:21 8.5 C 6.57 g/m*3 8.5 C 0 km/h
3048 19-05-2009 05:16:21 8.4 C 6.62 g/m*3 8.4 C 0 km/h
3049 19-05-2009 05:28:21 8.2 C 6.62 g/m*3 8.2 C 0 km/h
3050 19-05-2009 05:40:22 8.2 C 6.62 g/m*3 8.2 C 0 km/h
Sensor: Nr:Datum:Temp:Abs-Feuchte:Windchill:Wind:
Aussen-T/F 3051 19-05-2009 05:52:22 8.1 C 6.57 g/m*3 8.1 C 0 km/h
3052 19-05-2009 06:04:22 8.1 C 6.57 g/m*3 8.1 C 0 km/h
3053 19-05-2009 06:16:20 8.1 C 6.57 g/m*3 8.1 C 0 km/h
3054 19-05-2009 06:28:20 8.1 C 6.66 g/m*3 8.1 C 0 km/h
3055 19-05-2009 06:40:19 8.2 C 6.7 g/m*3 8.2 C 0 km/h
3056 19-05-2009 06:52:19 9 C 7.05 g/m*3 9 C 0 km/h
3057 19-05-2009 07:04:20 9.5 C 7.01 g/m*3 9.5 C 0 km/h
3058 19-05-2009 07:16:19 9.7 C 6.91 g/m*3 9.7 C 0 km/h
3059 19-05-2009 07:28:19 9.6 C 6.87 g/m*3 9.6 C 0 km/h
3060 19-05-2009 07:40:19 9.6 C 6.78 g/m*3 9.6 C 0 km/h
3061 19-05-2009 07:52:19 9.7 C 6.82 g/m*3 9.7 C 0 km/h
3062 19-05-2009 08:04:19 10.3 C 6.9 g/m*3 10.3 C 0 km/h
3063 19-05-2009 08:16:18 10.5 C 6.69 g/m*3 10.5 C 0 km/h
3064 19-05-2009 08:28:18 10.5 C 6.69 g/m*3 10.5 C 0 km/h
3065 19-05-2009 08:40:18 10.8 C 6.72 g/m*3 10.8 C 0 km/h
3066 19-05-2009 08:52:18 11.5 C 6.82 g/m*3 11.5 C 0 km/h
3067 19-05-2009 09:04:18 12.5 C 6.93 g/m*3 12.5 C 0 km/h
3068 19-05-2009 09:16:18 13.1 C 6.85 g/m*3 13.1 C 0 km/h
3069 19-05-2009 09:28:18 14.1 C 7.04 g/m*3 14.1 C 0 km/h
3070 19-05-2009 09:40:18 14.3 C 7.25 g/m*3 14.3 C 0 km/h
3071 19-05-2009 09:52:18 15.8 C 7.27 g/m*3 15.8 C 0 km/h
3072 19-05-2009 10:04:17 15.8 C 7.27 g/m*3 15.8 C 0 km/h
3073 19-05-2009 10:16:17 16.2 C 7.45 g/m*3 16.2 C 0 km/h
3074 19-05-2009 10:28:18 16.8 C 7.29 g/m*3 16.8 C 0 km/h
3075 19-05-2009 10:40:17 17.7 C 7.54 g/m*3 17.7 C 0 km/h
Sensor: Nr:Datum:Temp:Abs-Feuchte:Windchill:Wind:
Aussen-T/F 3076 19-05-2009 10:52:17 18.9 C 7.29 g/m*3 18.9 C 0 km/h
3077 19-05-2009 11:04:16 19.7 C 7.3 g/m*3 19.7 C 0 km/h
3078 19-05-2009 11:16:17 19.9 C 7.04 g/m*3 19.9 C 0 km/h
3079 19-05-2009 11:28:17 20.4 C 6.72 g/m*3 20.4 C 0 km/h
3080 19-05-2009 11:40:17 21 C 6.05 g/m*3 21 C 0 km/h
3081 19-05-2009 11:52:16 21.2 C 6.12 g/m*3 21.2 C 0 km/h
3082 19-05-2009 12:04:17 22.1 C 6.05 g/m*3 22.1 C 0 km/h
3083 19-05-2009 12:16:16 22.8 C 5.69 g/m*3 22.8 C 0 km/h
3084 19-05-2009 12:28:16 22.4 C 5.56 g/m*3 22.4 C 0 km/h
3085 19-05-2009 12:40:16 21.9 C 5.4 g/m*3 21.9 C 0 km/h
3086 19-05-2009 12:52:15 25.1 C 5.09 g/m*3 25.1 C 0 km/h
3087 19-05-2009 13:04:16 23.5 C 5.92 g/m*3 23.5 C 0 km/h
3088 19-05-2009 13:16:16 23.6 C 5.32 g/m*3 23.6 C 0 km/h
3089 19-05-2009 13:28:16 23.9 C 4.76 g/m*3 23.9 C 0 km/h
3090 19-05-2009 13:40:15 24.8 C 4.55 g/m*3 24.8 C 0 km/h
3091 19-05-2009 13:52:16 24.2 C 5.06 g/m*3 24.2 C 0 km/h
3092 19-05-2009 14:04:15 23.8 C 5.16 g/m*3 23.8 C 0 km/h
3093 19-05-2009 14:16:15 23.5 C 6.56 g/m*3 23.5 C 0 km/h
3094 19-05-2009 14:28:16 23.7 C 7.06 g/m*3 23.7 C 0 km/h
3095 19-05-2009 14:40:14 22.7 C 7.27 g/m*3 22.7 C 0 km/h
3096 19-05-2009 14:52:15 24.1 C 6.35 g/m*3 24.1 C 0 km/h
3097 19-05-2009 15:04:14 25.4 C 5.18 g/m*3 25.4 C 0 km/h
3098 19-05-2009 15:16:14 24.1 C 6.78 g/m*3 24.1 C 0 km/h
3099 19-05-2009 15:28:14 23.2 C 7.48 g/m*3 23.2 C 0 km/h
3100 19-05-2009 15:40:15 26 C 5.6 g/m*3 26 C 0 km/h
Sensor: Nr:Datum:Temp:Abs-Feuchte:Windchill:Wind:
Aussen-T/F 3101 19-05-2009 15:52:14 27.4 C 5.79 g/m*3 27.4 C 0 km/h
3102 19-05-2009 16:04:14 27.7 C 5.35 g/m*3 27.7 C 0 km/h
3103 19-05-2009 16:16:13 28.2 C 5.5 g/m*3 28.2 C 0 km/h
3104 19-05-2009 16:28:13 27.9 C 5.41 g/m*3 27.9 C 0 km/h
3105 19-05-2009 16:40:14 27.3 C 6.54 g/m*3 27.3 C 0 km/h
3106 19-05-2009 16:52:13 26.5 C 6.01 g/m*3 26.5 C 0 km/h
3107 19-05-2009 17:04:13 25.9 C 6.29 g/m*3 25.9 C 0 km/h
3108 19-05-2009 17:16:14 24.9 C 7.1 g/m*3 24.9 C 0 km/h
3109 19-05-2009 17:28:14 21.6 C 10.05 g/m*3 21.6 C 0 km/h
3110 19-05-2009 17:40:13 23.8 C 10.54 g/m*3 23.8 C 0 km/h
3111 19-05-2009 17:52:13 23.6 C 9.57 g/m*3 23.6 C 0 km/h
3112 19-05-2009 18:04:13 23.7 C 8.98 g/m*3 23.7 C 0 km/h
3113 19-05-2009 18:16:13 25.1 C 7.18 g/m*3 25.1 C 0 km/h
3114 19-05-2009 18:28:14 24.9 C 8.7 g/m*3 24.9 C 0 km/h
3115 19-05-2009 18:40:12 24.1 C 8.53 g/m*3 24.1 C 0 km/h
3116 19-05-2009 18:52:12 23.7 C 9.41 g/m*3 23.7 C 0 km/h
3117 19-05-2009 19:04:12 23.1 C 9.3 g/m*3 23.1 C 0 km/h
3118 19-05-2009 19:16:12 22 C 8.93 g/m*3 22 C 0 km/h
3119 19-05-2009 19:28:12 21.6 C 8.72 g/m*3 21.6 C 0 km/h
3120 19-05-2009 19:40:12 21.2 C 9.08 g/m*3 21.2 C 0 km/h
3121 19-05-2009 19:52:12 20.6 C 9.31 g/m*3 20.6 C 0 km/h
3122 19-05-2009 20:04:12 18.5 C 8.54 g/m*3 18.5 C 0 km/h
3123 19-05-2009 20:16:11 16.9 C 9.21 g/m*3 16.9 C 0 km/h
3124 19-05-2009 20:28:11 15.7 C 9.63 g/m*3 15.7 C 0 km/h
3125 19-05-2009 20:40:12 15.6 C 10.24 g/m*3 15.6 C 0 km/h
Sensor: Nr:Datum:Temp:Abs-Feuchte:Windchill:Wind:
Aussen-T/F 3126 19-05-2009 20:52:11 16.1 C 10.55 g/m*3 16.1 C 0 km/h
3127 19-05-2009 21:04:11 15.9 C 10.56 g/m*3 15.9 C 0 km/h
3128 19-05-2009 21:16:11 15.9 C 10.7 g/m*3 15.9 C 0 km/h
3129 19-05-2009 21:28:12 15.8 C 10.36 g/m*3 15.8 C 0 km/h
3130 19-05-2009 21:40:10 15.7 C 10.17 g/m*3 15.7 C 0 km/h
3131 19-05-2009 21:52:11 15.6 C 10.11 g/m*3 15.6 C 0 km/h
3132 19-05-2009 22:04:10 15.3 C 9.79 g/m*3 15.3 C 0 km/h
3133 19-05-2009 22:16:10 15.3 C 9.66 g/m*3 15.3 C 0 km/h
3134 19-05-2009 22:28:10 15 C 9.49 g/m*3 15 C 0 km/h
3135 19-05-2009 22:41:13 14.7 C 9.44 g/m*3 14.7 C 0 km/h
3136 19-05-2009 22:53:13 14.7 C 9.44 g/m*3 14.7 C 0 km/h
3137 19-05-2009 23:05:13 14.4 C 9.27 g/m*3 14.4 C 0 km/h
3138 19-05-2009 23:17:13 14.2 C 9.28 g/m*3 14.2 C 0 km/h
3139 19-05-2009 23:29:13 14.1 C 9.22 g/m*3 14.1 C 0 km/h
3140 19-05-2009 23:41:13 13.9 C 9.47 g/m*3 13.9 C 0 km/h
3141 19-05-2009 23:53:13 13.7 C 9.24 g/m*3 13.7 C 0 km/h
3142 20-05-2009 00:05:13 13.6 C 9.3 g/m*3 13.6 C 0 km/h
3143 20-05-2009 00:17:13 13.3 C 9.01 g/m*3 13.3 C 0 km/h
3144 20-05-2009 00:29:13 13.4 C 9.07 g/m*3 13.4 C 0 km/h
3145 20-05-2009 00:41:13 13.2 C 8.96 g/m*3 13.2 C 0 km/h
3146 20-05-2009 00:53:14 13.1 C 8.9 g/m*3 13.1 C 0 km/h
3147 20-05-2009 01:05:14 13 C 8.85 g/m*3 13 C 0 km/h
3148 20-05-2009 01:17:14 12.8 C 8.85 g/m*3 12.8 C 0 km/h
3149 20-05-2009 01:29:14 12.6 C 8.74 g/m*3 12.6 C 0 km/h
3150 20-05-2009 01:41:14 12.5 C 8.69 g/m*3 12.5 C 0 km/h
Sensor: Nr:Datum:Temp:Abs-Feuchte:Windchill:Wind:
Aussen-T/F 3151 20-05-2009 01:53:14 12.4 C 8.74 g/m*3 12.4 C 0 km/h
3152 20-05-2009 02:05:14 12.2 C 8.63 g/m*3 12.2 C 0 km/h
3153 20-05-2009 02:17:14 12.1 C 8.69 g/m*3 12.1 C 0 km/h
3154 20-05-2009 02:29:14 12 C 8.63 g/m*3 12 C 0 km/h
3155 20-05-2009 02:41:14 11.8 C 8.53 g/m*3 11.8 C 0 km/h
3156 20-05-2009 02:53:14 11.8 C 8.63 g/m*3 11.8 C 0 km/h
3157 20-05-2009 03:05:14 11.8 C 8.74 g/m*3 11.8 C 0 km/h
3158 20-05-2009 03:17:14 11.5 C 8.68 g/m*3 11.5 C 0 km/h
3159 20-05-2009 03:29:14 11.3 C 8.67 g/m*3 11.3 C 0 km/h
3160 20-05-2009 03:41:14 11.1 C 8.56 g/m*3 11.1 C 0 km/h
3161 20-05-2009 03:53:14 11.1 C 8.66 g/m*3 11.1 C 0 km/h
3162 20-05-2009 04:05:14 11 C 8.61 g/m*3 11 C 0 km/h
3163 20-05-2009 04:17:14 10.9 C 8.55 g/m*3 10.9 C 0 km/h
3164 20-05-2009 04:29:15 10.8 C 8.5 g/m*3 10.8 C 0 km/h
3165 20-05-2009 04:41:15 10.6 C 8.39 g/m*3 10.6 C 0 km/h
3166 20-05-2009 04:53:15 10.4 C 8.38 g/m*3 10.4 C 0 km/h
3167 20-05-2009 05:05:15 10.3 C 8.33 g/m*3 10.3 C 0 km/h
3168 20-05-2009 05:17:15 10.3 C 8.43 g/m*3 10.3 C 0 km/h
3169 20-05-2009 05:29:15 10.2 C 8.37 g/m*3 10.2 C 0 km/h
3170 20-05-2009 05:41:15 10 C 8.27 g/m*3 10 C 0 km/h
3171 20-05-2009 05:53:15 10.1 C 8.32 g/m*3 10.1 C 0 km/h
3172 20-05-2009 06:05:15 10.2 C 8.37 g/m*3 10.2 C 0 km/h
3173 20-05-2009 06:17:15 10.4 C 8.48 g/m*3 10.4 C 0 km/h
3174 20-05-2009 06:29:15 10.6 C 8.49 g/m*3 10.6 C 0 km/h
3175 20-05-2009 06:41:15 10.7 C 8.55 g/m*3 10.7 C 0 km/h
Sensor: Nr:Datum:Temp:Abs-Feuchte:Windchill:Wind:
Aussen-T/F 3176 20-05-2009 06:53:12 10.8 C 8.5 g/m*3 10.8 C 0 km/h
3177 20-05-2009 07:05:12 10.9 C 8.55 g/m*3 10.9 C 0 km/h
3178 20-05-2009 07:17:11 11 C 8.61 g/m*3 11 C 0 km/h
3179 20-05-2009 07:29:11 11 C 8.61 g/m*3 11 C 0 km/h
3180 20-05-2009 07:41:12 11.4 C 8.72 g/m*3 11.4 C 0 km/h
3181 20-05-2009 07:53:11 11.5 C 8.68 g/m*3 11.5 C 0 km/h
3182 20-05-2009 08:05:11 11.7 C 8.79 g/m*3 11.7 C 0 km/h
3183 20-05-2009 08:17:10 12.1 C 8.79 g/m*3 12.1 C 0 km/h
3184 20-05-2009 08:29:10 12.8 C 8.85 g/m*3 12.8 C 0 km/h
3185 20-05-2009 08:41:11 13.2 C 8.73 g/m*3 13.2 C 0 km/h
3186 20-05-2009 08:53:10 13.9 C 8.87 g/m*3 13.9 C 0 km/h
3187 20-05-2009 09:05:10 14 C 8.68 g/m*3 14 C 0 km/h
3188 20-05-2009 09:17:11 14.4 C 8.9 g/m*3 14.4 C 0 km/h
3189 20-05-2009 09:29:11 15 C 8.98 g/m*3 15 C 0 km/h
3190 20-05-2009 09:41:10 15.9 C 9.21 g/m*3 15.9 C 0 km/h
3191 20-05-2009 09:53:10 16.6 C 9.04 g/m*3 16.6 C 0 km/h
3192 20-05-2009 10:05:10 17 C 9.26 g/m*3 17 C 0 km/h
3193 20-05-2009 10:17:10 17.5 C 9.54 g/m*3 17.5 C 0 km/h
3194 20-05-2009 10:29:10 17.8 C 9.71 g/m*3 17.8 C 0 km/h
3195 20-05-2009 10:41:10 17.9 C 9.31 g/m*3 17.9 C 0 km/h
3196 20-05-2009 10:53:10 18.6 C 9.39 g/m*3 18.6 C 0 km/h
3197 20-05-2009 11:05:10 19.2 C 8.9 g/m*3 19.2 C 0 km/h
3198 20-05-2009 11:17:09 20.4 C 8.85 g/m*3 20.4 C 0 km/h
3199 20-05-2009 11:29:09 20.8 C 8.69 g/m*3 20.8 C 0 km/h
3200 20-05-2009 11:41:09 21.6 C 8.53 g/m*3 21.6 C 0 km/h
Sensor: Nr:Datum:Temp:Abs-Feuchte:Windchill:Wind:
Aussen-T/F 3201 20-05-2009 11:53:09 22.5 C 8.39 g/m*3 22.5 C 0 km/h
3202 20-05-2009 12:05:09 23.1 C 8.27 g/m*3 23.1 C 0 km/h
3203 20-05-2009 12:17:08 23.4 C 7.99 g/m*3 23.4 C 0 km/h
3204 20-05-2009 12:29:08 24.2 C 7.7 g/m*3 24.2 C 0 km/h
3205 20-05-2009 12:41:08 24.7 C 7.24 g/m*3 24.7 C 0 km/h
3206 20-05-2009 12:53:08 25.2 C 7.45 g/m*3 25.2 C 0 km/h
3207 20-05-2009 13:05:08 25.5 C 7.1 g/m*3 25.5 C 0 km/h
3208 20-05-2009 13:17:08 26.6 C 7.3 g/m*3 26.6 C 0 km/h
3209 20-05-2009 13:29:08 26.8 C 6.62 g/m*3 26.8 C 0 km/h
3210 20-05-2009 13:41:08 26.3 C 6.68 g/m*3 26.3 C 0 km/h
3211 20-05-2009 13:53:08 26 C 6.57 g/m*3 26 C 0 km/h
3212 20-05-2009 14:05:07 25.4 C 7.06 g/m*3 25.4 C 0 km/h
3213 20-05-2009 14:17:08 25.5 C 7.1 g/m*3 25.5 C 0 km/h
3214 20-05-2009 14:29:08 26.4 C 7.22 g/m*3 26.4 C 0 km/h
3215 20-05-2009 14:41:07 27.2 C 7.03 g/m*3 27.2 C 0 km/h
3216 20-05-2009 14:53:07 28 C 6.8 g/m*3 28 C 0 km/h
3217 20-05-2009 15:05:07 28.1 C 7.11 g/m*3 28.1 C 0 km/h
3218 20-05-2009 15:17:07 27.9 C 7.57 g/m*3 27.9 C 0 km/h
3219 20-05-2009 15:29:07 28.4 C 6.95 g/m*3 28.4 C 0 km/h
3220 20-05-2009 15:41:07 28.6 C 7.31 g/m*3 28.6 C 0 km/h
3221 20-05-2009 15:53:06 28.7 C 7.35 g/m*3 28.7 C 0 km/h
3222 20-05-2009 16:05:07 28 C 7.07 g/m*3 28 C 0 km/h
3223 20-05-2009 16:17:06 27.7 C 7.49 g/m*3 27.7 C 0 km/h
3224 20-05-2009 16:29:06 26.4 C 7.97 g/m*3 26.4 C 0 km/h
3225 20-05-2009 16:41:06 27 C 6.95 g/m*3 27 C 0 km/h
Sensor: Nr:Datum:Temp:Abs-Feuchte:Windchill:Wind:
Aussen-T/F 3226 20-05-2009 16:53:06 28.2 C 7.42 g/m*3 28.2 C 0 km/h
3227 20-05-2009 17:05:06 28.8 C 7.1 g/m*3 28.8 C 0 km/h
3228 20-05-2009 17:17:06 28.2 C 8.25 g/m*3 28.2 C 0 km/h
3229 20-05-2009 17:29:06 27.7 C 8.29 g/m*3 27.7 C 0 km/h
3230 20-05-2009 17:41:05 27.4 C 8.68 g/m*3 27.4 C 0 km/h
3231 20-05-2009 17:53:06 26.8 C 8.65 g/m*3 26.8 C 0 km/h
3232 20-05-2009 18:05:05 27.7 C 8.56 g/m*3 27.7 C 0 km/h
3233 20-05-2009 18:17:05 26.5 C 8.76 g/m*3 26.5 C 0 km/h
3234